[[{"header":{"parameterUnit":"m.s-1","parameterCategory":1,"la1":31.0,"la2":29.5877,"lo1":-88.7671,"lo2":-86.6584,"dy":0.0162,"dx":0.0185,"nx":115,"ny":88,"refTime":"2024-09-01T18:00:00:Z","depth":0,"parameterNumber":2,"parameterNumberName":"U-component_of_WINDS"},"data":[0.0,0.0,0.0,0.0,0.0,0.0,0.0,0.0,0.0,0.0,0.0,0.0,0.0,0.0,0.0,0.0,0.0,0.0,0.0,0.0,0.0,0.0,0.0,0.0,0.0,0.0,0.0,0.0,0.0,0.0,0.0,0.0,0.0,0.0,0.0,0.0,0.0,0.0,0.0,0.0,0.0,0.0,0.0,0.0,0.0,0.0,0.0,0.0,0.0,0.0,0.0,0.0,0.0,0.0,0.0,0.0,0.0,0.0,0.0,0.0,0.0,0.0,0.0,0.0,0.0,0.0,0.0,0.0,0.0,0.0,0.0,0.0,0.0,0.0,0.0,0.0,0.0,0.0,0.0,0.0,0.0,0.0,0.0,0.0,0.0,0.0,0.0,0.0,0.0,0.0,0.0,0.0,0.0,0.0,0.0,0.0,0.0,0.0,0.0,0.0,0.0,0.0,0.0,0.0,0.0,0.0,0.0,0.0,0.0,0.0,0.0,0.0,0.0,0.0,0.0,0.0,0.0,0.0,0.0,0.0,0.0,0.0,0.0,0.0,0.0,0.0,0.0,0.0,0.0,0.0,0.0,0.0,0.0,0.0,0.0,0.0,0.0,0.0,0.0,0.0,0.0,0.0,0.0,0.0,0.0,0.0,0.0,0.0,0.0,0.0,0.0,0.0,0.0,0.0,0.0,0.0,0.0,0.0,0.0,0.0,0.0,0.0,0.0,0.0,0.0,0.0,0.0,0.0,0.0,0.0,0.0,0.0,0.0,0.0,0.0,0.0,0.0,0.0,0.0,0.0,0.0,0.0,0.0,0.0,0.0,0.0,0.0,0.0,0.0,0.0,0.0,0.0,0.0,0.0,0.0,0.0,0.0,0.0,0.0,0.0,0.0,0.0,0.0,0.0,0.0,0.0,0.0,0.0,0.0,0.0,0.0,0.0,0.0,0.0,0.0,0.0,0.0,0.0,0.0,0.0,0.0,0.0,0.0,0.0,0.0,0.0,0.0,0.0,0.0,0.0,0.0,0.0,0.0,0.0,0.0,0.0,0.0,0.0,0.0,0.0,0.0,0.0,0.0,0.0,0.0,0.0,0.0,0.0,0.0,0.0,0.0,0.0,0.0,0.0,0.0,0.0,0.0,0.0,0.0,0.0,0.0,0.0,0.0,0.0,0.0,0.0,0.0,0.0,0.0,0.0,0.0,0.0,0.0,0.0,0.0,0.0,0.0,0.0,0.0,0.0,0.0,0.0,0.0,0.0,0.0,0.0,0.0,0.0,0.0,0.0,0.0,0.0,0.0,0.0,0.0,0.0,0.0,0.0,0.0,0.0,0.0,0.0,0.0,0.0,0.0,0.0,0.0,0.0,0.0,0.0,0.0,0.0,0.0,0.0,0.0,0.0,0.0,0.0,0.0,0.0,0.0,0.0,0.0,0.0,0.0,0.0,0.0,0.0,0.0,0.0,0.0,0.0,0.0,0.0,0.0,0.0,0.0,0.0,0.0,0.0,0.0,0.0,0.0,0.0,0.0,0.0,0.0,0.0,0.0,0.0,0.0,0.0,0.0,0.0,0.0,0.0,0.0,0.0,0.0,0.0,0.0,0.0,0.0,0.0,0.0,0.0,0.0,0.0,0.0,0.0,0.0,0.0,0.0,0.0,0.0,0.0,0.0,0.0,0.0,0.0,0.0,0.0,0.0,0.0,0.0,0.0,0.0,0.0,0.0,0.0,0.0,0.0,0.0,0.0,0.0,0.0,0.0,0.0,0.0,0.0,0.0,0.0,0.0,0.0,0.0,0.0,0.0,0.0,0.0,0.0,0.0,0.0,0.0,0.0,0.0,0.0,0.0,0.0,0.0,0.0,0.0,0.0,0.0,0.0,0.0,0.0,0.0,0.0,0.0,0.0,0.0,0.0,0.0,0.0,0.0,0.0,0.0,0.0,0.0,0.0,0.0,0.0,0.0,0.0,0.0,0.0,0.0,0.0,0.0,0.0,0.0,0.0,0.0,0.0,0.0,0.0,0.0,0.0,0.0,0.0,0.0,0.0,0.0,0.0,0.0,0.0,0.0,0.0,0.0,0.0,0.0,0.0,0.0,0.0,0.0,0.0,0.0,0.0,0.0,0.0,0.0,0.0,0.0,0.0,0.0,0.0,0.0,0.0,0.0,0.0,0.0,0.0,0.0,0.0,0.0,0.0,0.0,0.0,0.0,0.0,0.0,0.0,0.0,0.0,0.0,0.0,0.0,0.0,0.0,0.0,0.0,0.0,0.0,0.0,0.0,0.0,0.0,0.0,0.0,0.0,0.0,0.0,0.0,0.0,0.0,0.0,0.0,0.0,0.0,0.0,0.0,0.0,0.0,0.0,0.0,0.0,0.0,0.0,0.0,0.0,0.0,0.0,0.0,0.0,0.0,0.0,0.0,0.0,0.0,0.0,0.0,0.0,0.0,0.0,0.0,0.0,0.0,0.0,0.0,0.0,0.0,0.0,0.0,0.0,0.0,0.0,0.0,0.0,0.0,0.0,0.0,0.0,0.0,0.0,0.0,0.0,0.0,0.0,0.0,0.0,0.0,0.0,0.0,0.0,0.0,0.0,0.0,0.0,0.0,0.0,0.0,0.0,0.0,0.0,0.0,0.0,0.0,0.0,0.0,0.0,0.0,0.0,0.0,0.0,0.0,0.0,0.0,0.0,0.0,0.0,0.0,0.0,0.0,0.0,0.0,0.0,0.0,0.0,0.0,0.0,0.0,0.0,0.0,0.0,0.0,0.0,0.0,0.0,0.0,0.0,0.0,0.0,0.0,0.0,0.0,0.0,0.0,0.0,0.0,0.0,0.0,0.0,0.0,0.0,0.0,0.0,0.0,0.0,0.0,0.0,0.0,0.0,0.0,0.0,0.0,0.0,0.0,0.0,0.0,0.0,0.0,0.0,0.0,0.0,0.0,0.0,0.0,0.0,0.0,0.0,0.0,0.0,0.0,0.0,0.0,0.0,0.0,0.0,0.0,0.0,0.0,0.0,0.0,0.0,0.0,0.0,0.0,0.0,0.0,0.0,0.0,0.0,0.0,0.0,0.0,0.0,0.0,0.0,0.0,0.0,0.0,0.0,0.0,0.0,0.0,0.0,0.0,0.0,0.0,0.0,0.0,0.0,0.0,0.0,0.0,0.0,0.0,0.0,0.0,0.0,0.0,0.0,0.0,0.0,0.0,0.0,0.0,0.0,0.0,0.0,0.0,0.0,0.0,0.0,0.0,0.0,0.0,0.0,0.0,0.0,0.0,0.0,0.0,0.0,0.0,0.0,0.0,0.0,0.0,0.0,0.0,0.0,0.0,0.0,0.0,0.0,0.0,0.0,0.0,0.0,0.0,0.0,0.0,0.0,0.0,0.0,0.0,0.0,0.0,0.0,0.0,0.0,0.0,0.0,0.0,0.0,0.0,0.0,0.0,0.0,0.0,0.0,0.0,0.0,0.0,0.0,0.0,0.0,0.0,0.0,0.0,0.0,0.0,0.0,0.0,0.0,0.0,0.0,0.0,0.0,0.0,0.0,0.0,0.0,0.0,0.0,0.0,0.0,0.0,0.0,0.0,0.0,0.0,0.0,0.0,0.0,0.0,0.0,0.0,0.0,0.0,0.0,0.0,0.0,0.0,0.0,0.0,0.0,0.0,0.0,0.0,0.0,0.0,0.0,0.0,0.0,0.0,0.0,0.0,0.0,0.0,0.0,0.0,0.0,0.0,0.0,0.0,0.0,0.0,0.0,0.0,0.0,0.0,0.0,0.0,0.0,0.0,0.0,0.0,0.0,0.0,0.0,0.0,0.0,0.0,0.0,0.0,0.0,0.0,0.0,0.0,0.0,0.0,0.0,0.0,0.0,0.0,0.0,0.0,0.0,0.0,0.0,0.0,0.0,0.0,0.0,0.0,0.0,0.0,0.0,0.0,0.0,0.0,0.0,0.0,0.0,0.0,0.0,0.0,0.0,0.0,0.0,0.0,0.0,0.0,0.0,0.0,0.0,0.0,0.0,0.0,0.0,0.0,0.0,0.0,0.0,0.0,0.0,0.0,0.0,0.0,0.0,0.0,0.0,0.0,0.0,0.0,0.0,0.0,0.0,0.0,0.0,0.0,0.0,0.0,0.0,0.0,0.0,0.0,0.0,0.0,0.0,0.0,0.0,0.0,0.0,0.0,0.0,0.0,0.0,0.0,0.0,0.0,0.0,0.0,0.0,0.0,0.0,0.0,0.0,0.0,0.0,0.0,0.0,0.0,0.0,1.0057,0.0,0.0,0.0,0.0,0.0,0.0,0.0,0.0,0.0,0.0,0.0,0.0,0.0,0.0,0.0,0.0,0.0,0.0,0.0,0.0,0.0,0.0,0.0,0.0,0.0,0.0,0.0,0.0,0.0,0.0,0.0,0.0,0.0,0.0,0.0,0.0,0.0,0.0,0.0,0.0,0.0,0.0,0.0,0.0,0.0,0.0,0.0,0.0,0.0,0.0,0.0,0.0,0.0,0.0,0.0,0.0,0.0,0.0,0.0,0.0,0.0,0.0,0.0,0.0,0.0,0.0,0.0,0.0,0.0,0.0,0.0,0.0,0.0,0.0,0.0,0.0,0.0,0.0,0.0,0.0,0.0,0.0,0.0,0.0,0.0,0.0,0.0,0.0,0.0,0.0,0.0,0.0,0.0,0.0,0.0,0.0,0.0,0.0,0.0,0.0,0.0,0.0,0.0,0.0,0.0,0.0,0.0,0.0,0.0,0.0,1.0038,1.001,1.0038,1.006,1.0106,0.0,0.0,0.0,0.0,0.0,0.0,0.0,0.0,0.0,0.0,0.0,0.0,0.0,0.0,0.0,0.0,0.0,0.0,0.0,0.0,0.0,0.0,0.0,0.0,0.0,0.0,0.0,0.0,0.0,0.0,0.0,0.0,0.0,0.0,0.0,0.0,0.0,0.0,0.0,0.0,0.0,0.0,0.0,0.0,0.0,0.0,0.0,0.0,0.0,0.0,0.0,0.0,0.0,0.0,0.0,0.0,0.0,0.0,0.0,0.0,0.0,0.0,0.0,0.0,0.0,0.0,0.0,0.0,0.0,0.0,0.0,0.0,0.0,0.0,0.0,0.0,0.0,0.0,0.0,0.0,0.0,0.0,0.0,0.0,0.0,0.0,0.0,0.0,0.0,0.0,0.0,0.0,0.0,0.0,0.0,0.0,0.0,0.0,0.0,0.0,0.0,0.0,0.0,0.0,0.0,0.0,0.0,0.0,0.0,0.0,0.0,0.0,1.0663,1.0675,1.0684,0.0,0.0,0.0,0.0,0.0,0.0,0.0,0.0,0.0,0.0,0.0,0.0,0.0,0.0,0.0,0.0,0.0,0.0,0.0,0.0,0.0,0.0,0.0,0.0,0.0,0.0,0.0,0.0,0.0,0.0,0.0,0.0,0.0,0.0,0.0,0.0,0.0,0.0,0.0,0.0,0.0,0.0,0.0,0.0,0.0,0.0,0.0,0.0,0.0,0.0,0.0,0.0,0.0,0.0,0.0,0.0,0.0,0.0,0.0,0.0,0.0,0.0,0.0,0.0,0.0,0.0,0.0,0.0,0.0,0.0,0.0,0.0,0.0,0.0,0.0,0.0,0.0,0.0,0.0,0.0,0.0,0.0,0.0,0.0,0.0,0.0,0.0,0.0,0.0,0.0,0.0,0.0,0.0,0.0,0.0,0.0,0.0,0.0,0.0,0.0,0.0,0.0,0.0,0.0,0.0,0.0,0.0,0.0,0.0,0.0,1.0844,1.2387,1.2447,0.0,1.245,0.0,0.0,0.0,0.0,0.0,0.0,0.0,0.0,0.0,0.0,0.0,0.0,0.0,0.0,0.0,0.0,0.0,0.0,0.0,0.0,0.0,0.0,0.0,0.0,0.0,0.0,0.0,0.0,0.0,0.0,0.0,0.0,0.0,0.0,0.0,0.0,0.0,0.0,0.0,0.0,0.0,0.0,0.0,0.0,0.0,0.0,0.0,0.0,0.0,0.0,0.0,0.0,0.0,0.0,0.0,0.0,0.0,0.0,0.0,0.0,0.0,0.0,0.0,0.0,0.0,0.0,0.0,0.0,0.0,0.0,0.0,0.0,0.0,0.0,0.0,0.0,0.0,0.0,0.0,0.0,0.0,0.0,0.0,0.0,0.0,0.0,0.0,0.0,0.0,0.0,0.0,0.0,0.0,0.0,0.0,0.0,0.0,0.0,0.0,0.0,0.0,0.0,0.0,0.0,0.0,0.0,0.0,0.0,0.0,0.0,0.0,1.268,1.2685,1.2689,0.0,0.0,0.0,0.0,0.0,0.0,0.0,0.0,0.0,0.0,0.0,0.0,0.0,0.0,0.0,0.0,0.0,0.0,0.0,0.0,0.0,0.0,0.0,0.0,0.0,0.0,0.0,0.0,0.0,0.0,0.0,0.0,0.0,0.0,0.0,0.0,0.0,0.0,0.0,0.0,0.0,0.0,0.0,0.0,0.0,0.0,0.0,0.0,0.0,0.0,0.0,0.0,0.0,0.0,0.0,0.0,0.0,0.0,0.0,0.0,0.0,0.0,0.0,0.0,0.0,0.0,0.0,0.0,0.0,0.0,0.0,0.0,0.0,0.0,0.0,0.0,0.0,0.0,0.0,0.0,0.0,0.0,0.0,0.0,0.0,0.0,0.0,0.0,0.0,0.0,0.0,0.0,0.0,0.0,0.0,0.0,0.0,0.0,0.0,0.0,0.0,0.0,0.0,0.0,0.0,0.0,0.0,0.0,0.0,0.0,1.2286,0.0,1.3354,1.3165,1.293,1.2714,0.0,0.0,0.0,0.0,0.0,0.0,0.0,0.0,0.0,0.0,0.0,0.0,0.0,0.0,0.0,0.0,0.0,0.0,0.0,0.0,0.0,0.0,0.0,0.0,0.0,0.0,0.0,0.0,0.0,0.0,0.0,0.0,0.0,0.0,0.0,0.0,0.0,0.0,0.0,0.0,0.0,0.0,0.0,0.0,0.0,0.0,0.0,0.0,0.0,0.0,0.0,0.0,0.0,0.0,0.0,0.0,0.0,0.0,0.0,0.0,0.0,0.0,0.0,0.0,0.0,0.0,0.0,0.0,0.0,0.0,0.0,0.0,0.0,0.0,0.0,0.0,0.0,0.0,0.0,0.0,0.0,0.0,0.0,0.0,0.0,0.0,0.0,0.0,0.0,0.0,0.0,0.0,0.0,0.0,0.0,0.0,0.0,0.0,0.0,0.0,0.0,0.0,0.0,0.0,0.0,0.0,0.0,0.0,0.0,1.3404,1.3445,1.4978,1.4261,1.3499,0.0,0.0,0.0,0.0,0.0,0.0,0.0,0.0,0.0,0.0,0.0,0.0,0.0,0.0,0.0,0.0,0.0,0.0,0.0,0.0,0.0,0.0,0.0,0.0,0.0,0.0,0.0,0.0,0.0,0.0,0.0,0.0,0.0,0.0,0.0,0.0,0.0,0.0,0.0,0.0,0.0,0.0,0.0,0.0,0.0,0.0,0.0,0.0,0.0,0.0,0.0,0.0,0.0,0.0,0.0,0.0,0.0,0.0,0.0,0.0,0.0,0.0,0.0,0.0,0.0,0.0,0.0,0.0,0.0,0.0,0.0,0.0,0.0,0.0,0.0,0.0,0.0,0.0,0.0,0.0,0.0,0.0,0.0,0.0,0.0,0.0,0.0,0.0,0.0,0.0,0.0,0.0,0.0,0.0,0.0,0.0,0.0,0.0,0.0,0.0,0.0,0.0,0.0,0.0,0.0,0.0,0.0,0.0,0.0,1.1839,1.2421,1.3769,1.5847,1.4148,1.3248,0.0,0.0,0.0,0.0,0.0,0.0,0.0,0.0,0.0,0.0,0.0,0.0,0.0,0.0,0.0,0.0,0.0,0.0,0.0,0.0,0.0,0.0,0.0,0.0,0.0,0.0,0.0,0.0,0.0,0.0,0.0,0.0,0.0,0.0,0.0,0.0,0.0,0.0,0.0,0.0,0.0,0.0,0.0,0.0,0.0,0.0,0.0,0.0,0.0,0.0,0.0,0.0,0.0,0.0,0.0,0.0,0.0,0.0,0.0,0.0,0.0,0.0,0.0,0.0,0.0,0.0,0.0,0.0,0.0,0.0,0.0,0.0,0.0,0.0,0.0,0.0,0.0,0.0,0.0,0.0,0.0,0.0,0.0,0.0,0.0,0.0,0.0,0.0,0.0,0.0,0.0,0.0,0.0,0.0,0.0,0.0,0.0,0.0,0.0,0.0,0.0,0.0,0.0,0.0,0.0,0.0,0.0,0.0,0.0,1.1325,0.0,1.4224,0.0,1.3764,1.2714,0.0,0.0,0.0,0.0,0.0,0.0,0.0,0.0,0.0,0.0,0.0,0.0,0.0,0.0,0.0,0.0,0.0,0.0,0.0,0.0,0.0,0.0,0.0,0.0,0.0,0.0,0.0,0.0,0.0,0.0,0.0,0.0,0.0,0.0,0.0,0.0,0.0,0.0,0.0,0.0,0.0,0.0,0.0,0.0,0.0,0.0,0.0,0.0,0.0,0.0,0.0,0.0,0.0,0.0,0.0,0.0,0.0,0.0,0.0,0.0,0.0,0.0,0.0,0.0,0.0,0.0,0.0,0.0,0.0,0.0,0.0,0.0,0.0,0.0,0.0,0.0,0.0,0.0,0.0,0.0,0.0,0.0,0.0,0.0,0.0,0.0,0.0,0.0,0.0,0.0,0.0,0.0,0.0,0.0,0.0,0.0,0.0,0.0,0.0,0.0,0.0,0.0,0.0,0.0,0.0,0.0,0.0,0.0,1.132,1.3704,1.4689,1.4824,1.4052,1.3147,1.1943,0.0,0.0,0.0,0.0,0.0,0.0,0.0,0.0,0.0,0.0,0.0,0.0,0.0,0.0,0.0,0.0,0.0,0.0,0.0,0.0,0.0,0.0,0.0,0.0,0.0,0.0,0.0,0.0,0.0,0.0,0.0,0.0,0.0,0.0,0.0,0.0,0.0,0.0,0.0,0.0,0.0,0.0,0.0,0.0,0.0,0.0,0.0,0.0,0.0,0.0,0.0,0.0,0.0,0.0,0.0,0.0,0.0,0.0,0.0,0.0,0.0,0.0,0.0,0.0,0.0,0.0,0.0,0.0,0.0,0.0,0.0,0.0,0.0,0.0,0.0,0.0,0.0,0.0,0.0,0.0,0.0,0.0,0.0,0.0,0.0,0.0,0.0,0.0,0.0,0.0,0.0,0.0,0.0,0.0,0.0,0.0,0.0,0.0,0.0,0.0,0.0,0.0,0.0,0.0,0.0,0.0,0.0,0.0,0.0,1.2126,1.3602,1.4534,1.4758,1.2909,1.2145,0.0,0.0,0.0,0.0,0.0,0.0,0.0,0.0,0.0,0.0,0.0,0.0,0.0,0.0,0.0,0.0,0.0,0.0,0.0,0.0,0.0,0.0,0.0,0.0,0.0,0.0,0.0,0.0,0.0,0.0,0.0,0.0,0.0,0.0,0.0,0.0,0.0,0.0,0.0,0.0,0.0,0.0,0.0,0.0,0.0,0.0,0.0,0.0,0.0,0.0,0.0,0.0,0.0,0.0,0.0,0.0,0.0,0.0,0.0,0.0,0.0,0.0,0.0,0.0,0.0,0.0,0.0,0.0,0.0,0.0,0.0,0.0,0.0,0.0,0.0,0.0,0.0,0.0,0.0,0.0,0.0,0.0,0.0,0.0,0.0,0.0,0.0,0.0,0.0,0.0,0.0,0.0,0.0,0.0,0.0,0.0,0.0,0.0,0.0,0.0,0.0,0.0,0.0,0.0,0.0,0.0,0.0,0.0,0.0,1.411,1.5268,1.5975,1.6163,1.4374,1.3251,1.2982,0.0,0.0,0.0,0.0,0.0,0.0,0.0,0.0,0.0,0.0,0.0,0.0,0.0,0.0,0.0,0.0,0.0,0.0,0.0,0.0,0.0,0.0,0.0,0.0,0.0,0.0,0.0,0.0,0.0,0.0,0.0,0.0,0.0,0.0,0.0,0.0,0.0,0.0,0.0,0.0,0.0,0.0,0.0,0.0,0.0,0.0,0.0,0.0,0.0,0.0,0.0,0.0,0.0,0.0,0.0,0.0,0.0,0.0,0.0,0.0,0.0,0.0,0.0,0.0,0.0,0.0,0.0,0.0,0.0,0.0,0.0,0.0,0.0,0.0,0.0,0.0,0.0,0.0,0.0,0.0,0.0,0.0,0.0,0.0,0.0,0.0,0.0,0.0,0.0,0.0,0.0,0.0,0.0,0.0,0.0,0.0,0.0,0.0,0.0,0.0,0.0,0.0,0.0,0.0,0.0,0.0,0.0,0.0,1.8831,1.9331,1.9182,1.8296,1.7151,1.5095,0.0,0.0,0.0,0.0,0.0,0.0,0.0,0.0,0.0,0.0,0.0,0.0,0.0,0.0,0.0,0.0,0.0,0.0,0.0,0.0,0.0,0.0,0.0,0.0,0.0,0.0,0.0,0.0,0.0,0.0,0.0,0.0,0.0,0.0,0.0,0.0,0.0,0.0,0.0,0.0,0.0,0.0,0.0,0.0,0.0,0.0,0.0,0.0,0.0,0.0,0.0,0.0,0.0,0.0,0.0,0.0,0.0,0.0,0.0,0.0,0.0,0.0,0.0,0.0,0.0,0.0,0.0,0.0,0.0,0.0,0.0,0.0,0.0,0.0,0.0,0.0,0.0,0.0,0.0,0.0,0.0,0.0,0.0,0.0,0.0,0.0,0.0,0.0,0.0,0.0,0.0,0.0,0.0,0.0,0.0,0.0,0.0,0.0,0.0,0.0,0.0,0.0,0.0,0.0,0.0,0.0,0.0,0.0,0.0,2.0584,2.388,2.4869,2.3299,1.8981,1.6458,0.0,0.0,0.0,0.0,0.0,0.0,0.0,0.0,0.0,0.0,0.0,0.0,0.0,0.0,0.0,0.0,0.0,0.0,0.0,0.0,0.0,0.0,0.0,0.0,0.0,0.0,0.0,0.0,0.0,0.0,0.0,0.0,0.0,0.0,0.0,0.0,0.0,0.0,0.0,0.0,0.0,0.0,0.0,0.0,0.0,0.0,0.0,0.0,0.0,0.0,0.0,0.0,0.0,0.0,0.0,0.0,0.0,0.0,0.0,0.0,0.0,0.0,0.0,0.0,0.0,0.0,0.0,0.0,0.0,0.0,0.0,0.0,0.0,0.0,0.0,0.0,0.0,0.0,0.0,0.0,0.0,0.0,0.0,0.0,0.0,0.0,0.0,0.0,0.0,0.0,0.0,0.0,0.0,0.0,0.0,0.0,0.0,0.0,0.0,0.0,0.0,0.0,0.0,0.0,0.0,0.0,0.0,0.0,2.0003,2.3403,2.7739,2.9525,2.8497,2.2862,1.896,0.0,0.0,0.0,0.0,0.0,0.0,0.0,0.0,0.0,0.0,0.0,0.0,0.0,0.0,0.0,0.0,0.0,0.0,0.0,0.0,0.0,0.0,0.0,0.0,0.0,0.0,0.0,0.0,0.0,0.0,0.0,0.0,0.0,0.0,0.0,0.0,0.0,0.0,0.0,0.0,0.0,0.0,0.0,0.0,0.0,0.0,0.0,0.0,0.0,0.0,0.0,0.0,0.0,0.0,0.0,0.0,0.0,0.0,0.0,0.0,0.0,0.0,0.0,0.0,0.0,0.0,0.0,0.0,0.0,0.0,0.0,0.0,0.0,0.0,0.0,0.0,0.0,0.0,0.0,0.0,0.0,0.0,0.0,0.0,0.0,0.0,0.0,0.0,0.0,0.0,0.0,0.0,0.0,0.0,0.0,0.0,0.0,0.0,0.0,0.0,0.0,0.0,0.0,0.0,0.0,0.0,0.0,0.0,2.3059,2.6493,3.0797,3.2981,3.2722,2.7249,2.1891,0.0,0.0,0.0,0.0,0.0,0.0,0.0,0.0,0.0,0.0,0.0,0.0,0.0,0.0,0.0,0.0,0.0,0.0,0.0,0.0,0.0,0.0,0.0,0.0,0.0,0.0,0.0,0.0,0.0,0.0,0.0,0.0,0.0,0.0,0.0,0.0,0.0,0.0,0.0,0.0,0.0,0.0,0.0,0.0,0.0,0.0,0.0,0.0,0.0,0.0,0.0,0.0,0.0,0.0,0.0,0.0,0.0,0.0,0.0,0.0,0.0,0.0,0.0,0.0,0.0,0.0,0.0,0.0,0.0,0.0,0.0,0.0,0.0,0.0,0.0,0.0,0.0,0.0,0.0,0.0,0.0,0.0,0.0,0.0,0.0,0.0,0.0,0.0,0.0,0.0,0.0,0.0,0.0,0.0,0.0,0.0,0.0,0.0,0.0,0.0,0.0,0.0,0.0,0.0,0.0,0.0,0.0,0.0,2.3926,2.739,3.1693,3.3596,3.2894,2.7201,2.2651,0.0,0.0,0.0,0.0,0.0,0.0,0.0,0.0,0.0,0.0,0.0,0.0,0.0,0.0,0.0,0.0,0.0,0.0,0.0,0.0,0.0,0.0,0.0,0.0,0.0,0.0,0.0,0.0,0.0,0.0,0.0,0.0,0.0,0.0,0.0,0.0,0.0,0.0,0.0,0.0,0.0,0.0,0.0,0.0,0.0,0.0,0.0,0.0,1.059,0.0,0.0,0.0,0.0,0.0,0.0,0.0,0.0,0.0,0.0,0.0,0.0,0.0,0.0,0.0,0.0,0.0,0.0,0.0,0.0,0.0,0.0,0.0,0.0,0.0,0.0,0.0,0.0,0.0,0.0,0.0,0.0,0.0,0.0,0.0,0.0,0.0,0.0,0.0,0.0,0.0,0.0,0.0,0.0,0.0,0.0,0.0,0.0,0.0,0.0,0.0,0.0,0.0,0.0,0.0,0.0,0.0,0.0,0.0,2.502,2.8921,3.2801,3.4191,3.2831,2.909,2.4927,0.0,0.0,0.0,0.0,0.0,0.0,0.0,0.0,0.0,0.0,0.0,0.0,0.0,0.0,0.0,0.0,0.0,0.0,0.0,0.0,0.0,0.0,0.0,0.0,0.0,0.0,0.0,0.0,0.0,0.0,0.0,0.0,0.0,0.0,0.0,0.0,0.0,0.0,0.0,0.0,0.0,0.0,0.0,0.0,0.0,0.0,0.0,0.0,0.0,0.0,0.0,0.0,0.0,0.0,0.0,0.0,0.0,0.0,0.0,0.0,0.0,0.0,0.0,0.0,0.0,0.0,0.0,0.0,0.0,0.0,0.0,0.0,0.0,0.0,0.0,0.0,0.0,0.0,0.0,0.0,0.0,0.0,0.0,0.0,0.0,0.0,0.0,0.0,0.0,0.0,0.0,0.0,0.0,0.0,0.0,0.0,0.0,0.0,0.0,0.0,0.0,0.0,0.0,0.0,0.0,0.0,0.0,2.1729,2.5956,3.0648,3.3622,3.4403,3.2914,3.1149,2.7082,2.06,0.0,0.0,0.0,0.0,0.0,0.0,0.0,0.0,0.0,0.0,0.0,0.0,0.0,0.0,0.0,0.0,0.0,0.0,0.0,0.0,0.0,0.0,0.0,0.0,0.0,0.0,0.0,0.0,0.0,0.0,0.0,0.0,0.0,0.0,0.0,0.0,0.0,0.0,0.892,0.9525,0.0,0.0,0.0,0.0,0.0,0.0,0.0,0.0,1.0938,0.0,0.0,0.0,0.0,0.0,0.0,0.0,0.0,0.0,0.0,0.0,0.0,0.0,0.0,0.0,0.0,0.0,0.0,0.0,0.0,0.0,0.0,0.0,0.0,0.0,0.0,0.0,0.0,0.0,0.0,0.0,0.0,0.0,0.0,0.0,0.0,0.0,0.0,0.0,0.0,0.0,0.0,0.0,0.0,0.0,0.0,0.0,0.0,0.0,0.0,0.0,0.0,0.0,0.0,0.0,0.0,2.0515,2.2064,2.5956,3.2314,3.3026,3.3192,3.2837,3.0574,2.6468,2.0653,0.0,0.0,0.0,0.0,0.0,0.0,0.0,0.0,0.0,0.0,0.0,0.0,0.0,0.0,0.0,0.0,0.0,0.0,0.0,0.0,0.0,0.0,0.0,0.0,0.0,0.0,0.0,0.0,0.0,0.0,0.0,0.0,0.0,0.0,0.0,0.0,0.0,0.0,0.0,1.0957,1.1263,0.0,0.0,0.0,0.0,0.0,0.0,0.0,0.0,1.1959,0.0,0.0,0.0,0.0,0.0,0.0,0.0,0.0,0.0,0.0,0.0,0.0,0.0,0.0,0.0,0.0,0.0,0.0,0.0,0.0,0.0,0.0,0.0,0.0,0.0,0.0,0.0,0.0,0.0,0.0,0.0,0.0,0.0,0.0,0.0,0.0,0.0,0.0,0.0,0.0,0.0,0.0,0.0,0.0,0.0,0.0,0.0,0.0,0.0,0.0,0.0,0.0,0.0,0.0,0.0,2.0421,2.3206,2.7082,3.2083,3.2679,3.2692,3.2231,2.9366,2.5447,0.0,0.0,0.0,0.0,0.0,0.0,0.0,0.0,0.0,0.0,0.0,0.0,0.0,0.0,0.0,0.0,0.0,0.0,0.0,0.0,0.0,0.0,0.0,0.0,0.0,0.0,0.0,0.0,0.0,0.0,0.0,0.0,0.0,0.0,0.0,0.0,0.0,0.0,0.0,0.0,1.2374,1.3046,1.4677,0.0,0.0,0.0,0.0,0.0,0.0,1.2968,1.2429,0.0,0.0,0.0,0.0,0.0,0.0,0.0,0.0,0.0,0.0,0.0,0.0,0.0,0.0,0.0,0.0,0.0,0.0,0.0,0.0,0.0,0.0,0.0,0.0,0.0,0.0,0.0,0.0,0.0,0.0,0.0,0.0,0.0,0.0,0.0,0.0,0.0,0.0,0.0,0.0,0.0,0.0,0.0,0.0,0.0,0.0,0.0,0.0,0.0,0.0,0.0,0.0,0.0,0.0,0.0,1.9993,2.3919,2.7807,3.1513,3.216,3.2167,3.1642,2.8058,2.4282,0.0,0.0,0.0,0.0,0.0,0.0,0.0,0.0,0.0,0.0,0.0,0.0,0.0,0.0,0.0,0.0,0.0,0.0,0.0,0.0,0.0,0.0,0.0,0.0,0.0,0.0,0.0,0.0,0.0,0.0,0.0,0.0,0.0,0.0,0.0,0.0,0.0,0.0,0.0,0.0,0.0,1.4861,1.6133,1.5406,0.0,0.0,0.0,0.0,1.421,1.4286,0.0,0.0,0.0,0.0,0.0,0.0,0.0,0.0,0.0,0.0,0.0,0.0,0.0,0.0,0.0,0.0,0.0,0.0,0.0,0.0,0.0,0.0,0.0,0.0,0.0,0.0,0.0,0.0,0.0,0.0,0.0,0.0,0.0,0.0,0.0,0.0,0.0,0.0,0.0,0.0,0.0,0.0,0.0,0.0,0.0,0.0,0.0,0.0,0.0,0.0,0.0,0.0,0.0,0.0,0.0,0.0,1.9926,2.2882,2.6756,3.1379,3.1025,3.1013,3.1623,2.6936,2.3093,0.0,0.0,0.0,0.0,0.0,0.0,0.0,0.0,0.0,0.0,0.0,0.0,0.0,0.0,0.0,0.0,0.0,0.0,0.0,0.0,0.0,0.0,0.0,0.0,0.0,0.0,0.0,0.0,0.0,0.0,0.0,0.0,0.0,0.0,0.0,0.0,0.0,0.0,0.0,0.0,0.0,1.5844,1.6331,1.5866,1.5223,0.0,0.0,1.6505,1.637,1.842,0.0,0.0,0.0,0.0,0.0,0.0,0.0,0.0,0.0,0.0,0.0,0.0,0.0,0.0,0.0,0.0,0.0,0.0,0.0,0.0,0.0,0.0,0.0,0.0,0.0,0.0,0.0,0.0,0.0,0.0,0.0,0.0,0.0,0.0,0.0,0.0,0.0,0.0,0.0,0.0,0.0,0.0,0.0,0.0,0.0,0.0,0.0,0.0,0.0,0.0,0.0,0.0,0.0,0.0,0.0,1.6793,2.0069,2.4194,2.7873,3.0929,3.0679,3.0629,3.0994,2.5619,2.1943,0.0,0.0,0.0,0.0,0.0,0.0,0.0,0.0,0.0,0.0,0.0,0.0,0.0,0.0,0.0,0.0,0.0,0.0,0.0,0.0,0.0,0.0,0.0,0.0,0.0,0.0,0.0,0.0,0.0,0.0,0.0,0.0,0.0,0.0,0.0,0.0,0.0,0.0,0.0,0.0,0.0,0.0,1.7371,1.7438,0.0,0.0,0.0,1.7479,1.7496,0.0,0.0,0.0,0.0,0.0,0.0,0.0,0.0,0.0,0.0,0.0,0.0,0.0,0.0,0.0,0.0,0.0,0.0,0.0,0.0,0.0,0.0,0.0,0.0,0.0,0.0,0.0,0.0,0.0,0.0,0.0,0.0,0.0,0.0,0.0,0.0,0.0,0.0,0.0,0.0,0.0,0.0,0.0,0.0,0.0,0.0,0.0,0.0,0.0,0.0,0.0,0.0,0.0,0.0,0.0,0.0,0.0,2.0173,2.5321,2.8856,3.0509,3.0558,3.0527,3.0429,2.5352,0.0,0.0,0.0,0.0,0.0,0.0,0.0,0.0,0.0,0.0,0.0,0.0,0.0,0.0,0.0,0.0,0.0,0.0,0.0,0.0,0.0,0.0,0.0,0.0,0.0,0.0,0.0,0.5263,0.0,0.0,0.0,0.0,0.0,0.0,0.0,0.0,0.0,0.0,0.0,0.0,0.0,0.0,1.7988,1.8283,1.8993,1.9722,0.0,0.0,1.8687,1.8847,2.0463,2.0218,0.0,0.0,0.0,0.0,0.0,0.0,0.0,0.0,0.0,0.0,0.0,0.0,0.0,0.0,0.0,0.0,0.0,0.0,0.0,0.0,0.0,0.0,0.0,0.0,0.0,0.0,0.0,0.0,0.0,0.0,0.0,0.0,0.0,0.0,0.0,0.0,0.0,0.0,0.0,0.0,0.0,0.0,0.0,0.0,0.0,0.0,0.0,0.0,0.0,0.0,0.0,0.0,0.0,0.0,0.0,2.0268,2.534,2.8849,3.0523,3.0587,3.0599,3.0537,2.7106,2.3698,0.0,0.0,0.0,0.0,0.0,0.0,0.0,0.0,0.0,0.0,0.0,0.0,0.0,0.0,0.0,0.0,0.0,0.0,0.0,0.0,0.0,0.0,0.0,0.0,0.0,0.0,0.0,0.0,0.0,0.0,0.0,0.0,0.0,0.0,0.0,0.0,0.0,0.0,0.0,0.0,0.0,1.9328,1.8751,2.0026,2.1295,0.0,0.0,2.1,2.0967,2.3659,2.3498,1.6844,0.0,0.0,0.0,0.0,0.0,0.0,0.0,0.0,0.0,0.0,0.0,0.0,0.0,0.0,0.0,0.0,0.0,0.0,0.0,0.0,0.0,0.0,0.0,0.0,0.0,0.0,0.0,0.0,0.0,0.0,0.0,0.0,0.0,0.0,0.0,0.0,0.0,0.0,0.0,0.0,0.0,0.0,0.0,0.0,0.0,0.0,0.0,0.0,0.0,0.0,0.0,0.0,0.0,1.7137,2.0333,2.5441,2.8932,3.0701,3.0723,3.0674,3.0652,2.7354,2.3942,0.0,0.0,0.0,0.0,0.0,0.0,0.0,0.0,0.0,0.0,0.0,0.0,0.0,0.0,0.0,0.0,0.0,0.0,0.0,0.0,0.0,0.0,0.0,0.0,0.0,0.0,0.0,0.0,1.0252,1.0818,1.0525,0.0,0.0,0.0,0.0,0.0,0.0,0.0,0.0,0.0,0.0,1.9647,2.1139,2.2017,0.0,0.0,2.3021,2.2395,2.1938,2.2946,2.2023,1.676,1.5469,0.0,0.0,0.0,0.0,0.0,0.0,0.0,0.0,0.0,0.0,0.0,0.0,0.0,0.0,0.0,0.0,0.0,0.0,0.0,0.0,0.0,0.0,0.0,0.0,0.0,0.0,0.0,0.0,0.0,0.0,0.0,0.0,0.0,0.0,0.0,0.0,0.0,0.0,0.0,0.0,0.0,0.0,0.0,0.0,0.0,0.0,0.0,0.0,0.0,0.0,0.0,0.0,1.713,2.0372,2.5498,2.9035,3.0859,3.082,3.0644,3.0312,2.7804,2.4785,0.0,0.0,0.0,0.0,0.0,0.0,0.0,0.0,0.0,0.0,0.0,0.0,0.0,0.0,0.0,0.0,0.0,0.0,0.0,0.0,0.0,0.0,0.0,0.0,0.0,0.0,0.0,0.0,1.1321,1.1544,1.0502,0.0,0.0,0.0,0.0,0.0,0.0,0.0,0.0,0.0,0.0,2.0766,2.2538,2.2954,2.3241,2.3765,2.3004,2.2237,2.1783,2.1848,2.0693,1.6914,0.0,0.0,0.0,0.0,0.0,0.0,0.0,0.0,0.0,0.0,0.0,0.0,0.0,0.0,0.0,0.0,0.0,0.0,0.0,0.0,0.0,0.0,0.0,0.0,0.0,0.0,0.0,0.0,0.0,0.0,1.0198,0.0,0.0,0.0,0.0,0.0,0.0,0.0,0.0,0.0,0.0,0.0,0.0,0.0,0.0,0.0,0.0,0.0,0.0,0.0,0.0,0.0,0.0,1.7769,2.0427,2.5552,2.9085,3.084,3.0898,3.0488,2.9648,2.8711,2.6621,2.3144,0.0,0.0,0.0,0.0,0.0,0.0,0.0,0.0,0.0,0.0,0.0,0.0,0.0,0.0,0.0,0.0,0.0,0.0,0.0,0.0,0.0,0.0,0.0,0.0,0.0,0.0,0.8001,0.9433,1.0467,0.0,0.0,0.0,0.0,0.0,0.0,0.0,0.0,0.0,0.0,2.0617,2.3028,2.2411,2.2344,2.2406,2.2429,2.116,2.0179,2.0394,2.0863,2.0255,0.0,0.0,0.0,0.0,0.0,0.0,0.0,0.0,0.0,0.0,0.0,0.0,0.0,0.0,0.0,0.0,0.0,0.0,0.0,0.0,0.0,0.0,0.0,0.0,0.0,0.0,0.0,1.499,1.4481,0.0,0.0,0.0,0.0,0.0,0.0,0.0,0.0,0.0,0.0,0.0,2.0101,2.1535,0.0,0.0,0.0,0.0,0.0,0.0,0.0,0.0,0.0,0.0,0.0,0.0,1.7855,2.0569,2.5561,2.9078,3.084,3.0918,3.0488,2.9629,2.8769,2.6152,2.1602,0.0,0.0,0.0,0.0,0.0,0.0,0.0,0.0,0.0,0.0,0.0,0.0,0.0,0.0,0.0,0.0,0.0,0.0,0.0,0.0,0.0,0.0,0.0,0.0,0.0,0.8881,0.0,0.0,0.0,0.0,0.0,0.0,0.0,0.0,0.0,0.0,0.0,1.647,1.9055,2.028,2.1349,2.2432,2.2686,2.3067,0.0,0.0,0.0,0.0,0.0,0.0,0.0,0.0,0.0,0.0,0.0,0.0,0.0,0.0,1.7305,1.3856,1.366,1.4017,1.3968,0.0,0.0,0.0,0.0,0.0,0.0,0.0,0.0,0.0,0.0,0.0,0.0,0.0,0.0,1.8783,0.0,1.831,0.0,0.0,0.0,0.0,0.0,0.0,0.0,0.0,2.2533,2.4296,2.4581,2.5984,2.5931,0.0,2.4231,2.0843,0.0,0.0,0.0,0.0,0.0,0.0,0.0,0.0,1.865,2.105,2.6058,2.9405,3.082,3.0918,3.0332,2.918,2.7988,2.5636,2.1997,1.9152,1.6699,0.0,0.0,0.0,0.0,0.0,0.0,0.0,0.0,0.0,0.0,0.0,0.0,0.0,0.0,0.0,0.0,0.0,0.0,0.0,0.0,0.0,0.0,0.0,1.0333,0.0,0.0,0.0,0.0,0.0,0.0,0.0,0.0,0.0,1.4324,1.6245,1.8523,2.0965,2.1353,2.1593,2.2081,0.0,0.0,0.0,0.0,0.0,0.0,0.0,1.8832,1.7986,1.7597,1.7723,1.8692,2.0119,2.0766,1.9604,0.0,0.0,1.6976,1.669,1.7055,1.6996,1.6795,1.6648,1.6745,1.6851,1.6958,0.0,0.0,0.0,0.0,0.0,0.0,0.0,0.0,2.2181,2.1733,0.0,2.1836,0.0,0.0,0.0,0.0,0.0,2.1021,0.0,0.0,2.9928,3.1972,2.9883,3.0625,3.0586,2.9726,2.8887,2.6738,2.3359,2.001,0.0,0.0,0.0,0.0,0.0,0.0,2.0117,2.203,2.6989,3.0,3.0859,3.0918,3.0078,2.834,2.6618,2.5245,2.4284,2.2652,2.0625,1.8066,1.4824,0.0,0.0,0.0,0.0,0.0,0.0,0.0,0.0,0.0,0.0,0.0,0.0,0.0,0.0,0.0,0.0,0.0,0.0,0.0,0.0,1.0862,0.0,0.0,0.0,0.0,0.0,0.0,0.0,0.0,0.0,0.0,1.5481,1.8317,2.1043,2.2319,0.0,0.0,0.0,0.0,2.172,2.0003,1.9652,1.9545,1.9092,2.047,2.1469,2.1043,0.0,0.0,2.2789,2.2255,2.1607,1.9999,2.1559,2.2332,2.1033,2.013,1.9594,1.9441,1.9384,1.9246,1.9161,1.9692,2.0131,2.6126,0.0,0.0,0.0,0.0,2.3086,2.5351,2.9175,2.855,2.781,2.7031,2.7285,0.0,0.0,0.0,0.0,0.0,0.0,2.5344,2.7807,3.0403,3.2172,3.3242,3.4141,3.4082,3.3242,3.2988,3.1738,2.9609,2.7968,2.2927,1.4776,0.0,0.0,0.0,0.0,2.1595,2.4583,2.7905,3.0019,3.0879,3.0918,3.0059,2.834,2.7149,2.5823,2.4361,2.3802,2.2353,1.9863,1.7656,0.0,0.0,0.0,0.0,0.0,0.0,0.0,0.0,0.0,0.0,0.0,0.0,0.0,0.0,0.0,0.0,0.0,0.0,0.0,1.0277,1.2396,1.2851,0.0,0.0,0.0,0.0,0.0,0.0,0.0,0.0,0.0,2.0271,1.9876,2.0045,0.0,0.0,2.1044,1.9987,2.2038,2.3679,2.3724,2.4028,0.0,2.4839,2.3569,2.2622,2.2926,2.4229,2.5022,2.4462,2.5345,2.5912,2.5112,2.5533,2.573,2.5077,2.3908,2.3073,2.3,2.2954,2.2926,2.2931,2.3083,2.3197,3.1476,2.8554,2.6091,2.6072,2.7637,2.7559,2.9668,3.3144,3.2637,3.1914,3.1133,3.1484,2.9238,2.5117,2.4473,0.0,0.0,0.0,2.8644,3.166,3.2519,3.375,3.5195,3.5762,3.5723,3.5215,3.5215,3.4512,3.3164,3.1992,2.7754,2.0684,0.0,0.0,1.8052,2.1026,2.3759,2.6169,2.876,3.0371,3.0879,3.0566,2.9726,2.834,2.7381,2.6202,2.4841,2.4697,2.384,2.2029,2.0028,1.7695,0.0,0.0,0.0,0.0,0.0,0.0,0.0,0.0,0.0,0.0,0.0,0.8464,0.0,0.0,0.0,0.0,1.0339,1.1465,1.2623,1.3853,0.0,0.0,0.0,0.0,0.0,0.0,0.0,1.6096,1.9875,2.2665,2.2911,2.2343,2.2331,2.3545,2.3506,2.3026,2.2195,0.0,2.5886,2.6204,2.6483,2.685,2.7307,2.6233,2.5394,2.5587,2.6166,2.6521,2.6281,2.7198,2.779,2.7595,2.7554,2.7391,2.7,2.6199,2.5558,2.5418,2.5355,2.5355,2.5355,2.5375,2.536,3.5641,3.5297,3.0706,2.9684,3.1151,3.209,3.334,3.4765,3.4785,3.4335,3.3652,3.4433,3.2597,2.8848,2.7226,0.0,3.0137,3.0937,3.2539,3.4824,3.5644,3.5996,3.5976,3.5976,3.5996,3.5976,3.5996,3.5586,3.4746,3.3184,3.1094,2.8594,2.6133,2.3965,2.2344,2.4492,2.6158,2.7118,2.9461,3.0742,3.0879,3.0117,2.9277,2.834,2.7404,2.6463,2.5563,2.537,2.4957,2.4178,2.1901,1.9823,1.8066,0.0,0.0,0.0,0.0,0.0,0.0,0.0,0.0,0.0,0.0,0.0,0.0,0.0,0.0,0.0,1.4068,0.0,1.5932,1.5491,0.0,0.0,0.0,1.6657,1.8055,1.9794,2.0818,2.0641,0.0,0.0,2.4208,2.5346,2.6826,2.8634,2.838,2.7651,2.6521,2.7429,2.8192,2.7815,2.7852,2.7943,2.8279,2.8541,2.867,2.8293,2.8421,2.8123,2.7921,2.7903,2.7947,2.7931,2.7949,2.7805,2.7407,2.7287,2.721,2.674,2.6657,2.6657,2.659,2.6573,2.6556,3.643,3.6276,3.4565,3.4115,3.453,3.4764,3.5095,3.5446,3.5471,3.5329,3.5173,3.5368,3.4947,3.4062,3.3652,3.3848,3.4492,3.4687,3.5098,3.5684,3.5898,3.5974,3.5921,3.5985,3.5976,3.5918,3.5976,3.5898,3.5644,3.4629,3.3144,3.1289,2.998,2.7832,2.4922,2.5391,2.6776,2.8938,2.8925,2.957,3.084,3.0703,2.9863,2.834,2.7972,2.7071,2.5553,2.4793,2.4341,2.4169,2.2366,2.0614,1.9023,1.5312,0.0,0.0,0.0,0.0,0.0,0.0,0.0,0.0,0.0,0.9878,0.7094,0.0,1.1137,0.0,1.5146,1.7757,1.8401,1.8842,0.0,0.0,1.9091,1.9751,2.0779,2.285,2.3768,2.252,2.501,2.7096,2.7677,2.8579,2.9871,3.1738,2.9461,2.738,2.6908,2.9006,3.0498,3.0267,3.1235,3.2137,3.1691,3.0695,2.9703,2.9042,2.8434,2.8091,2.8234,2.8252,2.8263,2.8283,2.827,2.8139,2.7816,2.7765,2.7604,2.7245,2.6928,2.6708,2.6708,2.6708,2.6708,3.7065,3.668,3.6257,3.59,3.5611,3.5669,3.5708,3.5708,3.5708,3.5708,3.5708,3.5708,3.5743,3.5813,3.5814,3.5812,3.5851,3.5871,3.5871,3.5871,3.5871,3.5858,3.5813,3.585,3.5873,3.5898,3.5937,3.5976,3.5976,3.5527,3.4805,3.3887,3.3418,3.1816,2.918,2.7617,2.7402,2.8418,2.8359,2.9141,3.082,3.0918,2.9687,2.7266,2.704,2.58,2.3362,2.2384,2.1904,2.1927,2.0323,1.9014,1.8127,1.4871,1.2383,0.0,0.0,0.0,0.0,0.0,0.0,0.0,0.0,0.0,0.0,0.0,1.3335,1.3995,1.7745,2.0085,2.0022,2.0683,2.1209,2.1472,2.2189,2.3144,2.4356,2.597,2.6667,2.5805,2.786,2.9577,3.0037,3.108,3.2201,3.3303,3.1631,3.0119,2.9927,3.1364,3.2397,3.2301,3.3094,3.368,3.3265,3.1826,3.0523,2.9905,2.9052,2.8453,2.8625,2.8677,2.868,2.8669,2.8669,2.8554,2.8224,2.8121,2.7989,2.7661,2.7393,2.7132,2.6791,2.6708,2.6708,3.7738,3.7046,3.6911,3.6449,3.5834,3.5815,3.5776,3.5661,3.568,3.5661,3.5661,3.568,3.568,3.5674,3.5718,3.5706,3.5725,3.5745,3.5745,3.5725,3.5706,3.5706,3.5679,3.5705,3.5747,3.5868,3.5898,3.5918,3.5976,3.5996,3.5898,3.5664,3.5664,3.4805,3.3027,3.0117,2.8086,2.7031,2.7851,2.9023,3.0508,3.0351,2.8672,2.5566,2.5312,2.3717,2.0491,1.9534,1.9073,1.9004,1.7572,1.6834,1.6931,1.3989,1.2242,0.0,1.0,0.0,0.0,0.0,0.0,0.0,0.0,0.0,0.0,1.5165,1.6572,1.8251,2.1041,2.2465,2.1793,2.23,2.3228,2.4542,2.5404,2.6468,2.7915,2.8627,2.9085,2.9292,3.0479,3.1323,3.1556,3.2871,3.3788,3.377,3.3623,3.325,3.3281,3.3432,3.3678,3.3807,3.3807,3.3688,3.3268,3.2214,3.1225,3.0812,2.9761,2.9035,2.8975,2.8975,2.8975,2.8975,2.8952,2.886,2.8526,2.8476,2.8332,2.8039,2.7929,2.7707,2.7103,2.6923,2.6825,3.895,3.8738,3.8027,3.7661,3.7488,3.6815,3.6142,3.5545,3.5545,3.5545,3.5545,3.5526,3.5565,3.5603,3.5669,3.5765,3.5881,3.5919,3.5919,3.5861,3.5861,3.5784,3.5618,3.5669,3.5689,3.5657,3.5822,3.5898,3.5918,3.5976,3.5273,3.3926,3.3887,3.3047,3.1426,0.0,0.0,0.0,2.7871,2.8457,2.873,2.7402,2.5684,2.3691,2.3594,0.0,1.963,1.9211,1.8801,1.8164,1.7792,0.0,0.0,0.0,0.0,0.0,0.0,0.0,0.0,0.0,0.0,0.0,1.676,1.6194,1.5135,1.7643,2.0251,2.2416,2.3784,2.494,2.5976,2.658,2.7047,2.7344,2.7957,2.8705,2.9604,2.9331,2.9472,3.0815,3.0881,3.1185,3.2236,3.3227,3.3788,3.3807,3.3807,3.3762,3.3707,3.3753,3.3807,3.3807,3.3807,3.3788,3.3697,3.2375,3.1385,3.1117,2.9991,2.909,2.8975,2.8975,2.8975,2.8975,2.8975,2.8975,2.8883,2.8874,2.8742,2.8397,2.8308,2.8165,2.777,2.7682,2.7587,3.9662,0.0,3.8815,3.8392,0.0,3.7526,3.7123,3.668,3.5853,3.5507,3.5507,3.5507,3.5526,3.5565,3.5603,3.5641,3.5699,3.5757,3.5718,3.5699,3.5718,3.5641,3.5565,3.5584,3.5584,3.5617,3.5736,3.5841,3.5898,3.5957,3.5547,3.4687,3.4668,3.4258,3.3437,3.2988,3.1504,2.8945,2.8945,2.9141,2.9531,2.873,2.7226,2.5117,0.0,0.0,0.0,0.0,0.0,0.0,0.0,0.0,0.0,0.0,0.0,1.7344,1.6934,1.7057,1.7849,1.8324,1.9096,2.0282,2.1095,2.08,1.9083,2.1681,2.4253,2.6197,2.6723,2.7338,2.8498,2.881,2.8895,2.8933,2.9548,3.0178,3.0511,3.0605,3.0857,3.1446,3.1727,3.2023,3.2518,3.3301,3.377,3.3807,3.3807,3.3807,3.3807,3.3807,3.3807,3.3807,3.3807,3.3623,3.3191,3.2254,3.1232,3.0775,2.9784,2.909,2.8975,2.8975,2.8975,2.8975,2.8975,2.8975,2.8975,2.8975,2.892,2.8769,2.8688,2.8651,2.8452,2.8146,2.7855,4.0104,3.9508,3.9508,3.9104,3.843,3.8296,3.8142,3.7892,0.0,0.0,0.0,3.5507,3.5507,3.5507,3.5526,3.5526,3.5526,3.5545,3.5526,3.5526,3.5526,3.5507,3.5507,3.5507,3.5526,3.5584,3.5641,3.5737,3.5873,3.5937,3.5976,3.6016,3.6016,3.6016,3.5957,3.5293,3.3807,3.1624,3.0271,2.9941,3.0644,3.0215,2.8887,2.6582,2.5859,2.4355,2.1992,2.0527,1.9668,1.9531,1.8848,1.853,1.8679,1.8684,1.8769,1.8887,1.9036,1.9698,2.1072,2.1311,2.202,2.3477,2.5053,2.539,2.3985,2.5832,2.7691,2.9209,2.9175,2.9356,3.0002,3.0026,2.9973,2.9992,3.0711,3.1241,3.143,3.1977,3.2335,3.2377,3.2948,3.325,3.3081,3.3585,3.3957,3.3957,3.4028,3.3965,3.3947,3.3895,3.3807,3.3807,3.3807,3.3513,3.2732,3.1942,3.114,3.0383,2.9559,2.9017,2.8975,2.8975,2.8975,2.8975,2.8975,2.8975,2.8975,2.8975,2.8975,2.8975,2.8975,2.8975,2.8952,2.8507,2.8111,4.0412,4.0335,4.0335,4.0258,4.0085,3.9411,3.87,3.7911,3.6969,3.6142,3.5507,3.5507,3.5507,3.5507,3.5565,3.5584,3.5584,3.5641,3.5641,3.5584,3.5584,3.5565,3.5507,3.5507,3.5507,3.5526,3.5584,3.5654,3.5735,3.5849,3.5937,3.5996,3.6016,3.6016,3.5996,3.5879,3.5248,3.4033,3.1118,2.9648,2.9746,2.7598,2.5918,2.4824,2.4727,2.375,2.1992,2.1719,2.1172,2.0469,2.0312,2.0566,2.1309,2.1387,2.166,2.2344,2.3037,2.3514,2.3746,2.4418,2.5197,2.6139,2.7659,2.8448,2.8255,2.8527,2.9143,3.0121,3.0148,3.0206,3.0367,3.0767,3.1032,3.1093,3.1646,3.2297,3.2902,3.3091,3.345,3.4088,3.4484,3.4513,3.4353,3.4437,3.4512,3.4554,3.4475,3.4544,3.4435,3.4111,3.386,3.3807,3.3807,3.3485,3.2771,3.1905,3.1146,3.0328,2.9522,2.8975,2.8975,2.8975,2.8975,2.8975,2.8975,2.8975,2.8975,2.8975,2.8975,2.8975,2.8975,2.8975,2.8975,2.8839,2.8688,4.0489,4.0489,4.0489,4.0489,4.0469,4.0104,3.9469,3.8681,3.8296,3.7373,3.6142,3.5685,3.5507,3.5507,3.5526,3.5545,3.5545,3.5565,3.5584,3.5545,3.5565,3.5526,3.5507,3.5507,3.5507,3.5507,3.5565,3.5624,3.5669,3.5761,3.5804,3.584,3.5898,3.5957,3.5957,3.5943,3.5728,3.5257,3.2869,3.1368,3.0843,2.9221,2.8186,2.7832,2.7402,2.6855,2.6094,2.5625,2.5195,2.4805,2.4766,2.4961,2.5332,2.4922,2.4834,2.5187,2.5073,2.4995,2.4928,2.5649,2.6659,2.7909,2.8679,2.9313,2.9794,2.9825,2.996,3.0371,3.0398,3.0398,3.0417,3.1066,3.1525,3.1525,3.2546,3.3414,3.3799,3.4257,3.4592,3.485,3.4964,3.4926,3.4745,3.4714,3.4708,3.4693,3.471,3.4706,3.4713,3.4483,3.4302,3.4284,3.4284,3.3929,3.3168,3.2251,3.1353,3.054,2.9619,2.9072,2.8975,2.8975,2.8975,2.8975,2.8975,2.8975,2.8998,2.8975,2.8975,2.8975,2.8975,2.8975,2.8975,2.8975,2.8929,4.0489,4.0489,4.0489,4.0489,4.0489,4.0489,4.0142,3.9565,3.9354,3.8546,3.7276,3.643,3.5968,3.5776,3.5762,3.5647,3.5507,3.5507,3.5507,3.5507,3.5507,3.5507,3.5507,3.5507,3.5507,3.5507,3.5545,3.5584,3.5592,3.5659,3.5671,3.5723,3.5812,3.5851,3.5868,3.5853,3.5853,3.5732,3.4315,3.3081,3.2205,3.1331,3.0826,3.0635,3.0078,2.9805,2.9785,2.9043,2.8594,2.8574,2.8398,2.8281,2.8262,2.7676,2.7284,2.7232,2.6611,2.615,2.6101,2.6755,2.7736,2.8967,2.9275,2.9679,3.0294,3.0398,3.0398,3.0398,3.0398,3.0475,3.0782,3.1475,3.2045,3.2295,3.3583,3.4436,3.4564,3.5103,3.5412,3.5223,3.519,3.5127,3.4945,3.4888,3.4906,3.4902,3.4887,3.4889,3.4889,3.4889,3.4889,3.4851,3.4774,3.4315,3.3525,3.2765,3.1827,3.0909,2.9998,2.9443,2.9228,2.9053,2.8975,2.8975,2.8975,2.9044,2.9067,2.9112,2.9138,2.9185,2.9163,2.9089,2.9017,2.8998,2.8994,4.0508,4.0489,4.0489,4.0489,4.0489,4.0489,4.0431,4.0277,3.9623,3.9238,3.8931,3.8161,3.7315,3.6661,3.6565,3.618,3.5526,3.5507,3.5507,3.5507,3.5507,3.5507,3.5507,3.5507,3.5507,3.5507,3.5507,3.5545,3.5584,3.5605,3.5631,3.5695,3.5714,3.5719,3.5714,3.572,3.5699,3.5622,3.4691,3.3827,3.3084,3.2235,3.1414,3.0634,3.0595,3.0586,3.0547,2.9883,2.9473,2.9414,2.875,2.832,2.832,2.8223,2.8184,2.8184,2.801,2.7913,2.7825,2.8497,2.8959,2.914,2.9833,3.0283,3.0398,3.0398,3.0398,3.0456,3.0436,3.0782,3.1501,3.2301,3.3064,3.3699,3.468,3.5372,3.5353,3.5449,3.5493,3.546,3.5432,3.5446,3.5373,3.5354,3.5383,3.5326,3.5315,3.532,3.532,3.5335,3.5354,3.5304,3.5053,3.4433,3.3715,3.3355,3.2505,3.128,3.0655,3.0073,2.954,2.9168,2.8998,2.9138,2.9048,2.9138,2.9289,2.9353,2.9415,2.9475,2.9435,2.931,2.9089,2.904,2.9062,4.0402,3.9984,4.0195,4.0356,4.0489,4.0489,4.0489,4.045,4.0142,4.0008,3.995,3.9623,3.8469,3.6757,3.6719,3.6257,3.5512,3.5507,3.5507,3.5507,3.5507,3.5507,3.5507,3.5507,3.5507,3.5507,3.5507,3.5526,3.5545,3.5545,3.5565,3.5584,3.5622,3.5641,3.5641,3.5641,3.5622,3.5584,3.5224,3.4622,3.3744,3.2473,3.1383,3.0664,3.0604,3.0672,3.0684,3.0469,3.0371,3.0351,3.0039,2.9844,2.9824,2.9355,2.9082,2.9023,2.8513,2.8389,2.8805,2.9139,2.9509,2.9948,3.0314,3.0506,3.0525,3.0525,3.0698,3.1191,3.1205,3.1347,3.1757,3.2878,3.3814,3.4237,3.4968,3.5507,3.5507,3.5507,3.5507,3.5507,3.5507,3.5507,3.5507,3.5507,3.5507,3.5507,3.5507,3.5507,3.5507,3.5507,3.5507,3.546,3.5289,3.5092,3.4582,3.3565,3.2759,3.1972,3.0866,2.9899,2.9699,2.9505,2.9427,2.9415,2.9377,2.9416,2.9551,2.957,2.9626,2.9678,2.968,2.9551,2.9446,2.9405,2.9405,4.033,3.9679,3.988,4.0081,4.0248,4.0248,4.03,4.0389,4.0389,4.0422,4.0489,4.0489,3.9219,3.7257,3.7065,3.6507,3.5603,3.5507,3.5507,3.5507,3.5507,3.5507,3.5507,3.5507,3.5507,3.5507,3.5507,3.5507,3.5507,3.5507,3.5507,3.5507,3.5565,3.5584,3.5584,3.5565,3.5584,3.5565,3.5526,3.5084,3.4141,3.2776,3.166,3.0891,3.066,3.0599,3.0664,3.0781,3.0859,3.0879,3.0918,3.0918,3.0898,3.0293,2.9961,2.9902,2.9336,2.9157,2.9744,2.9771,3.0004,3.052,3.0607,3.0607,3.0655,3.0813,3.1241,3.1773,3.2249,3.2506,3.2622,3.3564,3.4289,3.4584,3.5199,3.5507,3.5507,3.5507,3.5507,3.5507,3.5507,3.5507,3.5507,3.5507,3.5507,3.5507,3.5507,3.5507,3.5507,3.5507,3.5507,3.5507,3.5493,3.5474,3.5378,3.4256,3.3161,3.2381,3.1288,3.0208,2.9863,2.9739,2.97,2.9567,2.9657,2.9729,2.9763,2.9799,2.9799,2.978,2.9799,2.9786,2.9664,2.9683,2.9682,4.033,3.9656,3.9603,3.9645,3.9626,3.9668,3.984,4.0101,4.0101,4.025,4.0473,4.0489,3.9546,3.7969,3.795,3.7046,3.5641,3.5507,3.5507,3.5507,3.5507,3.5507,3.5507,3.5507,3.5507,3.5507,3.5507,3.5507,3.5507,3.5507,3.5507,3.5507,3.5507,3.5526,3.5507,3.5507,3.5507,3.5507,3.5507,3.5103,3.4237,3.3314,3.2422,3.1665,3.0902,3.0532,3.0605,3.0664,3.0781,3.0879,3.0918,3.0918,3.0898,3.0859,3.0781,3.0781,3.0762,3.0684,3.0586,3.0586,3.0604,3.0623,3.0633,3.0613,3.0685,3.1321,3.1821,3.1946,3.3338,3.4168,3.4282,3.4441,3.4815,3.5374,3.5526,3.5565,3.5526,3.5526,3.5507,3.5507,3.5526,3.5507,3.5507,3.5507,3.5507,3.5507,3.5507,3.5507,3.5507,3.5507,3.5507,3.5507,3.5507,3.5507,3.5416,3.4364,3.3563,3.2823,3.176,3.0814,3.029,2.9855,2.9779,2.9725,2.9788,2.9861,2.9954,3.0003,3.0003,2.9984,3.0003,2.9962,2.9905,2.9757,2.9794,4.0319,3.9282,3.9289,3.9389,3.9599,3.9599,3.9668,3.9797,4.0002,4.0158,4.025,4.0422,3.9873,3.8834,3.8834,3.7623,3.5622,3.5507,3.5507,3.5507,3.5507,3.5507,3.5507,3.5507,3.5507,3.5507,3.5507,3.5507,3.5507,3.5507,3.5507,3.5507,3.5507,3.5507,3.5507,3.5507,3.5507,3.5507,3.5507,3.5334,3.4911,3.3641,3.2756,3.2422,3.1198,3.0509,3.0545,3.0657,3.0723,3.0781,3.084,3.0918,3.0918,3.0918,3.0918,3.0918,3.0918,3.0879,3.084,3.082,3.0819,3.079,3.0786,3.0781,3.0938,3.1578,3.2298,3.2929,3.3881,3.4774,3.5312,3.5352,3.5387,3.5592,3.5654,3.5655,3.5641,3.5622,3.5622,3.5641,3.5622,3.5603,3.5545,3.5545,3.5545,3.5507,3.5507,3.5507,3.5507,3.5507,3.5507,3.5507,3.5507,3.5507,3.5488,3.4218,3.3128,3.2615,3.1834,3.0912,3.0241,3.0164,3.0106,3.0079,3.008,3.008,3.0196,3.0196,3.0209,3.0209,3.0209,3.0182,3.0174,3.0068,3.0068,4.0019,3.9054,3.899,3.9109,3.9301,3.9301,3.9358,3.9457,3.9668,3.9882,4.0101,4.0285,3.9964,3.9373,3.9296,3.8065,3.6045,3.5892,3.5696,3.5403,3.5446,3.5446,3.5403,3.5479,3.5507,3.5507,3.5507,3.5507,3.5507,3.5507,3.5507,3.5507,3.5507,3.5507,3.5507,3.5507,3.5507,3.5507,3.5507,3.5507,3.5301,3.4083,3.316,3.2756,3.1583,3.0756,3.0506,3.0575,3.0651,3.0689,3.076,3.0859,3.0898,3.0918,3.0918,3.0918,3.0918,3.0918,3.0918,3.0918,3.0898,3.0898,3.0918,3.0918,3.0976,3.1914,3.2793,3.3482,3.4492,3.541,3.5801,3.5874,3.5797,3.5763,3.5754,3.5759,3.5709,3.5709,3.5701,3.5709,3.5689,3.5655,3.5603,3.5603,3.5603,3.5565,3.5584,3.5565,3.5565,3.5565,3.5565,3.5565,3.5565,3.5565,3.532,3.4243,3.3269,3.2699,3.1597,3.0763,3.0398,3.0398,3.0398,3.0398,3.0398,3.0398,3.0398,3.0398,3.0398,3.0398,3.0367,3.0311,3.033,3.0355,3.0318,3.9441,3.8756,3.8707,3.875,3.8762,3.8792,3.8884,3.909,3.9152,3.9486,3.9943,4.0062,3.9793,3.9407,3.9333,3.8362,3.6968,3.6665,3.6067,3.5212,3.5354,3.5304,3.5122,3.5304,3.5398,3.5398,3.546,3.546,3.5432,3.5398,3.5412,3.5455,3.5441,3.5441,3.5488,3.5488,3.5507,3.5507,3.5507,3.5507,3.5391,3.4564,3.3699,3.2929,3.2045,3.1256,3.0525,3.0521,3.0549,3.06,3.066,3.0742,3.0859,3.0879,3.0879,3.0898,3.0898,3.0918,3.0898,3.0918,3.0918,3.0918,3.0918,3.0918,3.1113,3.2344,3.332,3.3594,3.4844,3.5976,3.5976,3.5976,3.5957,3.5917,3.588,3.5846,3.5762,3.5723,3.5703,3.5702,3.5737,3.5701,3.5713,3.5707,3.5697,3.5666,3.5675,3.5663,3.5675,3.5675,3.5701,3.5701,3.5675,3.5635,3.5079,3.4384,3.3641,3.282,3.1468,3.0448,3.0417,3.0417,3.0417,3.0417,3.0398,3.0398,3.0398,3.0398,3.0398,3.0398,3.0398,3.0398,3.0398,3.0398,3.0398,3.9423,3.8744,3.8707,3.8707,3.8707,3.8707,3.878,3.8826,3.9008,3.9231,3.9432,3.9664,3.9667,3.954,3.9483,3.8876,3.7811,3.7223,3.6311,3.528,3.5018,3.4926,3.4851,3.4908,3.4944,3.4944,3.4925,3.4944,3.4963,3.4944,3.4952,3.4981,3.5151,3.5224,3.5235,3.5397,3.5507,3.5507,3.5507,3.5507,3.543,3.4661,3.3782,3.2935,3.2135,3.1302,3.0525,3.0487,3.0513,3.055,3.0595,3.067,3.0742,3.0762,3.0762,3.0762,3.0852,3.0859,3.0801,3.0859,3.0898,3.0918,3.0898,3.0918,3.1074,3.2441,3.334,3.3555,3.4941,3.6016,3.6016,3.6016,3.5996,3.5976,3.5951,3.5957,3.5918,3.5898,3.5886,3.5864,3.5884,3.584,3.5764,3.5757,3.5781,3.5719,3.5709,3.5726,3.5706,3.5726,3.5706,3.5706,3.5706,3.5726,3.5329,3.4817,3.4138,3.3255,3.1934,3.0825,3.0698,3.0467,3.0448,3.0436,3.0417,3.0398,3.0398,3.0398,3.0398,3.0398,3.0398,3.0398,3.0398,3.0398,3.0417,3.9882,3.9148,3.8836,3.8707,3.8707,3.8707,3.8707,3.8719,3.8884,3.8999,3.9152,3.9333,3.9486,3.9576,3.9599,3.9109,3.8233,3.7374,3.6327,3.5322,3.4849,3.4653,3.4572,3.4653,3.4694,3.4694,3.4694,3.4694,3.4694,3.4694,3.4699,3.4745,3.4883,3.4959,3.4961,3.5101,3.5247,3.5335,3.5358,3.5407,3.5383,3.4968,3.4249,3.3454,3.2904,3.2032,3.1037,3.0941,3.0775,3.0564,3.0525,3.0588,3.0667,3.0664,3.0661,3.0683,3.0746,3.0742,3.0701,3.0742,3.0804,3.0786,3.0798,3.082,3.1133,3.2383,3.334,3.3613,3.498,3.6016,3.6016,3.6016,3.6016,3.6016,3.5996,3.6016,3.6016,3.6016,3.5996,3.5957,3.5976,3.5937,3.588,3.5859,3.5898,3.582,3.5804,3.5806,3.5806,3.5825,3.582,3.582,3.5845,3.5825,3.5743,3.5246,3.4639,3.3669,3.257,3.1722,3.1241,3.0756,3.0544,3.0525,3.0506,3.0467,3.0448,3.0398,3.0398,3.0398,3.0417,3.0417,3.0448,3.0487,3.0525,4.0616,3.9827,3.9038,3.8707,3.8707,3.8707,3.8707,3.8707,3.8719,3.8844,3.9036,3.909,3.9231,3.9481,3.9432,3.8995,3.8188,3.7063,3.614,3.5361,3.4755,3.4274,3.4242,3.442,3.4526,3.4569,3.4591,3.4591,3.4529,3.4548,3.4653,3.4595,3.4615,3.4672,3.4675,3.4699,3.4884,3.5122,3.5129,3.525,3.5479,3.5468,3.5012,3.4197,3.4019,3.3295,3.2018,3.1634,3.1229,3.0564,3.0467,3.0529,3.0568,3.0594,3.0599,3.0587,3.0614,3.0598,3.0593,3.0633,3.0633,3.0639,3.068,3.0703,3.0918,3.2285,3.3359,3.3457,3.4941,3.5976,3.5976,3.5976,3.5976,3.5976,3.5996,3.6016,3.6016,3.6016,3.5996,3.6016,3.6016,3.5996,3.5976,3.5976,3.5996,3.5976,3.5957,3.5957,3.5957,3.5957,3.5996,3.5976,3.5937,3.5918,3.5859,3.5659,3.5104,3.4676,3.3594,3.2754,3.1914,3.1328,3.0664,3.0635,3.0634,3.0563,3.0487,3.0467,3.0448,3.0448,3.0467,3.0487,3.0513,3.0537,3.0568,4.0634,3.9827,3.9038,3.8707,3.8707,3.8707,3.8707,3.8707,3.8676,3.867,3.8785,3.8803,3.8796,3.8931,3.8894,3.8582,3.7802,3.6565,3.5579,3.4839,3.361,3.3514,3.3787,3.4005,3.4055,3.408,3.4087,3.4037,3.4012,3.4105,3.408,3.4055,3.426,3.4354,3.434,3.4547,3.483,3.5053,3.5111,3.5234,3.5432,3.5493,3.507,3.4312,3.4236,3.3678,3.2628,3.2013,3.1295,3.0487,3.0398,3.0467,3.0498,3.0511,3.053,3.0543,3.0564,3.0568,3.0548,3.0568,3.0607,3.0597,3.0623,3.063,3.0691,3.2231,3.311,3.3525,3.4761,3.5781,3.5801,3.5801,3.5797,3.5797,3.5896,3.5996,3.5996,3.6016,3.6016,3.6016,3.6016,3.6016,3.6016,3.6016,3.6016,3.6016,3.6016,3.6016,3.6016,3.6016,3.6016,3.6016,3.5996,3.5996,3.5957,3.582,3.5657,3.5561,3.4785,3.3867,3.2988,3.2148,3.1387,3.0801,3.0879,3.0839,3.0675,3.0556,3.0556,3.0505,3.0544,3.0568,3.0565,3.0605,3.0613,4.0342,3.9624,3.852,3.8183,3.8318,3.8168,3.8318,3.8546,3.8234,3.8201,3.8285,3.8117,3.805,3.805,3.8068,3.7895,3.747,3.6306,3.5435,3.464,3.3275,3.2988,3.3447,3.3662,3.3807,3.3807,3.3807,3.3834,3.3834,3.3807,3.3807,3.3842,3.3961,3.4028,3.4015,3.4197,3.4465,3.4694,3.4851,3.5073,3.5304,3.5446,3.5301,3.4826,3.473,3.4332,3.3492,3.2654,3.1814,3.1083,3.0629,3.0398,3.0448,3.0448,3.0467,3.0467,3.0487,3.0506,3.0467,3.0506,3.0525,3.0525,3.0544,3.0565,3.0877,3.2143,3.3215,3.3361,3.4764,3.554,3.5714,3.5712,3.5708,3.5718,3.5799,3.5885,3.5871,3.5937,3.5957,3.5976,3.5996,3.6016,3.6016,3.6016,3.6016,3.6016,3.6016,3.6016,3.6016,3.6016,3.6016,3.6016,3.6016,3.6016,3.6016,3.5918,3.5859,3.5801,3.5605,3.4766,3.3887,3.2969,3.2266,3.1601,3.1348,3.1094,3.0925,3.074,3.0586,3.0586,3.0625,3.0642,3.0649,3.0676,3.0681,3.996,3.9368,3.7828,3.7433,3.772,3.7396,3.7721,3.8234,3.7632,3.7524,3.7685,3.7396,3.7377,3.719,3.7377,3.7228,3.7061,3.6141,3.524,3.4198,3.3072,3.2598,3.2965,3.3447,3.3578,3.3606,3.3707,3.3734,3.3707,3.3753,3.3807,3.3834,3.3815,3.3834,3.3844,3.386,3.3935,3.4265,3.4529,3.4793,3.5034,3.5223,3.522,3.5205,3.5243,3.4993,3.4288,3.3513,3.2718,3.2025,3.1129,3.0871,3.0775,3.0717,3.0756,3.0756,3.0794,3.0679,3.0533,3.0564,3.0417,3.0417,3.0564,3.0621,3.106,3.2374,3.3415,3.3427,3.4782,3.5515,3.5655,3.5674,3.5663,3.565,3.5676,3.567,3.571,3.5795,3.5875,3.5879,3.5957,3.5996,3.5996,3.5996,3.6016,3.6016,3.6016,3.6016,3.6016,3.6016,3.6016,3.6016,3.6016,3.6016,3.6016,3.5996,3.5976,3.5957,3.5937,3.5391,3.457,3.3769,3.3164,3.2656,3.2305,3.1758,3.1221,3.1019,3.0918,3.067,3.0743,3.0746,3.0722,3.0786,3.081,3.9611,3.935,3.7866,3.7266,3.7323,3.7248,3.734,3.7524,3.7303,3.719,3.7285,3.7228,3.7152,3.7152,3.7058,3.6981,3.6499,3.5727,3.4545,3.2865,3.231,3.1986,3.2298,3.2885,3.3105,3.3075,3.3532,3.3606,3.3494,3.368,3.3807,3.3807,3.3807,3.3807,3.3807,3.3807,3.391,3.4171,3.4269,3.4486,3.4715,3.487,3.4916,3.4947,3.51,3.5229,3.507,3.4372,3.3833,3.3487,3.2872,3.2346,3.2196,3.2228,3.2184,3.2064,3.1672,3.1422,3.1333,3.0879,3.0436,3.0609,3.1121,3.1448,3.1564,3.2949,3.3853,3.4147,3.4916,3.5507,3.5565,3.5545,3.5565,3.5565,3.5545,3.5553,3.5572,3.5673,3.5735,3.578,3.5859,3.5918,3.5918,3.5976,3.5996,3.6016,3.6016,3.6016,3.6016,3.6016,3.6016,3.6016,3.6016,3.6016,3.6016,3.6016,3.6016,3.6016,3.6016,3.5976,3.5156,3.4648,3.4062,3.3594,3.3184,3.2598,3.1973,3.1797,3.1797,3.1348,3.0918,3.1016,3.1074,3.1035,3.1211,3.8971,3.8573,3.7082,3.6603,3.6764,3.6563,3.6746,3.702,3.6643,3.6603,3.6724,3.6586,3.644,3.644,3.644,3.6249,3.5925,3.5248,3.4199,3.2971,3.2337,3.185,3.1657,3.2196,3.2565,3.2827,3.3273,3.3437,3.355,3.3662,3.3807,3.3807,3.3807,3.3807,3.3807,3.3807,3.3868,3.3993,3.4147,3.4311,3.4445,3.4614,3.4695,3.4697,3.4861,3.5043,3.5165,3.4887,3.4731,3.4653,3.4334,3.366,3.3012,3.2909,3.2904,3.2808,3.2577,3.2263,3.209,3.1872,3.1641,3.1532,3.2025,3.2167,3.2494,3.3506,3.4103,3.4378,3.4916,3.5507,3.5507,3.5507,3.5507,3.5507,3.5507,3.5507,3.5526,3.5603,3.5656,3.5669,3.5762,3.584,3.5898,3.5918,3.5976,3.5976,3.5996,3.5996,3.6016,3.6016,3.6016,3.6016,3.6016,3.6016,3.6016,3.6016,3.6016,3.6016,3.6016,3.6016,3.5684,3.5332,3.5019,3.4512,3.3984,3.3535,3.3008,3.2851,3.2519,3.1973,3.1621,3.1543,3.1445,3.1348,3.1777,3.8185,3.7458,3.6151,3.5854,3.6182,3.581,3.6139,3.6706,3.6011,3.5924,3.6139,3.5783,3.5783,3.5667,3.5711,3.5622,3.5419,3.4888,3.4075,3.3584,3.2601,3.2055,3.1691,3.1797,3.2127,3.2934,3.3184,3.3361,3.3578,3.3762,3.3807,3.3807,3.3807,3.3807,3.3807,3.3807,3.3834,3.3868,3.4012,3.4117,3.4189,3.4375,3.4495,3.4589,3.4599,3.4769,3.4984,3.5034,3.5133,3.5388,3.5417,3.4634,3.3667,3.3276,3.3282,3.3344,3.3267,3.3094,3.2947,3.2807,3.2653,3.2807,3.2993,3.3012,3.3229,3.3851,3.4416,3.4686,3.5089,3.5507,3.5507,3.5507,3.5507,3.5507,3.5507,3.5507,3.5507,3.5545,3.5578,3.5611,3.5666,3.5745,3.5792,3.584,3.5898,3.5957,3.5957,3.5976,3.5976,3.5996,3.5996,3.6016,3.6016,3.6016,3.6016,3.5996,3.5996,3.5996,3.5996,3.5996,3.5996,3.5781,3.5449,3.5215,3.4746,3.4316,3.3965,3.3691,3.3242,3.2637,3.2383,3.2363,3.209,3.1719,3.2305,3.7275,3.6058,3.5732,3.565,3.5694,3.5622,3.5739,3.5827,3.5694,3.5667,3.5739,3.5667,3.5639,3.5639,3.5639,3.5639,3.5453,3.4928,3.4472,3.4032,3.3068,3.229,3.2032,3.1669,3.1726,3.2127,3.2695,3.3136,3.339,3.3606,3.3734,3.3807,3.3807,3.3807,3.3807,3.3807,3.3807,3.3807,3.3895,3.3902,3.3954,3.3998,3.4123,3.4282,3.4303,3.4455,3.4739,3.4965,3.5016,3.487,3.5034,3.4837,3.4476,3.4635,3.4784,3.4669,3.4218,3.3834,3.3643,3.3073,3.258,3.2515,3.3132,3.3627,3.3888,3.4549,3.4942,3.5172,3.5268,3.5507,3.5507,3.5507,3.5507,3.5507,3.5507,3.5507,3.5507,3.5507,3.5526,3.5545,3.5578,3.5643,3.5697,3.5755,3.578,3.5825,3.5859,3.5879,3.5898,3.5937,3.5957,3.5996,3.6016,3.6016,3.6016,3.5996,3.5976,3.5957,3.5957,3.5957,3.5957,3.5996,3.582,3.5508,3.541,3.5195,3.4863,3.4531,3.4023,3.3418,3.3281,3.3203,3.2969,3.2754,3.2969,3.6904,3.6124,3.5424,3.5316,3.5577,3.5639,3.5639,3.5639,3.5639,3.5639,3.5639,3.5639,3.5639,3.5639,3.5639,3.5639,3.5504,3.5301,3.4861,3.4353,3.3744,3.2916,3.2425,3.1901,3.179,3.1946,3.2298,3.2759,3.3166,3.3361,3.356,3.378,3.3807,3.3807,3.3807,3.3807,3.3807,3.3807,3.3807,3.3807,3.3807,3.3807,3.388,3.3962,3.4026,3.4171,3.4414,3.4542,3.4659,3.4718,3.4832,3.4793,3.4793,3.487,3.5094,3.4994,3.467,3.4407,3.4281,3.3827,3.3639,3.3563,3.398,3.4225,3.4376,3.4751,3.5155,3.5289,3.546,3.5507,3.5507,3.5474,3.5507,3.5507,3.5507,3.5507,3.5507,3.5507,3.5507,3.5507,3.5526,3.5578,3.5624,3.5654,3.5678,3.5699,3.5745,3.5788,3.5798,3.5841,3.588,3.5918,3.5937,3.5918,3.5918,3.5898,3.591,3.5882,3.5882,3.5879,3.5879,3.5879,3.5859,3.5703,3.5703,3.5686,3.5566,3.5176,3.4687,3.4248,3.4101,3.3965,3.3887,3.3887,3.4004,3.6394,3.5994,3.5021,3.4878,3.5362,3.5577,3.5639,3.5639,3.5639,3.5639,3.5639,3.5639,3.5639,3.5639,3.5639,3.5639,3.5639,3.5588,3.525,3.4827,3.4455,3.3744,3.3017,3.2388,3.2134,3.196,3.1748,3.2179,3.2858,3.3045,3.3241,3.3396,3.3588,3.368,3.3625,3.3733,3.377,3.3807,3.3807,3.3807,3.3807,3.3807,3.3807,3.3807,3.3807,3.3921,3.4111,3.4242,3.4323,3.4457,3.4534,3.4566,3.453,3.4507,3.4521,3.4542,3.4628,3.467,3.4574,3.4517,3.4247,3.4139,3.4457,3.4574,3.4617,3.4641,3.4832,3.4997,3.5151,3.5331,3.534,3.5422,3.5435,3.5507,3.5507,3.5507,3.5507,3.5507,3.5507,3.5507,3.5507,3.5507,3.5559,3.5572,3.5584,3.5616,3.5662,3.5684,3.5704,3.5741,3.5779,3.5834,3.584,3.5801,3.5781,3.5762,3.5767,3.5775,3.5774,3.5772,3.5755,3.5742,3.5727,3.572,3.5766,3.5749,3.5773,3.5737,3.5297,3.4943,3.4808,3.4746,3.4707,3.4668,3.4687,3.5054,3.3928,3.4412,3.4624,3.4864,3.5333,3.5577,3.5639,3.5639,3.5639,3.5639,3.5639,3.5639,3.5639,3.5639,3.5639,3.5639,3.5605,3.552,3.5284,3.4844,3.4438,3.3964,3.2797,3.2381,3.2066,3.1567,3.1821,3.235,3.255,3.2629,3.2791,3.3125,3.3281,3.3277,3.357,3.3807,3.3807,3.3807,3.3807,3.3807,3.3807,3.3807,3.3807,3.3807,3.3815,3.391,3.4043,3.4128,3.3975,3.4152,3.4111,3.3968,3.3915,3.3905,3.406,3.432,3.4566,3.4307,3.4265,3.4213,3.4093,3.4165,3.4242,3.4338,3.4519,3.4661,3.4696,3.4833,3.4975,3.5143,3.5177,3.5273,3.5397,3.5507,3.5507,3.5507,3.5507,3.5507,3.5507,3.5507,3.5507,3.5507,3.5507,3.5507,3.5526,3.5545,3.5586,3.5624,3.5666,3.5673,3.5707,3.5755,3.5715,3.5687,3.5667,3.5658,3.5669,3.5667,3.567,3.5667,3.565,3.5662,3.5656,3.5725,3.5735,3.569,3.5678,3.5639,3.5523,3.5243,3.5347,3.5566,3.5484,3.5256,3.4886,3.4558,3.4194,3.4468,3.5103,3.5094,3.5253,3.5577,3.5639,3.5639,3.5639,3.5639,3.5639,3.5622,3.5639,3.5639,3.5639,3.5639,3.5639,3.5639,3.5233,3.4895,3.4303,3.344,3.278,3.2239,3.167,3.1346,3.1787,3.2092,3.2221,3.2496,3.2675,3.2805,3.2841,3.3259,3.3419,3.3522,3.3634,3.3807,3.3807,3.3807,3.3807,3.3807,3.3807,3.3807,3.3842,3.3876,3.3928,3.3815,3.3935,3.391,3.3842,3.3807,3.3807,3.3834,3.4028,3.4111,3.4005,3.3986,3.3902,3.3868,3.3928,3.3961,3.4025,3.424,3.4421,3.4427,3.4601,3.4794,3.4994,3.5092,3.5277,3.5393,3.5398,3.5446,3.5446,3.5474,3.5507,3.5507,3.5474,3.5455,3.5455,3.5507,3.5507,3.5507,3.5526,3.554,3.5572,3.5605,3.5598,3.5589,3.563,3.5637,3.5592,3.5554,3.556,3.5565,3.5565,3.5573,3.5586,3.5572,3.5584,3.5565,3.5586,3.56,3.5601,3.5621,3.5612,3.5624,3.5604,3.5631,3.5655,3.5618,3.5456,3.5012,3.534,3.421,3.4297,3.5007,3.4725,3.4757,3.5052,3.5068,3.5068,3.5161,3.5253,3.5407,3.5577,3.5639,3.5639,3.5639,3.5639,3.5639,3.5639,3.5571,3.5284,3.4759,3.4032,3.3406,3.2838,3.2307,3.1896,3.1686,3.1798,3.2102,3.2214,3.2263,3.23,3.2438,3.2766,3.3014,3.3045,3.3419,3.3578,3.3652,3.378,3.3807,3.3807,3.3807,3.3807,3.3807,3.3834,3.3807,3.3807,3.3815,3.3815,3.3807,3.3807,3.3807,3.3807,3.3905,3.3879,3.386,3.386,3.3807,3.3807,3.3807,3.3842,3.385,3.3994,3.4102,3.4117,3.4269,3.4545,3.4793,3.4832,3.4961,3.5083,3.5223,3.5289,3.5308,3.5277,3.5242,3.5171,3.5184,3.5316,3.535,3.5455,3.5507,3.5507,3.5507,3.5507,3.5526,3.5565,3.5553,3.5547,3.556,3.5565,3.5545,3.5507,3.5488,3.5446,3.5432,3.5479,3.5498,3.5512,3.5526,3.5507,3.5488,3.5515,3.554,3.5572,3.5584,3.5553,3.556,3.5592,3.5584,3.5584,3.5597,3.5429,3.5439,3.4756,3.4151,3.3786,3.4308,3.4278,3.3903,3.3853,3.3887,3.4087,3.4431,3.5098,3.547,3.5639,3.5639,3.5639,3.5639,3.5639,3.5639,3.5605,3.5537,3.5148,3.4709,3.4269,3.4049,3.3271,3.2628,3.2364,3.2116,3.1856,3.1414,3.1802,3.1863,3.2012,3.2301,3.2583,3.2713,3.3045,3.3214,3.3343,3.3496,3.3652,3.3715,3.3752,3.3788,3.3807,3.3762,3.378,3.378,3.3734,3.3807,3.378,3.3807,3.3807,3.3807,3.3807,3.3807,3.3807,3.3807,3.3807,3.3807,3.3807,3.3807,3.3815,3.3807,3.3842,3.3895,3.4009,3.4092,3.4242,3.4304,3.4578,3.4813,3.4981,3.4981,3.4982,3.4946,3.4908,3.4813,3.4887,3.5059,3.5209,3.5315,3.5479,3.5479,3.5507,3.5507,3.5507,3.5526,3.5526,3.5501,3.5501,3.5507,3.5474,3.5446,3.5362,3.5283,3.525,3.5327,3.5403,3.5432,3.5398,3.5449,3.5416,3.5468,3.5507,3.5526,3.5526,3.5507,3.5507,3.5545,3.5545,3.5545,3.5565,3.5489,3.5444,3.5208,3.4759,3.4094,3.4013,3.3814,3.3594,3.3582,3.3871,3.4186,3.4528,3.4941,3.547,3.5639,3.5639,3.5639,3.5639,3.5639,3.5639,3.5639,3.5639,3.5368,3.4979,3.4455,3.437,3.3795,3.3339,3.3,3.2662,3.2235,3.1913,3.1671,3.1436,3.1572,3.1856,3.2162,3.2451,3.2648,3.2745,3.2813,3.2871,3.2985,3.2985,3.335,3.3405,3.3414,3.3431,3.3588,3.3652,3.3522,3.3578,3.3689,3.3734,3.3762,3.378,3.378,3.3807,3.3807,3.3807,3.3807,3.3807,3.3807,3.3807,3.3807,3.3807,3.3807,3.3807,3.3807,3.3939,3.412,3.4221,3.4364,3.4614,3.4714,3.4675,3.4632,3.4602,3.4602,3.4569,3.4715,3.4887,3.5032,3.519,3.5339,3.5465,3.5479,3.5507,3.5507,3.5474,3.546,3.5446,3.5412,3.5316,3.5283,3.5254,3.5202,3.5152,3.5059,3.5092,3.5174,3.5226,3.5223,3.5292,3.535,3.536,3.5398,3.546,3.5474,3.5474,3.5474,3.5507,3.5507,3.5507,3.5526,3.5489,3.5489,3.5489,3.5012,3.4191,3.3671,3.3305,3.3011,3.2933,3.3531,3.4284,3.4333,3.48,3.5379,3.5639,3.5639,3.5639,3.5639,3.5639,3.5639,3.5639,3.5639,3.5436,3.5199,3.4928,3.4692,3.4404,3.4066,3.3711,3.3186,3.2734,3.2264,3.1817,3.1568,3.1252,3.147,3.1806,3.2056,3.223,3.2264,3.2278,3.2491,3.2694,3.2744,3.2985,3.3105,3.313,3.3124,3.3087,3.3166,3.3166,3.3184,3.3354,3.3533,3.3634,3.3671,3.3753,3.3807,3.3807,3.3807,3.3807,3.3807,3.3807,3.3807,3.3807,3.3807,3.3807,3.3807,3.3807,3.3862,3.4099,3.406,3.4093,3.426,3.433,3.4311,3.4284,3.425,3.4298,3.4325,3.4467,3.4597,3.4774,3.4925,3.5258,3.5403,3.5479,3.5507,3.5507,3.546,3.5432,3.5383,3.532,3.5185,3.5055,3.4992,3.4946,3.4924,3.4864,3.4809,3.487,3.4926,3.4978,3.4986,3.5089,3.5216,3.5223,3.5138,3.5289,3.546,3.546,3.546,3.5507,3.5507,3.5507,3.5489,3.5489,3.5489,3.4726,3.3667,3.3546,3.2826,3.1872,3.1724,3.2461,3.3531,3.3633,3.4301,3.5178,3.527,3.527,3.527,3.5362,3.5362,3.5316,3.5224,3.5424,3.5498,3.5335,3.52,3.5509,3.5284,3.4861,3.4489,3.415,3.3532,3.274,3.2286,3.1805,3.1241,3.119,3.123,3.1291,3.166,3.1789,3.1898,3.2141,3.2449,3.261,3.2616,3.2666,3.2786,3.2654,3.2616,3.2695,3.2598,3.2616,3.2745,3.3125,3.3276,3.3284,3.3634,3.378,3.3807,3.3807,3.3807,3.3807,3.3807,3.3807,3.3807,3.3807,3.3807,3.3807,3.3807,3.3807,3.3852,3.3834,3.3895,3.3928,3.4012,3.4037,3.4005,3.4005,3.4055,3.4105,3.4165,3.4246,3.4427,3.4676,3.5086,3.532,3.5446,3.5493,3.5474,3.5398,3.532,3.5239,3.5155,3.4921,3.4773,3.4718,3.4703,3.4684,3.46,3.4498,3.4508,3.4614,3.466,3.4699,3.483,3.4981,3.487,3.4753,3.4982,3.5209,3.5388,3.5417,3.546,3.5412,3.532,3.5489,3.5489,3.5489,3.4726,3.3589,3.3499,3.2751,3.1674,3.1582,3.2048,3.2788,3.2949,3.3391,3.4037,3.435,3.435,3.435,3.4301,3.4301,3.4301,3.4399,3.4592,3.48,3.5005,3.5144,3.5515,3.5543,3.5537,3.5233,3.4861,3.4401,3.3693,3.2683,3.1902,3.1382,3.119,3.119,3.123,3.1351,3.1411,3.1411,3.16,3.1763,3.1958,3.2015,3.2157,3.2364,3.216,3.2162,3.2298,3.2213,3.2179,3.2435,3.2852,3.3141,3.3262,3.355,3.3807,3.3807,3.3807,3.3807,3.3807,3.3807,3.3807,3.3807,3.3807,3.3807,3.3807,3.3807,3.3807,3.3807,3.3807,3.386,3.386,3.3895,3.3868,3.3868,3.386,3.3887,3.3895,3.3928,3.4072,3.426,3.4465,3.483,3.511,3.5231,3.5369,3.5398,3.5254,3.5174,3.5088,3.4962,3.4679,3.4499,3.4427,3.4307,3.424,3.416,3.4046,3.4111,3.4307,3.4344,3.4375,3.4548,3.4711,3.4607,3.4561,3.471,3.4927,3.5054,3.519,3.5223,3.5105,3.4926,3.5489,3.5489,3.5489,3.4876,3.3888,3.3604,3.2751,3.1674,3.1524,3.1894,3.2492,3.2641,3.2986,3.3495,3.3582,3.3582,3.3582,3.3633,3.3633,3.3582,3.3633,3.3937,3.4186,3.4479,3.483,3.5253,3.5515,3.5605,3.5537,3.5131,3.4715,3.409,3.3032,3.219,3.1676,3.1444,3.119,3.119,3.1252,3.1213,3.1213,3.1269,3.132,3.1475,3.1579,3.1681,3.1709,3.173,3.1733,3.1878,3.1878,3.1733,3.2144,3.257,3.2898,3.3063,3.3494,3.3734,3.3807,3.3807,3.3807,3.3807,3.3807,3.3807,3.3807,3.3807,3.3807,3.3807,3.3807,3.3807,3.3807,3.3807,3.3807,3.3807,3.3807,3.3807,3.3807,3.3807,3.3807,3.3807,3.3825,3.3981,3.4118,3.4321,3.4558,3.4783,3.5003,3.5127,3.5219,3.5083,3.4906,3.4794,3.4676,3.4411,3.4213,3.4099,3.3986,3.3834,3.3807,3.3807,3.3842,3.4037,3.4039,3.406,3.4204,3.4316,3.4372,3.4414,3.4495,3.4545,3.4632,3.4774,3.4926,3.4813,3.4632,3.5489,3.5489,3.5489,3.507,3.4367,3.3589,3.2602,3.1497,3.1467,3.1894,3.2532,3.2477,3.2734,3.3339,3.3443,3.3391,3.3287,3.3339,3.3287,3.3339,3.3182,3.3375,3.3684,3.4037,3.4382,3.48,3.5161,3.5424,3.556,3.547,3.5115,3.4378,3.3354,3.2693,3.2297,3.1782,3.141,3.1258,3.119,3.119,3.119,3.119,3.1331,3.1426,3.1453,3.1492,3.1511,3.1465,3.1363,3.1329,3.1252,3.1213,3.1487,3.2004,3.2298,3.2709,3.3325,3.3522,3.3606,3.355,3.3578,3.3522,3.3606,3.3707,3.3807,3.3807,3.3807,3.3807,3.3807,3.3807,3.3807,3.3807,3.3807,3.3807,3.3807,3.3807,3.3807,3.3807,3.3807,3.3807,3.3807,3.3925,3.4036,3.422,3.429,3.437,3.4529,3.4564,3.4676,3.4737,3.4561,3.4427,3.4274,3.4134,3.3956,3.391,3.3876,3.3807,3.3807,3.3807,3.3815,3.3815,3.3897,3.3934,3.387,3.3905,3.4079,3.4142,3.4184,3.4237,3.4302,3.442,3.4574,3.4572,3.4461,3.5489,3.5489,3.5489,3.4831,3.3694,3.2587,3.1869,3.1497,3.1467,3.1697,3.1796,3.1796,3.2048,3.2104,3.2104,3.216,3.216,3.2104,3.2104,3.2145,3.2351,3.2516,3.2841,3.3182,3.3735,3.4333,3.48,3.5115,3.5515,3.5577,3.5245,3.4431,3.3946,3.3524,3.2975,3.235,3.1793,3.141,3.1309,3.119,3.119,3.119,3.1331,3.1314,3.1314,3.1331,3.1314,3.1314,3.119,3.119,3.119,3.119,3.1252,3.1719,3.2072,3.2464,3.276,3.2872,3.2872,3.2903,3.2934,3.2965,3.2965,3.3314,3.355,3.3762,3.3743,3.3733,3.3788,3.3807,3.3807,3.3807,3.3807,3.3807,3.378,3.3707,3.368,3.3606,3.3606,3.3707,3.3707,3.3825,3.3981,3.3989,3.4039,3.405,3.4076,3.4117,3.4189,3.4282,3.4308,3.4152,3.4049,3.3924,3.391,3.3842,3.3834,3.3807,3.3807,3.3807,3.3807,3.3807,3.3807,3.3807,3.3807,3.3807,3.3834,3.3902,3.4012,3.3954,3.3979,3.4117,3.4218,3.4213,3.4208,3.5489,3.5489,3.5489,3.4726,3.344,3.2377,3.1809,3.1511,3.1467,3.1467,3.1467,3.1524,3.1467,3.1582,3.1582,3.1582,3.1582,3.1625,3.1625,3.1625,3.1467,3.1796,3.212,3.2477,3.3024,3.3684,3.4186,3.4544,3.5098,3.5498,3.5296,3.5032,3.474,3.4286,3.3674,3.2866,3.236,3.1945,3.163,3.1292,3.1207,3.1207,3.119,3.119,3.119,3.119,3.119,3.119,3.119,3.119,3.119,3.119,3.1235,3.1591,3.2039,3.2396,3.2563,3.2583,3.2616,3.2583,3.2517,3.2484,3.2484,3.2759,3.3105,3.333,3.3433,3.3523,3.3697,3.3807,3.3807,3.3807,3.3807,3.3807,3.368,3.355,3.3447,3.3343,3.3419,3.355,3.3652,3.378,3.3825,3.3807,3.3825,3.387,3.3915,3.3931,3.3972,3.4018,3.4031,3.3986,3.3902,3.3842,3.378,3.3753,3.3726,3.3753,3.3807,3.3807,3.3807,3.3807,3.3807,3.3807,3.3807,3.3807,3.3807,3.3807,3.386,3.3807,3.3807,3.3928,3.4012,3.3961,3.3947,3.5489,3.5474,3.5385,3.4577,3.3469,3.2677,3.2033,3.1511,3.1467,3.1467,3.1467,3.1467,3.1467,3.1467,3.1467,3.1467,3.1467,3.1467,3.1467,3.1467,3.1467,3.164,3.1796,3.2176,3.2571,3.2826,3.3235,3.3887,3.4528,3.4998,3.5329,3.5493,3.486,3.4422,3.4193,3.3038,3.2493,3.2546,3.1841,3.1283,3.1331,3.1292,3.119,3.119,3.119,3.119,3.119,3.119,3.119,3.119,3.119,3.119,3.1312,3.147,3.1946,3.2107,3.2162,3.2214,3.2196,3.2144,3.2231,3.2282,3.2384,3.2316,3.2429,3.2895,3.3085,3.3128,3.3255,3.3321,3.3345,3.335,3.3361,3.3332,3.3225,3.3136,3.3075,3.2996,3.3057,3.3219,3.3478,3.3597,3.3807,3.3807,3.3807,3.3807,3.3807,3.3807,3.368,3.3716,3.3743,3.377,3.368,3.3625,3.3597,3.3541,3.3597,3.3643,3.368,3.3807,3.378,3.3807,3.3807,3.3807,3.3807,3.3807,3.3807,3.3807,3.3807,3.3807,3.3807,3.3807,3.3807,3.377,3.3834,3.5489,3.5385,3.4397,3.3754,3.3365,3.2258,3.1704,3.1467,3.1467,3.1467,3.1467,3.1467,3.1467,3.1467,3.1467,3.1467,3.1467,3.1467,3.1467,3.1467,3.1467,3.1467,3.1467,3.1739,3.212,3.2477,3.2895,3.3235,3.3855,3.444,3.4829,3.4818,3.4521,3.448,3.4398,3.3118,3.2665,3.288,3.1999,3.163,3.1892,3.1472,3.119,3.119,3.119,3.119,3.119,3.119,3.119,3.119,3.119,3.119,3.123,3.1312,3.1368,3.1479,3.1596,3.1637,3.1657,3.1657,3.1657,3.1582,3.1562,3.1524,3.1733,3.2329,3.2648,3.267,3.2755,3.2844,3.287,3.2894,3.2903,3.284,3.2745,3.2713,3.2648,3.2681,3.2681,3.2919,3.3211,3.3433,3.3643,3.3753,3.3807,3.3807,3.3807,3.3734,3.3419,3.3314,3.3458,3.3476,3.339,3.3302,3.3273,3.3232,3.3202,3.3273,3.3284,3.3494,3.3734,3.3716,3.3661,3.378,3.3807,3.3662,3.3588,3.3762,3.3762,3.3652,3.3606,3.3504,3.3597,3.3607,3.3716,3.5489,3.537,3.4382,3.3754,3.3335,3.2392,3.1824,3.1453,3.1161,3.1161,3.1467,3.1467,3.1467,3.1467,3.1467,3.1467,3.1467,3.1467,3.1467,3.1467,3.1467,3.1467,3.1467,3.1524,3.1682,3.212,3.2477,3.2879,3.3187,3.3804,3.417,3.414,3.4169,3.4096,3.4012,3.312,3.2692,3.2974,3.1924,3.1842,3.2182,3.1692,3.1286,3.1224,3.1224,3.1241,3.119,3.119,3.119,3.119,3.119,3.119,3.119,3.123,3.123,3.123,3.1269,3.119,3.119,3.119,3.119,3.119,3.119,3.1329,3.1329,3.1844,3.2022,3.2091,3.2519,3.263,3.2657,3.2666,3.2681,3.2648,3.2332,3.2127,3.2074,3.2074,3.2127,3.2313,3.2585,3.2902,3.3055,3.3051,3.3087,3.3109,3.3214,3.3255,3.2996,3.2872,3.3027,3.3057,3.2903,3.289,3.289,3.2813,3.2752,3.283,3.2858,3.3114,3.3332,3.3439,3.3538,3.3504,3.3403,3.3164,3.3164,3.3335,3.3255,3.3045,3.3087,3.313,3.3259,3.3338,3.3252,3.5424,3.519,3.455,3.3817,3.3102,3.2389,3.1678,3.1102,3.0464,3.0524,3.1014,3.1204,3.1336,3.1467,3.1467,3.1467,3.1467,3.1467,3.1467,3.1467,3.1467,3.1467,3.1467,3.1524,3.1582,3.1739,3.212,3.2272,3.2461,3.3096,3.3479,3.3453,3.3473,3.345,3.3259,3.2913,3.2547,3.2538,3.2129,3.1866,3.1797,3.1748,3.1508,3.1369,3.1381,3.1398,3.1415,3.1376,3.1393,3.1275,3.1292,3.119,3.119,3.119,3.119,3.119,3.119,3.119,3.119,3.119,3.119,3.119,3.119,3.119,3.119,3.1291,3.1507,3.1691,3.2123,3.2301,3.2301,3.2299,3.2282,3.2248,3.1914,3.166,3.1603,3.1565,3.1696,3.1825,3.2103,3.2421,3.2486,3.2492,3.2506,3.2493,3.2475,3.242,3.24,3.2366,3.24,3.2366,3.2213,3.2248,3.2384,3.2283,3.2197,3.2337,3.2439,3.2691,3.2911,3.3019,3.3078,3.3063,3.2919,3.2769,3.2688,3.2769,3.2645,3.255,3.2713,3.2836,3.2813,3.2809,3.2612,3.5001,3.4201,3.3593,3.26,3.134,3.062,3.0003,2.9512,2.938,2.938,2.969,3.0329,3.0837,3.1467,3.1467,3.1467,3.1467,3.1467,3.1467,3.1467,3.1467,3.1467,3.1467,3.1467,3.1467,3.164,3.1739,3.1682,3.1981,3.2471,3.2808,3.2772,3.2764,3.276,3.2658,3.2257,3.1911,3.1936,3.1936,3.163,3.1571,3.1612,3.1814,3.1913,3.2187,3.2527,3.2664,3.2374,3.2171,3.1918,3.1579,3.1326,3.119,3.119,3.119,3.119,3.119,3.119,3.119,3.119,3.119,3.119,3.119,3.119,3.119,3.119,3.1312,3.1312,3.1572,3.1572,3.16,3.16,3.1582,3.1582,3.1389,3.1351,3.1312,3.1351,3.1449,3.1631,3.1837,3.2091,3.234,3.2353,3.2335,3.2316,3.2284,3.2248,3.1968,3.1897,3.1842,3.175,3.162,3.1714,3.1878,3.1694,3.1631,3.1788,3.2007,3.2265,3.2487,3.2609,3.2625,3.2601,3.2592,3.2473,3.242,3.2229,3.2315,3.2316,3.2451,3.2565,3.2462,3.2327,3.2141]},{"header":{"parameterUnit":"m.s-1","parameterCategory":1,"la1":31.0,"la2":29.5877,"lo1":-88.7671,"lo2":-86.6584,"dy":0.0162,"dx":0.0185,"nx":115,"ny":88,"refTime":"2024-09-01T18:00:00:Z","depth":0,"parameterNumber":3,"parameterNumberName":"V-component_of_WINDS"},"data":[0.0,0.0,0.0,0.0,0.0,0.0,0.0,0.0,0.0,0.0,0.0,0.0,0.0,0.0,0.0,0.0,0.0,0.0,0.0,0.0,0.0,0.0,0.0,0.0,0.0,0.0,0.0,0.0,0.0,0.0,0.0,0.0,0.0,0.0,0.0,0.0,0.0,0.0,0.0,0.0,0.0,0.0,0.0,0.0,0.0,0.0,0.0,0.0,0.0,0.0,0.0,0.0,0.0,0.0,0.0,0.0,0.0,0.0,0.0,0.0,0.0,0.0,0.0,0.0,0.0,0.0,0.0,0.0,0.0,0.0,0.0,0.0,0.0,0.0,0.0,0.0,0.0,0.0,0.0,0.0,0.0,0.0,0.0,0.0,0.0,0.0,0.0,0.0,0.0,0.0,0.0,0.0,0.0,0.0,0.0,0.0,0.0,0.0,0.0,0.0,0.0,0.0,0.0,0.0,0.0,0.0,0.0,0.0,0.0,0.0,0.0,0.0,0.0,0.0,0.0,0.0,0.0,0.0,0.0,0.0,0.0,0.0,0.0,0.0,0.0,0.0,0.0,0.0,0.0,0.0,0.0,0.0,0.0,0.0,0.0,0.0,0.0,0.0,0.0,0.0,0.0,0.0,0.0,0.0,0.0,0.0,0.0,0.0,0.0,0.0,0.0,0.0,0.0,0.0,0.0,0.0,0.0,0.0,0.0,0.0,0.0,0.0,0.0,0.0,0.0,0.0,0.0,0.0,0.0,0.0,0.0,0.0,0.0,0.0,0.0,0.0,0.0,0.0,0.0,0.0,0.0,0.0,0.0,0.0,0.0,0.0,0.0,0.0,0.0,0.0,0.0,0.0,0.0,0.0,0.0,0.0,0.0,0.0,0.0,0.0,0.0,0.0,0.0,0.0,0.0,0.0,0.0,0.0,0.0,0.0,0.0,0.0,0.0,0.0,0.0,0.0,0.0,0.0,0.0,0.0,0.0,0.0,0.0,0.0,0.0,0.0,0.0,0.0,0.0,0.0,0.0,0.0,0.0,0.0,0.0,0.0,0.0,0.0,0.0,0.0,0.0,0.0,0.0,0.0,0.0,0.0,0.0,0.0,0.0,0.0,0.0,0.0,0.0,0.0,0.0,0.0,0.0,0.0,0.0,0.0,0.0,0.0,0.0,0.0,0.0,0.0,0.0,0.0,0.0,0.0,0.0,0.0,0.0,0.0,0.0,0.0,0.0,0.0,0.0,0.0,0.0,0.0,0.0,0.0,0.0,0.0,0.0,0.0,0.0,0.0,0.0,0.0,0.0,0.0,0.0,0.0,0.0,0.0,0.0,0.0,0.0,0.0,0.0,0.0,0.0,0.0,0.0,0.0,0.0,0.0,0.0,0.0,0.0,0.0,0.0,0.0,0.0,0.0,0.0,0.0,0.0,0.0,0.0,0.0,0.0,0.0,0.0,0.0,0.0,0.0,0.0,0.0,0.0,0.0,0.0,0.0,0.0,0.0,0.0,0.0,0.0,0.0,0.0,0.0,0.0,0.0,0.0,0.0,0.0,0.0,0.0,0.0,0.0,0.0,0.0,0.0,0.0,0.0,0.0,0.0,0.0,0.0,0.0,0.0,0.0,0.0,0.0,0.0,0.0,0.0,0.0,0.0,0.0,0.0,0.0,0.0,0.0,0.0,0.0,0.0,0.0,0.0,0.0,0.0,0.0,0.0,0.0,0.0,0.0,0.0,0.0,0.0,0.0,0.0,0.0,0.0,0.0,0.0,0.0,0.0,0.0,0.0,0.0,0.0,0.0,0.0,0.0,0.0,0.0,0.0,0.0,0.0,0.0,0.0,0.0,0.0,0.0,0.0,0.0,0.0,0.0,0.0,0.0,0.0,0.0,0.0,0.0,0.0,0.0,0.0,0.0,0.0,0.0,0.0,0.0,0.0,0.0,0.0,0.0,0.0,0.0,0.0,0.0,0.0,0.0,0.0,0.0,0.0,0.0,0.0,0.0,0.0,0.0,0.0,0.0,0.0,0.0,0.0,0.0,0.0,0.0,0.0,0.0,0.0,0.0,0.0,0.0,0.0,0.0,0.0,0.0,0.0,0.0,0.0,0.0,0.0,0.0,0.0,0.0,0.0,0.0,0.0,0.0,0.0,0.0,0.0,0.0,0.0,0.0,0.0,0.0,0.0,0.0,0.0,0.0,0.0,0.0,0.0,0.0,0.0,0.0,0.0,0.0,0.0,0.0,0.0,0.0,0.0,0.0,0.0,0.0,0.0,0.0,0.0,0.0,0.0,0.0,0.0,0.0,0.0,0.0,0.0,0.0,0.0,0.0,0.0,0.0,0.0,0.0,0.0,0.0,0.0,0.0,0.0,0.0,0.0,0.0,0.0,0.0,0.0,0.0,0.0,0.0,0.0,0.0,0.0,0.0,0.0,0.0,0.0,0.0,0.0,0.0,0.0,0.0,0.0,0.0,0.0,0.0,0.0,0.0,0.0,0.0,0.0,0.0,0.0,0.0,0.0,0.0,0.0,0.0,0.0,0.0,0.0,0.0,0.0,0.0,0.0,0.0,0.0,0.0,0.0,0.0,0.0,0.0,0.0,0.0,0.0,0.0,0.0,0.0,0.0,0.0,0.0,0.0,0.0,0.0,0.0,0.0,0.0,0.0,0.0,0.0,0.0,0.0,0.0,0.0,0.0,0.0,0.0,0.0,0.0,0.0,0.0,0.0,0.0,0.0,0.0,0.0,0.0,0.0,0.0,0.0,0.0,0.0,0.0,0.0,0.0,0.0,0.0,0.0,0.0,0.0,0.0,0.0,0.0,0.0,0.0,0.0,0.0,0.0,0.0,0.0,0.0,0.0,0.0,0.0,0.0,0.0,0.0,0.0,0.0,0.0,0.0,0.0,0.0,0.0,0.0,0.0,0.0,0.0,0.0,0.0,0.0,0.0,0.0,0.0,0.0,0.0,0.0,0.0,0.0,0.0,0.0,0.0,0.0,0.0,0.0,0.0,0.0,0.0,0.0,0.0,0.0,0.0,0.0,0.0,0.0,0.0,0.0,0.0,0.0,0.0,0.0,0.0,0.0,0.0,0.0,0.0,0.0,0.0,0.0,0.0,0.0,0.0,0.0,0.0,0.0,0.0,0.0,0.0,0.0,0.0,0.0,0.0,0.0,0.0,0.0,0.0,0.0,0.0,0.0,0.0,0.0,0.0,0.0,0.0,0.0,0.0,0.0,0.0,0.0,0.0,0.0,0.0,0.0,0.0,0.0,0.0,0.0,0.0,0.0,0.0,0.0,0.0,0.0,0.0,0.0,0.0,0.0,0.0,0.0,0.0,0.0,0.0,0.0,0.0,0.0,0.0,0.0,0.0,0.0,0.0,0.0,0.0,0.0,0.0,0.0,0.0,0.0,0.0,0.0,0.0,0.0,0.0,0.0,0.0,0.0,0.0,0.0,0.0,0.0,0.0,0.0,0.0,0.0,0.0,0.0,0.0,0.0,0.0,0.0,0.0,0.0,0.0,0.0,0.0,0.0,0.0,0.0,0.0,0.0,0.0,0.0,0.0,0.0,0.0,0.0,0.0,0.0,0.0,0.0,0.0,0.0,0.0,0.0,0.0,0.0,0.0,0.0,0.0,0.0,0.0,0.0,0.0,0.0,0.0,0.0,0.0,0.0,0.0,0.0,0.0,0.0,0.0,0.0,0.0,0.0,0.0,0.0,0.0,0.0,0.0,0.0,0.0,0.0,0.0,0.0,0.0,0.0,0.0,0.0,0.0,0.0,0.0,0.0,0.0,0.0,0.0,0.0,0.0,0.0,0.0,0.0,0.0,0.0,0.0,0.0,0.0,0.0,0.0,0.0,0.0,0.0,0.0,0.0,0.0,0.0,0.0,0.0,0.0,0.0,0.0,0.0,0.0,0.0,0.0,0.0,0.0,0.0,0.0,0.0,0.0,0.0,0.0,0.0,0.0,0.0,0.0,0.0,0.0,0.0,0.0,0.0,0.0,0.0,0.0,0.0,0.0,0.0,0.0,0.0,0.0,0.0,0.0,0.0,0.0,0.0,0.0,0.0,0.0,0.0,0.0,0.0,0.0,0.0,0.0,0.0,0.0,0.0,0.0,0.0,0.0,0.0,0.0,0.0,0.0,0.0,0.0,0.0,0.0,0.0,0.0,0.0,0.0,0.0,0.0,0.0,0.0,0.0,0.0,0.0,0.0,0.0,0.0,0.0,0.0,0.0,0.0,0.0,0.0,0.0,0.0,0.0,0.0,0.0,-0.2,0.0,0.0,0.0,0.0,0.0,0.0,0.0,0.0,0.0,0.0,0.0,0.0,0.0,0.0,0.0,0.0,0.0,0.0,0.0,0.0,0.0,0.0,0.0,0.0,0.0,0.0,0.0,0.0,0.0,0.0,0.0,0.0,0.0,0.0,0.0,0.0,0.0,0.0,0.0,0.0,0.0,0.0,0.0,0.0,0.0,0.0,0.0,0.0,0.0,0.0,0.0,0.0,0.0,0.0,0.0,0.0,0.0,0.0,0.0,0.0,0.0,0.0,0.0,0.0,0.0,0.0,0.0,0.0,0.0,0.0,0.0,0.0,0.0,0.0,0.0,0.0,0.0,0.0,0.0,0.0,0.0,0.0,0.0,0.0,0.0,0.0,0.0,0.0,0.0,0.0,0.0,0.0,0.0,0.0,0.0,0.0,0.0,0.0,0.0,0.0,0.0,0.0,0.0,0.0,0.0,0.0,0.0,0.0,0.0,0.0,-0.1997,-0.2037,-0.2364,-0.2438,-0.2148,0.0,0.0,0.0,0.0,0.0,0.0,0.0,0.0,0.0,0.0,0.0,0.0,0.0,0.0,0.0,0.0,0.0,0.0,0.0,0.0,0.0,0.0,0.0,0.0,0.0,0.0,0.0,0.0,0.0,0.0,0.0,0.0,0.0,0.0,0.0,0.0,0.0,0.0,0.0,0.0,0.0,0.0,0.0,0.0,0.0,0.0,0.0,0.0,0.0,0.0,0.0,0.0,0.0,0.0,0.0,0.0,0.0,0.0,0.0,0.0,0.0,0.0,0.0,0.0,0.0,0.0,0.0,0.0,0.0,0.0,0.0,0.0,0.0,0.0,0.0,0.0,0.0,0.0,0.0,0.0,0.0,0.0,0.0,0.0,0.0,0.0,0.0,0.0,0.0,0.0,0.0,0.0,0.0,0.0,0.0,0.0,0.0,0.0,0.0,0.0,0.0,0.0,0.0,0.0,0.0,0.0,0.0,0.0,0.0,0.0,0.0,0.0,-0.1952,-0.1882,-0.2052,0.0,0.0,0.0,0.0,0.0,0.0,0.0,0.0,0.0,0.0,0.0,0.0,0.0,0.0,0.0,0.0,0.0,0.0,0.0,0.0,0.0,0.0,0.0,0.0,0.0,0.0,0.0,0.0,0.0,0.0,0.0,0.0,0.0,0.0,0.0,0.0,0.0,0.0,0.0,0.0,0.0,0.0,0.0,0.0,0.0,0.0,0.0,0.0,0.0,0.0,0.0,0.0,0.0,0.0,0.0,0.0,0.0,0.0,0.0,0.0,0.0,0.0,0.0,0.0,0.0,0.0,0.0,0.0,0.0,0.0,0.0,0.0,0.0,0.0,0.0,0.0,0.0,0.0,0.0,0.0,0.0,0.0,0.0,0.0,0.0,0.0,0.0,0.0,0.0,0.0,0.0,0.0,0.0,0.0,0.0,0.0,0.0,0.0,0.0,0.0,0.0,0.0,0.0,0.0,0.0,0.0,0.0,0.0,0.0,0.0,-0.1937,-0.2184,-0.1944,0.0,-0.1117,0.0,0.0,0.0,0.0,0.0,0.0,0.0,0.0,0.0,0.0,0.0,0.0,0.0,0.0,0.0,0.0,0.0,0.0,0.0,0.0,0.0,0.0,0.0,0.0,0.0,0.0,0.0,0.0,0.0,0.0,0.0,0.0,0.0,0.0,0.0,0.0,0.0,0.0,0.0,0.0,0.0,0.0,0.0,0.0,0.0,0.0,0.0,0.0,0.0,0.0,0.0,0.0,0.0,0.0,0.0,0.0,0.0,0.0,0.0,0.0,0.0,0.0,0.0,0.0,0.0,0.0,0.0,0.0,0.0,0.0,0.0,0.0,0.0,0.0,0.0,0.0,0.0,0.0,0.0,0.0,0.0,0.0,0.0,0.0,0.0,0.0,0.0,0.0,0.0,0.0,0.0,0.0,0.0,0.0,0.0,0.0,0.0,0.0,0.0,0.0,0.0,0.0,0.0,0.0,0.0,0.0,0.0,0.0,0.0,0.0,0.0,-0.2207,-0.218,-0.2038,0.0,0.0,0.0,0.0,0.0,0.0,0.0,0.0,0.0,0.0,0.0,0.0,0.0,0.0,0.0,0.0,0.0,0.0,0.0,0.0,0.0,0.0,0.0,0.0,0.0,0.0,0.0,0.0,0.0,0.0,0.0,0.0,0.0,0.0,0.0,0.0,0.0,0.0,0.0,0.0,0.0,0.0,0.0,0.0,0.0,0.0,0.0,0.0,0.0,0.0,0.0,0.0,0.0,0.0,0.0,0.0,0.0,0.0,0.0,0.0,0.0,0.0,0.0,0.0,0.0,0.0,0.0,0.0,0.0,0.0,0.0,0.0,0.0,0.0,0.0,0.0,0.0,0.0,0.0,0.0,0.0,0.0,0.0,0.0,0.0,0.0,0.0,0.0,0.0,0.0,0.0,0.0,0.0,0.0,0.0,0.0,0.0,0.0,0.0,0.0,0.0,0.0,0.0,0.0,0.0,0.0,0.0,0.0,0.0,0.0,-0.2194,0.0,-0.2325,-0.2381,-0.2367,-0.2242,0.0,0.0,0.0,0.0,0.0,0.0,0.0,0.0,0.0,0.0,0.0,0.0,0.0,0.0,0.0,0.0,0.0,0.0,0.0,0.0,0.0,0.0,0.0,0.0,0.0,0.0,0.0,0.0,0.0,0.0,0.0,0.0,0.0,0.0,0.0,0.0,0.0,0.0,0.0,0.0,0.0,0.0,0.0,0.0,0.0,0.0,0.0,0.0,0.0,0.0,0.0,0.0,0.0,0.0,0.0,0.0,0.0,0.0,0.0,0.0,0.0,0.0,0.0,0.0,0.0,0.0,0.0,0.0,0.0,0.0,0.0,0.0,0.0,0.0,0.0,0.0,0.0,0.0,0.0,0.0,0.0,0.0,0.0,0.0,0.0,0.0,0.0,0.0,0.0,0.0,0.0,0.0,0.0,0.0,0.0,0.0,0.0,0.0,0.0,0.0,0.0,0.0,0.0,0.0,0.0,0.0,0.0,0.0,0.0,-0.2484,-0.2371,-0.2675,-0.2579,-0.2289,0.0,0.0,0.0,0.0,0.0,0.0,0.0,0.0,0.0,0.0,0.0,0.0,0.0,0.0,0.0,0.0,0.0,0.0,0.0,0.0,0.0,0.0,0.0,0.0,0.0,0.0,0.0,0.0,0.0,0.0,0.0,0.0,0.0,0.0,0.0,0.0,0.0,0.0,0.0,0.0,0.0,0.0,0.0,0.0,0.0,0.0,0.0,0.0,0.0,0.0,0.0,0.0,0.0,0.0,0.0,0.0,0.0,0.0,0.0,0.0,0.0,0.0,0.0,0.0,0.0,0.0,0.0,0.0,0.0,0.0,0.0,0.0,0.0,0.0,0.0,0.0,0.0,0.0,0.0,0.0,0.0,0.0,0.0,0.0,0.0,0.0,0.0,0.0,0.0,0.0,0.0,0.0,0.0,0.0,0.0,0.0,0.0,0.0,0.0,0.0,0.0,0.0,0.0,0.0,0.0,0.0,0.0,0.0,0.0,-0.2248,-0.2218,-0.2552,-0.3224,-0.2654,-0.2247,0.0,0.0,0.0,0.0,0.0,0.0,0.0,0.0,0.0,0.0,0.0,0.0,0.0,0.0,0.0,0.0,0.0,0.0,0.0,0.0,0.0,0.0,0.0,0.0,0.0,0.0,0.0,0.0,0.0,0.0,0.0,0.0,0.0,0.0,0.0,0.0,0.0,0.0,0.0,0.0,0.0,0.0,0.0,0.0,0.0,0.0,0.0,0.0,0.0,0.0,0.0,0.0,0.0,0.0,0.0,0.0,0.0,0.0,0.0,0.0,0.0,0.0,0.0,0.0,0.0,0.0,0.0,0.0,0.0,0.0,0.0,0.0,0.0,0.0,0.0,0.0,0.0,0.0,0.0,0.0,0.0,0.0,0.0,0.0,0.0,0.0,0.0,0.0,0.0,0.0,0.0,0.0,0.0,0.0,0.0,0.0,0.0,0.0,0.0,0.0,0.0,0.0,0.0,0.0,0.0,0.0,0.0,0.0,0.0,-0.2022,0.0,-0.2668,0.0,-0.2582,-0.2128,0.0,0.0,0.0,0.0,0.0,0.0,0.0,0.0,0.0,0.0,0.0,0.0,0.0,0.0,0.0,0.0,0.0,0.0,0.0,0.0,0.0,0.0,0.0,0.0,0.0,0.0,0.0,0.0,0.0,0.0,0.0,0.0,0.0,0.0,0.0,0.0,0.0,0.0,0.0,0.0,0.0,0.0,0.0,0.0,0.0,0.0,0.0,0.0,0.0,0.0,0.0,0.0,0.0,0.0,0.0,0.0,0.0,0.0,0.0,0.0,0.0,0.0,0.0,0.0,0.0,0.0,0.0,0.0,0.0,0.0,0.0,0.0,0.0,0.0,0.0,0.0,0.0,0.0,0.0,0.0,0.0,0.0,0.0,0.0,0.0,0.0,0.0,0.0,0.0,0.0,0.0,0.0,0.0,0.0,0.0,0.0,0.0,0.0,0.0,0.0,0.0,0.0,0.0,0.0,0.0,0.0,0.0,0.0,-0.2047,-0.2478,-0.2623,-0.2647,-0.2636,-0.2259,-0.1999,0.0,0.0,0.0,0.0,0.0,0.0,0.0,0.0,0.0,0.0,0.0,0.0,0.0,0.0,0.0,0.0,0.0,0.0,0.0,0.0,0.0,0.0,0.0,0.0,0.0,0.0,0.0,0.0,0.0,0.0,0.0,0.0,0.0,0.0,0.0,0.0,0.0,0.0,0.0,0.0,0.0,0.0,0.0,0.0,0.0,0.0,0.0,0.0,0.0,0.0,0.0,0.0,0.0,0.0,0.0,0.0,0.0,0.0,0.0,0.0,0.0,0.0,0.0,0.0,0.0,0.0,0.0,0.0,0.0,0.0,0.0,0.0,0.0,0.0,0.0,0.0,0.0,0.0,0.0,0.0,0.0,0.0,0.0,0.0,0.0,0.0,0.0,0.0,0.0,0.0,0.0,0.0,0.0,0.0,0.0,0.0,0.0,0.0,0.0,0.0,0.0,0.0,0.0,0.0,0.0,0.0,0.0,0.0,0.0,-0.2412,-0.249,-0.1978,-0.0903,-0.1243,-0.1572,0.0,0.0,0.0,0.0,0.0,0.0,0.0,0.0,0.0,0.0,0.0,0.0,0.0,0.0,0.0,0.0,0.0,0.0,0.0,0.0,0.0,0.0,0.0,0.0,0.0,0.0,0.0,0.0,0.0,0.0,0.0,0.0,0.0,0.0,0.0,0.0,0.0,0.0,0.0,0.0,0.0,0.0,0.0,0.0,0.0,0.0,0.0,0.0,0.0,0.0,0.0,0.0,0.0,0.0,0.0,0.0,0.0,0.0,0.0,0.0,0.0,0.0,0.0,0.0,0.0,0.0,0.0,0.0,0.0,0.0,0.0,0.0,0.0,0.0,0.0,0.0,0.0,0.0,0.0,0.0,0.0,0.0,0.0,0.0,0.0,0.0,0.0,0.0,0.0,0.0,0.0,0.0,0.0,0.0,0.0,0.0,0.0,0.0,0.0,0.0,0.0,0.0,0.0,0.0,0.0,0.0,0.0,0.0,0.0,-0.3128,-0.2933,-0.2103,-0.0529,-0.1511,-0.198,-0.1796,0.0,0.0,0.0,0.0,0.0,0.0,0.0,0.0,0.0,0.0,0.0,0.0,0.0,0.0,0.0,0.0,0.0,0.0,0.0,0.0,0.0,0.0,0.0,0.0,0.0,0.0,0.0,0.0,0.0,0.0,0.0,0.0,0.0,0.0,0.0,0.0,0.0,0.0,0.0,0.0,0.0,0.0,0.0,0.0,0.0,0.0,0.0,0.0,0.0,0.0,0.0,0.0,0.0,0.0,0.0,0.0,0.0,0.0,0.0,0.0,0.0,0.0,0.0,0.0,0.0,0.0,0.0,0.0,0.0,0.0,0.0,0.0,0.0,0.0,0.0,0.0,0.0,0.0,0.0,0.0,0.0,0.0,0.0,0.0,0.0,0.0,0.0,0.0,0.0,0.0,0.0,0.0,0.0,0.0,0.0,0.0,0.0,0.0,0.0,0.0,0.0,0.0,0.0,0.0,0.0,0.0,0.0,0.0,-0.4391,-0.3933,-0.2995,-0.152,-0.2832,-0.3003,0.0,0.0,0.0,0.0,0.0,0.0,0.0,0.0,0.0,0.0,0.0,0.0,0.0,0.0,0.0,0.0,0.0,0.0,0.0,0.0,0.0,0.0,0.0,0.0,0.0,0.0,0.0,0.0,0.0,0.0,0.0,0.0,0.0,0.0,0.0,0.0,0.0,0.0,0.0,0.0,0.0,0.0,0.0,0.0,0.0,0.0,0.0,0.0,0.0,0.0,0.0,0.0,0.0,0.0,0.0,0.0,0.0,0.0,0.0,0.0,0.0,0.0,0.0,0.0,0.0,0.0,0.0,0.0,0.0,0.0,0.0,0.0,0.0,0.0,0.0,0.0,0.0,0.0,0.0,0.0,0.0,0.0,0.0,0.0,0.0,0.0,0.0,0.0,0.0,0.0,0.0,0.0,0.0,0.0,0.0,0.0,0.0,0.0,0.0,0.0,0.0,0.0,0.0,0.0,0.0,0.0,0.0,0.0,0.0,-0.461,-0.4588,-0.4162,-0.3326,-0.3475,-0.2828,0.0,0.0,0.0,0.0,0.0,0.0,0.0,0.0,0.0,0.0,0.0,0.0,0.0,0.0,0.0,0.0,0.0,0.0,0.0,0.0,0.0,0.0,0.0,0.0,0.0,0.0,0.0,0.0,0.0,0.0,0.0,0.0,0.0,0.0,0.0,0.0,0.0,0.0,0.0,0.0,0.0,0.0,0.0,0.0,0.0,0.0,0.0,0.0,0.0,0.0,0.0,0.0,0.0,0.0,0.0,0.0,0.0,0.0,0.0,0.0,0.0,0.0,0.0,0.0,0.0,0.0,0.0,0.0,0.0,0.0,0.0,0.0,0.0,0.0,0.0,0.0,0.0,0.0,0.0,0.0,0.0,0.0,0.0,0.0,0.0,0.0,0.0,0.0,0.0,0.0,0.0,0.0,0.0,0.0,0.0,0.0,0.0,0.0,0.0,0.0,0.0,0.0,0.0,0.0,0.0,0.0,0.0,0.0,-0.4434,-0.4974,-0.5204,-0.5206,-0.4961,-0.4599,-0.3258,0.0,0.0,0.0,0.0,0.0,0.0,0.0,0.0,0.0,0.0,0.0,0.0,0.0,0.0,0.0,0.0,0.0,0.0,0.0,0.0,0.0,0.0,0.0,0.0,0.0,0.0,0.0,0.0,0.0,0.0,0.0,0.0,0.0,0.0,0.0,0.0,0.0,0.0,0.0,0.0,0.0,0.0,0.0,0.0,0.0,0.0,0.0,0.0,0.0,0.0,0.0,0.0,0.0,0.0,0.0,0.0,0.0,0.0,0.0,0.0,0.0,0.0,0.0,0.0,0.0,0.0,0.0,0.0,0.0,0.0,0.0,0.0,0.0,0.0,0.0,0.0,0.0,0.0,0.0,0.0,0.0,0.0,0.0,0.0,0.0,0.0,0.0,0.0,0.0,0.0,0.0,0.0,0.0,0.0,0.0,0.0,0.0,0.0,0.0,0.0,0.0,0.0,0.0,0.0,0.0,0.0,0.0,0.0,-0.4901,-0.527,-0.5638,-0.5964,-0.6286,-0.5668,-0.3959,0.0,0.0,0.0,0.0,0.0,0.0,0.0,0.0,0.0,0.0,0.0,0.0,0.0,0.0,0.0,0.0,0.0,0.0,0.0,0.0,0.0,0.0,0.0,0.0,0.0,0.0,0.0,0.0,0.0,0.0,0.0,0.0,0.0,0.0,0.0,0.0,0.0,0.0,0.0,0.0,0.0,0.0,0.0,0.0,0.0,0.0,0.0,0.0,0.0,0.0,0.0,0.0,0.0,0.0,0.0,0.0,0.0,0.0,0.0,0.0,0.0,0.0,0.0,0.0,0.0,0.0,0.0,0.0,0.0,0.0,0.0,0.0,0.0,0.0,0.0,0.0,0.0,0.0,0.0,0.0,0.0,0.0,0.0,0.0,0.0,0.0,0.0,0.0,0.0,0.0,0.0,0.0,0.0,0.0,0.0,0.0,0.0,0.0,0.0,0.0,0.0,0.0,0.0,0.0,0.0,0.0,0.0,0.0,-0.4759,-0.5262,-0.5731,-0.6075,-0.632,-0.5411,-0.3689,0.0,0.0,0.0,0.0,0.0,0.0,0.0,0.0,0.0,0.0,0.0,0.0,0.0,0.0,0.0,0.0,0.0,0.0,0.0,0.0,0.0,0.0,0.0,0.0,0.0,0.0,0.0,0.0,0.0,0.0,0.0,0.0,0.0,0.0,0.0,0.0,0.0,0.0,0.0,0.0,0.0,0.0,0.0,0.0,0.0,0.0,0.0,0.0,-0.575,0.0,0.0,0.0,0.0,0.0,0.0,0.0,0.0,0.0,0.0,0.0,0.0,0.0,0.0,0.0,0.0,0.0,0.0,0.0,0.0,0.0,0.0,0.0,0.0,0.0,0.0,0.0,0.0,0.0,0.0,0.0,0.0,0.0,0.0,0.0,0.0,0.0,0.0,0.0,0.0,0.0,0.0,0.0,0.0,0.0,0.0,0.0,0.0,0.0,0.0,0.0,0.0,0.0,0.0,0.0,0.0,0.0,0.0,0.0,-0.4863,-0.536,-0.5858,-0.6183,-0.6233,-0.5523,-0.4171,0.0,0.0,0.0,0.0,0.0,0.0,0.0,0.0,0.0,0.0,0.0,0.0,0.0,0.0,0.0,0.0,0.0,0.0,0.0,0.0,0.0,0.0,0.0,0.0,0.0,0.0,0.0,0.0,0.0,0.0,0.0,0.0,0.0,0.0,0.0,0.0,0.0,0.0,0.0,0.0,0.0,0.0,0.0,0.0,0.0,0.0,0.0,0.0,0.0,0.0,0.0,0.0,0.0,0.0,0.0,0.0,0.0,0.0,0.0,0.0,0.0,0.0,0.0,0.0,0.0,0.0,0.0,0.0,0.0,0.0,0.0,0.0,0.0,0.0,0.0,0.0,0.0,0.0,0.0,0.0,0.0,0.0,0.0,0.0,0.0,0.0,0.0,0.0,0.0,0.0,0.0,0.0,0.0,0.0,0.0,0.0,0.0,0.0,0.0,0.0,0.0,0.0,0.0,0.0,0.0,0.0,0.0,-0.4768,-0.5163,-0.5473,-0.5928,-0.6221,-0.6323,-0.5773,-0.4775,-0.3401,0.0,0.0,0.0,0.0,0.0,0.0,0.0,0.0,0.0,0.0,0.0,0.0,0.0,0.0,0.0,0.0,0.0,0.0,0.0,0.0,0.0,0.0,0.0,0.0,0.0,0.0,0.0,0.0,0.0,0.0,0.0,0.0,0.0,0.0,0.0,0.0,0.0,0.0,-0.6159,-0.6275,0.0,0.0,0.0,0.0,0.0,0.0,0.0,0.0,-0.597,0.0,0.0,0.0,0.0,0.0,0.0,0.0,0.0,0.0,0.0,0.0,0.0,0.0,0.0,0.0,0.0,0.0,0.0,0.0,0.0,0.0,0.0,0.0,0.0,0.0,0.0,0.0,0.0,0.0,0.0,0.0,0.0,0.0,0.0,0.0,0.0,0.0,0.0,0.0,0.0,0.0,0.0,0.0,0.0,0.0,0.0,0.0,0.0,0.0,0.0,0.0,0.0,0.0,0.0,0.0,0.0,-0.4736,-0.5145,-0.5458,-0.5698,-0.5823,-0.6002,-0.6309,-0.5874,-0.4548,-0.2307,0.0,0.0,0.0,0.0,0.0,0.0,0.0,0.0,0.0,0.0,0.0,0.0,0.0,0.0,0.0,0.0,0.0,0.0,0.0,0.0,0.0,0.0,0.0,0.0,0.0,0.0,0.0,0.0,0.0,0.0,0.0,0.0,0.0,0.0,0.0,0.0,0.0,0.0,0.0,-0.7779,-0.7038,0.0,0.0,0.0,0.0,0.0,0.0,0.0,0.0,-0.564,0.0,0.0,0.0,0.0,0.0,0.0,0.0,0.0,0.0,0.0,0.0,0.0,0.0,0.0,0.0,0.0,0.0,0.0,0.0,0.0,0.0,0.0,0.0,0.0,0.0,0.0,0.0,0.0,0.0,0.0,0.0,0.0,0.0,0.0,0.0,0.0,0.0,0.0,0.0,0.0,0.0,0.0,0.0,0.0,0.0,0.0,0.0,0.0,0.0,0.0,0.0,0.0,0.0,0.0,0.0,-0.4621,-0.5145,-0.551,-0.5657,-0.5762,-0.5912,-0.6046,-0.5841,-0.4601,0.0,0.0,0.0,0.0,0.0,0.0,0.0,0.0,0.0,0.0,0.0,0.0,0.0,0.0,0.0,0.0,0.0,0.0,0.0,0.0,0.0,0.0,0.0,0.0,0.0,0.0,0.0,0.0,0.0,0.0,0.0,0.0,0.0,0.0,0.0,0.0,0.0,0.0,0.0,0.0,-0.8786,-0.8311,-0.8906,0.0,0.0,0.0,0.0,0.0,0.0,-0.6643,-0.6062,0.0,0.0,0.0,0.0,0.0,0.0,0.0,0.0,0.0,0.0,0.0,0.0,0.0,0.0,0.0,0.0,0.0,0.0,0.0,0.0,0.0,0.0,0.0,0.0,0.0,0.0,0.0,0.0,0.0,0.0,0.0,0.0,0.0,0.0,0.0,0.0,0.0,0.0,0.0,0.0,0.0,0.0,0.0,0.0,0.0,0.0,0.0,0.0,0.0,0.0,0.0,0.0,0.0,0.0,0.0,-0.4387,-0.5084,-0.5468,-0.5628,-0.5671,-0.5744,-0.5793,-0.5708,-0.4665,0.0,0.0,0.0,0.0,0.0,0.0,0.0,0.0,0.0,0.0,0.0,0.0,0.0,0.0,0.0,0.0,0.0,0.0,0.0,0.0,0.0,0.0,0.0,0.0,0.0,0.0,0.0,0.0,0.0,0.0,0.0,0.0,0.0,0.0,0.0,0.0,0.0,0.0,0.0,0.0,0.0,-0.9605,-1.0081,-0.9211,0.0,0.0,0.0,0.0,-0.7556,-0.724,0.0,0.0,0.0,0.0,0.0,0.0,0.0,0.0,0.0,0.0,0.0,0.0,0.0,0.0,0.0,0.0,0.0,0.0,0.0,0.0,0.0,0.0,0.0,0.0,0.0,0.0,0.0,0.0,0.0,0.0,0.0,0.0,0.0,0.0,0.0,0.0,0.0,0.0,0.0,0.0,0.0,0.0,0.0,0.0,0.0,0.0,0.0,0.0,0.0,0.0,0.0,0.0,0.0,0.0,0.0,0.0,-0.4418,-0.5073,-0.5444,-0.5603,-0.5471,-0.5538,-0.579,-0.5541,-0.4332,0.0,0.0,0.0,0.0,0.0,0.0,0.0,0.0,0.0,0.0,0.0,0.0,0.0,0.0,0.0,0.0,0.0,0.0,0.0,0.0,0.0,0.0,0.0,0.0,0.0,0.0,0.0,0.0,0.0,0.0,0.0,0.0,0.0,0.0,0.0,0.0,0.0,0.0,0.0,0.0,0.0,-1.0388,-1.0057,-0.9392,-0.8789,0.0,0.0,-0.873,-0.9262,-0.9234,0.0,0.0,0.0,0.0,0.0,0.0,0.0,0.0,0.0,0.0,0.0,0.0,0.0,0.0,0.0,0.0,0.0,0.0,0.0,0.0,0.0,0.0,0.0,0.0,0.0,0.0,0.0,0.0,0.0,0.0,0.0,0.0,0.0,0.0,0.0,0.0,0.0,0.0,0.0,0.0,0.0,0.0,0.0,0.0,0.0,0.0,0.0,0.0,0.0,0.0,0.0,0.0,0.0,0.0,0.0,-0.3838,-0.422,-0.4812,-0.5229,-0.5454,-0.541,-0.547,-0.5535,-0.5445,-0.4315,0.0,0.0,0.0,0.0,0.0,0.0,0.0,0.0,0.0,0.0,0.0,0.0,0.0,0.0,0.0,0.0,0.0,0.0,0.0,0.0,0.0,0.0,0.0,0.0,0.0,0.0,0.0,0.0,0.0,0.0,0.0,0.0,0.0,0.0,0.0,0.0,0.0,0.0,0.0,0.0,0.0,0.0,-1.112,-1.053,0.0,0.0,0.0,-0.9639,-0.9649,0.0,0.0,0.0,0.0,0.0,0.0,0.0,0.0,0.0,0.0,0.0,0.0,0.0,0.0,0.0,0.0,0.0,0.0,0.0,0.0,0.0,0.0,0.0,0.0,0.0,0.0,0.0,0.0,0.0,0.0,0.0,0.0,0.0,0.0,0.0,0.0,0.0,0.0,0.0,0.0,0.0,0.0,0.0,0.0,0.0,0.0,0.0,0.0,0.0,0.0,0.0,0.0,0.0,0.0,0.0,0.0,0.0,-0.4104,-0.4636,-0.4829,-0.4764,-0.4703,-0.4903,-0.5365,-0.5389,0.0,0.0,0.0,0.0,0.0,0.0,0.0,0.0,0.0,0.0,0.0,0.0,0.0,0.0,0.0,0.0,0.0,0.0,0.0,0.0,0.0,0.0,0.0,0.0,0.0,0.0,0.0,-0.2993,0.0,0.0,0.0,0.0,0.0,0.0,0.0,0.0,0.0,0.0,0.0,0.0,0.0,0.0,-1.135,-1.176,-1.1469,-1.1387,0.0,0.0,-1.068,-1.0394,-1.0938,-1.0525,0.0,0.0,0.0,0.0,0.0,0.0,0.0,0.0,0.0,0.0,0.0,0.0,0.0,0.0,0.0,0.0,0.0,0.0,0.0,0.0,0.0,0.0,0.0,0.0,0.0,0.0,0.0,0.0,0.0,0.0,0.0,0.0,0.0,0.0,0.0,0.0,0.0,0.0,0.0,0.0,0.0,0.0,0.0,0.0,0.0,0.0,0.0,0.0,0.0,0.0,0.0,0.0,0.0,0.0,0.0,-0.4124,-0.4639,-0.4247,-0.2939,-0.2878,-0.3689,-0.5316,-0.5392,-0.4285,0.0,0.0,0.0,0.0,0.0,0.0,0.0,0.0,0.0,0.0,0.0,0.0,0.0,0.0,0.0,0.0,0.0,0.0,0.0,0.0,0.0,0.0,0.0,0.0,0.0,0.0,0.0,0.0,0.0,0.0,0.0,0.0,0.0,0.0,0.0,0.0,0.0,0.0,0.0,0.0,0.0,-1.1671,-1.1379,-1.1796,-1.2295,0.0,0.0,-1.2064,-1.2044,-1.2913,-1.2428,-0.905,0.0,0.0,0.0,0.0,0.0,0.0,0.0,0.0,0.0,0.0,0.0,0.0,0.0,0.0,0.0,0.0,0.0,0.0,0.0,0.0,0.0,0.0,0.0,0.0,0.0,0.0,0.0,0.0,0.0,0.0,0.0,0.0,0.0,0.0,0.0,0.0,0.0,0.0,0.0,0.0,0.0,0.0,0.0,0.0,0.0,0.0,0.0,0.0,0.0,0.0,0.0,0.0,0.0,-0.3643,-0.3998,-0.3519,-0.2531,-0.1139,-0.1073,-0.1339,-0.2076,-0.421,-0.3899,0.0,0.0,0.0,0.0,0.0,0.0,0.0,0.0,0.0,0.0,0.0,0.0,0.0,0.0,0.0,0.0,0.0,0.0,0.0,0.0,0.0,0.0,0.0,0.0,0.0,0.0,0.0,0.0,-0.5,-0.5131,-0.488,0.0,0.0,0.0,0.0,0.0,0.0,0.0,0.0,0.0,0.0,-1.1631,-1.2827,-1.3034,0.0,0.0,-1.3291,-1.293,-1.2666,-1.3381,-1.2715,-0.8958,-0.7713,0.0,0.0,0.0,0.0,0.0,0.0,0.0,0.0,0.0,0.0,0.0,0.0,0.0,0.0,0.0,0.0,0.0,0.0,0.0,0.0,0.0,0.0,0.0,0.0,0.0,0.0,0.0,0.0,0.0,0.0,0.0,0.0,0.0,0.0,0.0,0.0,0.0,0.0,0.0,0.0,0.0,0.0,0.0,0.0,0.0,0.0,0.0,0.0,0.0,0.0,0.0,0.0,-0.3175,-0.4006,-0.3244,-0.1967,0.0,0.0,0.0,0.0,-0.2433,-0.2605,0.0,0.0,0.0,0.0,0.0,0.0,0.0,0.0,0.0,0.0,0.0,0.0,0.0,0.0,0.0,0.0,0.0,0.0,0.0,0.0,0.0,0.0,0.0,0.0,0.0,0.0,0.0,0.0,-0.5831,-0.5693,-0.5066,0.0,0.0,0.0,0.0,0.0,0.0,0.0,0.0,0.0,0.0,-1.2539,-1.3609,-1.3521,-1.3418,-1.3721,-1.3281,-1.2774,-1.2387,-1.3127,-1.2433,-0.8664,0.0,0.0,0.0,0.0,0.0,0.0,0.0,0.0,0.0,0.0,0.0,0.0,0.0,0.0,0.0,0.0,0.0,0.0,0.0,0.0,0.0,0.0,0.0,0.0,0.0,0.0,0.0,0.0,0.0,0.0,-0.1775,0.0,0.0,0.0,0.0,0.0,0.0,0.0,0.0,0.0,0.0,0.0,0.0,0.0,0.0,0.0,0.0,0.0,0.0,0.0,0.0,0.0,0.0,-0.2537,-0.3924,-0.4219,-0.2993,0.0,0.0,0.0,0.0,0.0,0.0,0.0,0.0,0.0,0.0,0.0,0.0,0.0,0.0,0.0,0.0,0.0,0.0,0.0,0.0,0.0,0.0,0.0,0.0,0.0,0.0,0.0,0.0,0.0,0.0,0.0,0.0,0.0,-0.5867,-0.5419,-0.5049,0.0,0.0,0.0,0.0,0.0,0.0,0.0,0.0,0.0,0.0,-1.2634,-1.4671,-1.3135,-1.29,-1.2871,-1.2949,-1.2217,-1.1533,-1.1189,-1.2106,-1.1753,0.0,0.0,0.0,0.0,0.0,0.0,0.0,0.0,0.0,0.0,0.0,0.0,0.0,0.0,0.0,0.0,0.0,0.0,0.0,0.0,0.0,0.0,0.0,0.0,0.0,0.0,0.0,-0.1213,-0.1203,0.0,0.0,0.0,0.0,0.0,0.0,0.0,0.0,0.0,0.0,0.0,-0.1494,-0.1082,0.0,0.0,0.0,0.0,0.0,0.0,0.0,0.0,0.0,0.0,0.0,0.0,-0.1837,-0.1981,-0.3649,-0.3056,0.0,0.0,0.0,0.0,0.0,0.0,0.0,0.0,0.0,0.0,0.0,0.0,0.0,0.0,0.0,0.0,0.0,0.0,0.0,0.0,0.0,0.0,0.0,0.0,0.0,0.0,0.0,0.0,0.0,0.0,0.0,0.0,-0.4847,0.0,0.0,0.0,0.0,0.0,0.0,0.0,0.0,0.0,0.0,0.0,-0.6363,-0.9449,-1.1474,-1.2513,-1.2307,-1.1999,-1.2072,0.0,0.0,0.0,0.0,0.0,0.0,0.0,0.0,0.0,0.0,0.0,0.0,0.0,0.0,-0.9056,-0.6425,-0.67,-0.7336,-0.7427,0.0,0.0,0.0,0.0,0.0,0.0,0.0,0.0,0.0,0.0,0.0,0.0,0.0,0.0,-0.0984,0.0,-0.0599,0.0,0.0,0.0,0.0,0.0,0.0,0.0,0.0,-0.3017,-0.2393,-0.1181,-0.0794,-0.0566,0.0,-0.0582,-0.0819,0.0,0.0,0.0,0.0,0.0,0.0,0.0,0.0,-0.1509,-0.1011,-0.2222,-0.1992,0.0,0.0,0.0,0.0,-0.1039,-0.1568,-0.1538,-0.0543,0.0,0.0,0.0,0.0,0.0,0.0,0.0,0.0,0.0,0.0,0.0,0.0,0.0,0.0,0.0,0.0,0.0,0.0,0.0,0.0,0.0,0.0,0.0,0.0,-0.5012,0.0,0.0,0.0,0.0,0.0,0.0,0.0,0.0,0.0,-0.5072,-0.5673,-0.7064,-0.9334,-1.088,-1.1846,-1.2052,0.0,0.0,0.0,0.0,0.0,0.0,0.0,-0.9803,-0.8102,-0.9505,-0.9925,-0.7222,-0.8129,-0.9905,-1.1779,0.0,0.0,-0.8234,-0.8458,-0.9068,-0.918,-0.9502,-0.9758,-0.9668,-0.8913,-0.818,0.0,0.0,0.0,0.0,0.0,0.0,0.0,0.0,-0.1697,-0.1044,0.0,0.0,0.0,0.0,0.0,0.0,0.0,-0.1194,0.0,0.0,-0.4007,-0.336,0.0,0.0,0.0,0.0,0.0,0.0,0.0,-0.0611,0.0,0.0,0.0,0.0,0.0,0.0,-0.1539,-0.0962,-0.0412,0.0,0.0,0.0,0.0,0.0,-0.2915,-0.4395,-0.4337,-0.1683,0.0,0.0,0.0,0.0,0.0,0.0,0.0,0.0,0.0,0.0,0.0,0.0,0.0,0.0,0.0,0.0,0.0,0.0,0.0,0.0,0.0,0.0,0.0,-0.4751,0.0,0.0,0.0,0.0,0.0,0.0,0.0,0.0,0.0,0.0,-0.5067,-0.6667,-0.813,-0.8456,0.0,0.0,0.0,0.0,-1.2101,-1.0302,-0.9959,-0.9692,-0.9106,-0.9709,-0.9784,-0.8342,0.0,0.0,-1.0326,-1.1771,-1.3111,-1.5002,-1.3669,-1.1999,-1.0775,-1.0312,-1.02,-1.0446,-1.0634,-1.0723,-1.0952,-1.0803,-1.048,0.2919,0.0,0.0,0.0,0.0,0.0,-0.0221,-0.0509,-0.0498,-0.0364,0.0,0.0,0.0,0.0,0.0,0.0,0.0,0.0,-0.1162,-0.0546,-0.1261,-0.0983,0.0,0.0,0.0,0.0,0.0,0.0,0.0,-0.0183,-0.035,-0.0516,0.0,0.0,0.0,0.0,-0.2127,-0.1504,-0.0548,0.0,0.0,0.0,0.0,0.0,-0.2913,-0.4495,-0.446,-0.3663,-0.2202,0.0,0.0,0.0,0.0,0.0,0.0,0.0,0.0,0.0,0.0,0.0,0.0,0.0,0.0,0.0,0.0,0.0,0.0,0.0,0.0,0.0,-0.4126,-0.4821,-0.4998,0.0,0.0,0.0,0.0,0.0,0.0,0.0,0.0,0.0,-0.644,-0.9321,-1.1054,0.0,0.0,-1.0094,-1.0627,-1.0277,-1.0296,-1.1189,-1.0761,0.0,-1.2249,-1.1242,-1.0549,-1.1182,-1.0598,-1.088,-1.3559,-1.3405,-1.3417,-1.5089,-1.4446,-1.3681,-1.39,-1.3389,-1.2922,-1.3013,-1.3053,-1.3103,-1.3173,-1.326,-1.3258,0.4774,0.2373,0.1082,0.0341,0.0,0.0,0.0,0.0,0.0,0.0,0.0,0.0,0.0,0.0,0.0,0.0,0.0,0.0,-0.0688,0.0,0.0,0.0,0.0,0.0,0.0,0.0,0.0,0.0,0.0,0.0,0.0,0.0,0.0,0.0,-0.1104,-0.1424,-0.1818,-0.206,-0.0753,0.0,0.0,0.0,0.0,0.0,-0.2335,-0.3857,-0.4436,-0.4466,-0.3669,-0.1879,-0.0656,0.0,0.0,0.0,0.0,0.0,0.0,0.0,0.0,0.0,0.0,0.0,0.0,-0.1974,0.0,0.0,0.0,0.0,-0.2843,-0.3836,-0.472,-0.494,0.0,0.0,0.0,0.0,0.0,0.0,0.0,-0.63,-0.7629,-0.8082,-0.6895,-0.9889,-1.2125,-1.1868,-1.0589,-1.0132,-1.1248,0.0,-1.059,-1.1394,-1.1038,-1.1122,-1.2517,-1.2094,-1.2044,-1.3533,-1.2692,-1.2721,-1.4869,-1.356,-1.2445,-1.3236,-1.3588,-1.3957,-1.466,-1.4373,-1.424,-1.4528,-1.4639,-1.4639,-1.4639,-1.4798,-1.4864,0.6285,0.5986,0.2147,0.0453,0.0272,0.0,0.0,0.0228,0.0,0.0225,0.022,0.0225,0.0142,0.0,0.0,0.0,0.0,0.0,0.0,0.0,0.0,0.0,0.0,0.0,0.0,0.0,0.0,0.0,0.0,0.0,0.0,0.0,0.0,0.0,0.0,0.0,-0.0856,-0.2432,-0.0836,0.0,0.0,0.0,0.0,0.0,-0.1436,-0.2898,-0.4392,-0.4473,-0.4457,-0.4372,-0.1772,-0.0173,0.0,0.0,0.0,0.0,0.0,0.0,0.0,0.0,0.0,0.0,0.0,0.0,0.0,0.0,0.0,0.0,-0.3313,0.0,-0.5681,-0.5221,0.0,0.0,0.0,-0.6145,-0.6976,-0.7401,-0.7732,-0.7923,0.0,0.0,-0.677,-0.9225,-1.1873,-1.3735,-1.2414,-1.1737,-1.3079,-1.2718,-1.2112,-1.1238,-1.1041,-1.1077,-1.1497,-1.2484,-1.3522,-1.4338,-1.3862,-1.349,-1.438,-1.2716,-1.0798,-1.1002,-1.1936,-1.3114,-1.3665,-1.3903,-1.4392,-1.5206,-1.5391,-1.5391,-1.5352,-1.5342,-1.5332,0.6424,0.6396,0.5243,0.3887,0.2339,0.2355,0.2377,0.2401,0.2325,0.2393,0.2382,0.2396,0.1526,0.0,0.0,0.0,0.0,0.0,0.0,0.0,0.0,0.1728,0.457,0.1492,0.0,0.0,0.0,0.0,0.0,0.0,0.0,0.0,0.0,0.0,0.0,0.0,-0.0234,-0.0631,-0.0189,0.0,0.0,0.0,0.0,0.0,-0.1405,-0.2905,-0.4448,-0.4372,-0.4347,-0.4425,-0.2944,-0.1441,0.0,0.0,0.0,0.0,0.0,0.0,0.0,0.0,0.0,0.0,0.0,-0.1898,-0.1476,0.0,-0.1964,0.0,-0.3917,-0.5898,-0.6607,-0.6765,0.0,0.0,-0.6996,-0.7238,-0.7666,-0.8373,-0.8651,-0.8308,-0.9289,-0.9728,-0.8993,-0.9562,-1.0725,-1.2422,-1.1754,-1.1271,-1.2121,-1.194,-1.1783,-1.1999,-1.199,-1.2256,-1.2804,-1.3506,-1.338,-1.1955,-1.2437,-1.2728,-1.1912,-1.12,-1.0849,-1.1643,-1.1927,-1.2381,-1.3045,-1.3243,-1.3838,-1.5025,-1.539,-1.542,-1.542,-1.542,-1.542,0.6536,0.6468,0.6393,0.5686,0.453,0.4538,0.4543,0.4543,0.4543,0.4543,0.4543,0.4543,0.3915,0.274,0.1799,0.1407,0.1409,0.1409,0.1409,0.1409,0.1409,0.2665,0.4794,0.3452,0.1802,0.0,0.0,0.0,0.0,0.0,0.0,0.0,0.0,0.0,0.0,0.0,0.0,0.0,0.0,0.0,0.0,0.0,0.0,0.0,-0.0767,-0.2257,-0.4383,-0.4402,-0.4208,-0.3866,-0.3629,-0.2927,-0.1666,-0.0584,0.0,0.0,0.0,0.0,0.0,0.0,0.0,0.0,0.0,0.0,0.0,0.0,-0.2321,-0.2154,-0.5553,-0.746,-0.6699,-0.7122,-0.7511,-0.7762,-0.8076,-0.8424,-0.8805,-0.9452,-0.9706,-0.9392,-1.014,-1.0619,-1.049,-1.0702,-1.1166,-1.2204,-1.1826,-1.1788,-1.2473,-1.2197,-1.1952,-1.2318,-1.2374,-1.2425,-1.302,-1.2939,-1.241,-1.1032,-1.1298,-1.164,-1.0774,-1.058,-1.0795,-1.1365,-1.1365,-1.1392,-1.1835,-1.2227,-1.2903,-1.3942,-1.4336,-1.4579,-1.5235,-1.542,-1.542,0.6654,0.6532,0.6508,0.6427,0.6318,0.6315,0.6308,0.6288,0.6291,0.6288,0.6288,0.6291,0.6291,0.621,0.4307,0.3517,0.3519,0.3521,0.3521,0.3519,0.3517,0.3517,0.3593,0.5416,0.4389,0.0861,0.0235,0.0,0.0,0.0,0.0,0.0,0.0,0.0,0.0,0.0,0.0,0.0,0.0,0.0,0.0,0.0,0.0,0.0,0.0,-0.1243,-0.3798,-0.4107,-0.3924,-0.3351,-0.3936,-0.3925,-0.3176,-0.1439,-0.0321,0.0,0.0,0.0,0.0,0.0,0.0,0.0,0.0,0.0,0.0,-0.2845,-0.3184,-0.3755,-0.704,-0.8399,-0.6611,-0.7085,-0.7828,-0.8691,-0.9121,-0.9568,-1.016,-1.049,-1.0658,-1.0661,-1.1169,-1.1478,-1.1408,-1.1964,-1.2298,-1.2291,-1.2238,-1.2514,-1.3194,-1.275,-1.2258,-1.2305,-1.2305,-1.2345,-1.2356,-1.1884,-1.1288,-1.076,-1.0685,-1.0568,-1.0618,-1.0618,-1.0618,-1.0618,-1.0681,-1.0647,-1.0594,-1.1217,-1.1881,-1.2557,-1.2801,-1.3364,-1.4715,-1.5001,-1.5177,0.6868,0.6831,0.6705,0.6641,0.661,0.6491,0.6373,0.6268,0.6268,0.6268,0.6268,0.6264,0.6271,0.6278,0.5889,0.5665,0.5683,0.5689,0.5689,0.568,0.568,0.5668,0.5721,0.6129,0.5892,0.4932,0.1642,0.0,0.0,0.0,0.0,0.0,0.0,0.0,0.0,0.0,0.0,0.0,0.0,0.0,0.0,0.0,0.0,0.0,0.0,0.0,-0.0857,-0.2019,-0.3146,-0.4152,-0.3458,0.0,0.0,0.0,0.0,0.0,0.0,0.0,0.0,0.0,0.0,0.0,-0.2917,-0.3184,-0.2567,-0.3509,-0.4397,-0.4918,-0.5765,-0.6683,-0.7756,-0.8253,-0.8593,-0.8819,-0.9695,-1.0448,-1.0775,-1.0894,-1.1019,-1.1216,-1.1546,-1.1737,-1.1653,-1.2012,-1.2298,-1.2305,-1.2305,-1.2372,-1.2519,-1.2452,-1.2305,-1.2305,-1.2305,-1.2298,-1.2265,-1.1784,-1.1191,-1.0714,-1.0621,-1.0588,-1.0618,-1.0618,-1.0618,-1.0618,-1.0618,-1.0618,-1.0584,-1.0724,-1.0961,-1.1043,-1.1581,-1.2466,-1.377,-1.3726,-1.383,0.6993,0.0,0.6844,0.677,0.0,0.6617,0.6546,0.6468,0.6322,0.6261,0.6261,0.6261,0.6264,0.6271,0.6278,0.6285,0.6295,0.6305,0.6298,0.6295,0.6298,0.6285,0.6271,0.6274,0.6274,0.62,0.4151,0.2035,0.0,0.0,0.0,0.0,0.0,0.0,0.0,0.0,0.0,0.0,0.0,0.0,0.0,0.0,0.0,0.0,0.0,0.0,0.0,0.0,0.0,0.0,0.0,0.0,0.0,0.0,0.0,0.0,0.0,-0.067,-0.2073,-0.2372,-0.2641,-0.3167,-0.3862,-0.3949,-0.3236,-0.4018,-0.4714,-0.5152,-0.5315,-0.5811,-0.671,-0.7787,-0.8422,-0.8433,-0.9034,-0.9443,-0.962,-0.965,-0.9952,-1.0598,-1.0924,-1.1261,-1.1675,-1.2038,-1.2291,-1.2305,-1.2305,-1.2305,-1.2305,-1.2305,-1.2305,-1.2305,-1.2305,-1.2238,-1.1998,-1.166,-1.1213,-1.0747,-1.062,-1.0588,-1.0618,-1.0618,-1.0618,-1.0618,-1.0618,-1.0618,-1.0618,-1.0618,-1.0598,-1.0613,-1.094,-1.1358,-1.215,-1.2605,-1.2915,0.7071,0.6966,0.6966,0.6895,0.6776,0.6753,0.6725,0.6681,0.0,0.0,0.0,0.6261,0.6261,0.6261,0.6264,0.6264,0.6264,0.6268,0.6264,0.6264,0.6264,0.6261,0.6261,0.6261,0.6264,0.6274,0.6285,0.4309,0.0626,0.0157,0.0,0.0,0.0,0.0,0.0,0.0,0.0369,0.1035,0.0396,0.0,0.0,0.0,0.0,0.0,0.0,0.0,0.0,0.0,0.0,0.0,0.0,-0.0445,-0.1388,-0.053,0.0,0.0,-0.0498,-0.1853,-0.4287,-0.4481,-0.443,-0.4298,-0.4474,-0.4477,-0.4229,-0.4439,-0.4696,-0.5085,-0.5276,-0.5375,-0.5425,-0.6863,-0.7821,-0.7826,-0.8086,-0.8298,-0.8348,-0.8419,-0.8891,-0.9667,-1.0073,-1.0484,-1.131,-1.1646,-1.1942,-1.1942,-1.18,-1.1861,-1.1855,-1.2003,-1.2305,-1.2305,-1.2305,-1.2198,-1.1832,-1.1547,-1.118,-1.0685,-1.0613,-1.0561,-1.0618,-1.0618,-1.0618,-1.0618,-1.0618,-1.0618,-1.0618,-1.0618,-1.0618,-1.0618,-1.0618,-1.0618,-1.0681,-1.1663,-1.215,0.7126,0.7112,0.7112,0.7099,0.7068,0.6949,0.6824,0.6685,0.6519,0.6373,0.6261,0.6261,0.6261,0.6261,0.6271,0.6274,0.6274,0.6285,0.6285,0.6274,0.6274,0.6271,0.6261,0.6261,0.6261,0.6264,0.6274,0.509,0.2734,0.086,0.0,0.0,0.0,0.0,0.0,0.0,0.177,0.5238,0.1835,0.0,0.0,0.0,0.0,0.0,0.0,0.0,0.0,0.0,0.0,0.0,0.0,-0.009,0.0,0.0,0.0,0.0,-0.2421,-0.4093,-0.4455,-0.4471,-0.4556,-0.4727,-0.4877,-0.5016,-0.4982,-0.4902,-0.5008,-0.5311,-0.5384,-0.5394,-0.5491,-0.64,-0.7022,-0.7107,-0.7817,-0.8428,-0.8586,-0.8635,-0.8807,-0.9293,-0.9401,-0.9734,-1.0421,-1.0611,-1.0634,-1.0564,-1.0622,-1.0396,-1.0282,-1.1248,-1.2157,-1.2305,-1.2305,-1.2105,-1.1605,-1.1534,-1.1106,-1.0665,-1.0599,-1.0618,-1.0618,-1.0618,-1.0618,-1.0618,-1.0618,-1.0618,-1.0618,-1.0618,-1.0618,-1.0618,-1.0618,-1.0618,-1.0618,-1.0926,-1.1156,0.7139,0.7139,0.7139,0.7139,0.7136,0.7071,0.6959,0.682,0.6753,0.659,0.6373,0.6373,0.6261,0.6261,0.6264,0.6268,0.6268,0.6271,0.6274,0.6268,0.6271,0.6264,0.6261,0.6261,0.6261,0.6261,0.6271,0.5802,0.4696,0.2657,0.1094,0.0,0.0,0.0,0.0,0.2277,0.4387,0.6217,0.4109,0.2469,0.1482,0.1467,0.0984,0.0,0.0,0.0,0.0,0.0,0.0,0.0,0.0,0.0,0.0,0.0,-0.0705,-0.2314,-0.3747,-0.4464,-0.4508,-0.458,-0.4701,-0.4921,-0.5057,-0.5169,-0.5254,-0.5192,-0.5215,-0.5355,-0.5428,-0.5428,-0.5432,-0.5898,-0.6199,-0.6199,-0.6769,-0.7102,-0.7261,-0.736,-0.7748,-0.8367,-0.8475,-0.8951,-1.0127,-0.9954,-0.9544,-0.9377,-0.9463,-0.9625,-0.9301,-1.0051,-1.0651,-1.0645,-1.0645,-1.0535,-1.022,-1.0401,-1.0567,-1.059,-1.0561,-1.0581,-1.0618,-1.0618,-1.0618,-1.0618,-1.0618,-1.0618,-1.0555,-1.0618,-1.0618,-1.0618,-1.0618,-1.0618,-1.0618,-1.0618,-1.0744,0.7139,0.7139,0.7139,0.7139,0.7139,0.7139,0.7078,0.6976,0.6939,0.6797,0.6573,0.6424,0.6342,0.6308,0.6386,0.6366,0.6261,0.6261,0.6261,0.6261,0.6261,0.6261,0.6261,0.6261,0.6261,0.6261,0.6268,0.6274,0.6116,0.4616,0.3042,0.0,0.1407,0.1409,0.1488,0.4641,0.6322,0.622,0.5819,0.487,0.3385,0.3293,0.2629,0.1338,0.0,0.0,0.0,0.0,0.0,0.0,0.0,0.0,0.0,0.0,-0.1072,-0.3223,-0.4155,-0.4552,-0.4602,-0.4718,-0.4891,-0.5108,-0.5162,-0.5233,-0.5342,-0.5428,-0.5428,-0.5428,-0.5428,-0.5442,-0.5497,-0.5621,-0.565,-0.5694,-0.5922,-0.6149,-0.6095,-0.619,-0.6563,-0.7326,-0.748,-0.7949,-0.8956,-0.8941,-0.838,-0.8058,-0.8295,-0.8618,-0.8618,-0.8618,-0.8618,-0.8689,-0.8993,-0.9275,-0.8905,-0.9241,-0.973,-1.0043,-1.0183,-1.0354,-1.0494,-1.0575,-1.0618,-1.0618,-1.0618,-1.0428,-1.0364,-1.0238,-1.0104,-0.9907,-0.997,-1.0301,-1.0561,-1.0555,-1.0624,0.7143,0.7139,0.7139,0.7139,0.7139,0.7139,0.7129,0.7102,0.6987,0.6919,0.6865,0.6729,0.658,0.6464,0.6447,0.638,0.6264,0.6261,0.6261,0.6261,0.6261,0.6261,0.6261,0.6261,0.6261,0.6261,0.6261,0.6268,0.6274,0.6038,0.5883,0.5733,0.5736,0.5578,0.5736,0.6058,0.6295,0.6281,0.6273,0.5889,0.524,0.5105,0.5046,0.4852,0.1737,0.0,0.0,0.0,0.0,0.0,0.0,0.0,0.0,0.0,0.0,0.0,-0.2944,-0.4546,-0.4719,-0.4961,-0.5041,-0.5138,-0.526,-0.5408,-0.5428,-0.5428,-0.5428,-0.5439,-0.5435,-0.5497,-0.5696,-0.5768,-0.583,-0.5942,-0.6115,-0.6237,-0.6234,-0.6251,-0.6338,-0.6412,-0.6567,-0.649,-0.6876,-0.6872,-0.6718,-0.6707,-0.6865,-0.6945,-0.6945,-0.6868,-0.6872,-0.7022,-0.8012,-0.8905,-0.8719,-0.8782,-0.8786,-0.8601,-0.9153,-0.9771,-1.0316,-1.0544,-1.0555,-1.0104,-1.0358,-1.0104,-0.9658,-0.9396,-0.9134,-0.8871,-0.9069,-0.9594,-1.0301,-1.0498,-1.0434,0.9328,0.9139,0.8452,0.7753,0.7139,0.7139,0.7139,0.7132,0.7078,0.7054,0.7044,0.6987,0.6783,0.6481,0.6474,0.6393,0.6342,0.6261,0.6261,0.6261,0.6261,0.6261,0.6261,0.6261,0.6261,0.6261,0.6261,0.6264,0.6268,0.6268,0.6271,0.6274,0.6281,0.6285,0.6285,0.6285,0.6281,0.6274,0.629,0.6105,0.5798,0.558,0.5463,0.5269,0.3961,0.2078,0.0,0.0,0.0,0.0,0.0,0.0,0.0,0.0,0.0,0.0,-0.112,-0.2234,-0.3218,-0.429,-0.5071,-0.5281,-0.5345,-0.5379,-0.5382,-0.5382,-0.5413,-0.543,-0.5573,-0.5668,-0.5814,-0.5871,-0.5962,-0.6037,-0.6166,-0.6261,-0.6261,-0.6261,-0.6261,-0.6261,-0.6261,-0.6261,-0.6261,-0.6261,-0.6261,-0.6261,-0.6261,-0.6261,-0.6261,-0.6261,-0.6261,-0.6412,-0.7099,-0.7379,-0.743,-0.7595,-0.7789,-0.8046,-0.856,-0.9355,-1.0154,-0.9872,-0.942,-0.9134,-0.9192,-0.9064,-0.8613,-0.8549,-0.8355,-0.8091,-0.8161,-0.8753,-0.9426,-0.9554,-0.9554,1.0901,1.0539,0.9666,0.8886,0.8097,0.8097,0.7834,0.7577,0.7577,0.7401,0.7139,0.7139,0.6915,0.6569,0.6536,0.6437,0.6278,0.6261,0.6261,0.6261,0.6261,0.6261,0.6261,0.6261,0.6261,0.6261,0.6261,0.6261,0.6261,0.6261,0.6261,0.6261,0.6271,0.6274,0.6274,0.6271,0.6274,0.6271,0.6264,0.6186,0.602,0.5779,0.5583,0.5447,0.5406,0.3689,0.0,0.0,0.0,0.0,0.0,0.0,0.0,0.0,0.0,0.0,0.0,-0.0445,-0.1559,-0.2801,-0.3883,-0.4561,-0.4643,-0.4643,-0.4718,-0.5087,-0.5368,-0.5388,-0.5614,-0.5732,-0.5973,-0.5918,-0.5969,-0.6098,-0.6207,-0.6261,-0.6261,-0.6261,-0.6261,-0.6261,-0.6261,-0.6261,-0.6261,-0.6261,-0.6261,-0.6261,-0.6261,-0.6261,-0.6261,-0.6261,-0.6261,-0.6261,-0.6338,-0.6335,-0.6318,-0.6581,-0.6973,-0.7253,-0.7801,-0.852,-0.9273,-0.8457,-0.8306,-0.813,-0.7947,-0.7827,-0.7697,-0.7637,-0.7637,-0.7632,-0.7637,-0.7842,-0.8506,-0.8652,-0.8792,1.0901,1.0626,1.0519,1.0438,1.0433,1.0351,0.9749,0.8798,0.8798,0.8189,0.7228,0.7139,0.6973,0.6695,0.6692,0.6532,0.6285,0.6261,0.6261,0.6261,0.6261,0.6261,0.6261,0.6261,0.6261,0.6261,0.6261,0.6261,0.6261,0.6261,0.6261,0.6261,0.6261,0.6264,0.6261,0.6261,0.6261,0.6261,0.6261,0.619,0.6037,0.5874,0.5644,0.5441,0.5379,0.3749,0.0,0.0,0.0,0.0,0.0,0.0,0.0,0.0,0.0,0.0,0.0,0.0,0.0,0.0,-0.1136,-0.2477,-0.2815,-0.2813,-0.2887,-0.4054,-0.4969,-0.5418,-0.5131,-0.5259,-0.566,-0.5532,-0.567,-0.5999,-0.6264,-0.6271,-0.6264,-0.6264,-0.6261,-0.6261,-0.6264,-0.6261,-0.6261,-0.6261,-0.6261,-0.6261,-0.6261,-0.6261,-0.6261,-0.6261,-0.6261,-0.6261,-0.6261,-0.6261,-0.6325,-0.6214,-0.6145,-0.638,-0.6896,-0.7185,-0.6577,-0.6278,-0.6807,-0.7205,-0.7358,-0.7307,-0.6915,-0.6789,-0.6789,-0.6785,-0.6789,-0.7055,-0.7456,-0.8322,-0.8333,1.2809,1.1729,1.1638,1.1295,1.0611,1.0611,1.0351,0.9923,0.9235,0.8627,0.8189,0.7401,0.7031,0.6848,0.6848,0.6634,0.6281,0.6261,0.6261,0.6261,0.6261,0.6261,0.6261,0.6261,0.6261,0.6261,0.6261,0.6261,0.6261,0.6261,0.6261,0.6261,0.6261,0.6261,0.6261,0.6261,0.6261,0.6261,0.6261,0.623,0.6156,0.5932,0.5776,0.5644,0.5501,0.4764,0.348,0.1272,0.0,0.0,0.0,0.0,0.0,0.0,0.0,0.0,0.0,0.0,0.0,0.0,-0.0269,-0.0806,-0.0941,0.0,-0.108,-0.1655,-0.2826,-0.4408,-0.3113,-0.2203,0.0,-0.3326,-0.411,-0.437,-0.5488,-0.6207,-0.6285,-0.6281,-0.6281,-0.6285,-0.6281,-0.6278,-0.6268,-0.6268,-0.6268,-0.6261,-0.6261,-0.6261,-0.6261,-0.6261,-0.6261,-0.6261,-0.6261,-0.6261,-0.6257,-0.6034,-0.5916,-0.5898,-0.6044,-0.6079,-0.5741,-0.5727,-0.6125,-0.6256,-0.6531,-0.6531,-0.6075,-0.6075,-0.6009,-0.6009,-0.6009,-0.6141,-0.6276,-0.6942,-0.6942,1.4073,1.2973,1.2857,1.2425,1.1735,1.1735,1.1472,1.1128,1.0351,0.9575,0.8798,0.8013,0.7407,0.6943,0.6929,0.6712,0.6356,0.6329,0.6535,0.6721,0.649,0.649,0.6721,0.6416,0.6261,0.6261,0.6261,0.6261,0.6261,0.6261,0.6261,0.6261,0.6261,0.6261,0.6261,0.6261,0.6261,0.6261,0.6261,0.6261,0.6304,0.601,0.5847,0.5776,0.5569,0.5423,0.5379,0.3011,0.1405,0.0938,0.0336,0.0,0.0,0.0,0.0,0.0,0.0,0.0,0.0,0.0,0.0,0.0,0.0,0.0,0.0,0.0,0.0,-0.2488,0.0,0.0,0.0,-0.1331,-0.2111,-0.2344,-0.3995,-0.5185,-0.5257,-0.5257,-0.5176,-0.5257,-0.5892,-0.6207,-0.6278,-0.6278,-0.6278,-0.6271,-0.6274,-0.6271,-0.6271,-0.6271,-0.6271,-0.6271,-0.6271,-0.6271,-0.6307,-0.6115,-0.5791,-0.5766,-0.5714,-0.5494,-0.5428,-0.5428,-0.5428,-0.5428,-0.5428,-0.5428,-0.5428,-0.5428,-0.5428,-0.5428,-0.5491,-0.5686,-0.569,-0.5557,-0.5756,1.4355,1.401,1.4088,1.3913,1.3822,1.3737,1.3294,1.2419,1.2157,1.095,0.9405,0.8973,0.8277,0.7304,0.7379,0.6937,0.6852,0.6878,0.7092,0.7565,0.6872,0.7022,0.7706,0.7022,0.6641,0.6641,0.6412,0.6412,0.6567,0.6641,0.6563,0.6331,0.6409,0.6409,0.6257,0.6257,0.6261,0.6261,0.6261,0.6261,0.624,0.6095,0.5942,0.5806,0.565,0.5511,0.5382,0.5176,0.4225,0.2744,0.1205,0.0134,0.0,0.0,0.0,0.0,0.0,0.0,0.0,0.0,0.0,0.0,0.0,0.0,0.0,0.0,0.0,0.0,0.0,0.0,0.0,0.0,0.0,-0.0235,-0.2037,-0.3057,-0.3129,-0.3125,-0.3124,-0.3359,-0.4467,-0.6054,-0.6217,-0.5655,-0.5335,-0.541,-0.573,-0.5808,-0.573,-0.573,-0.6054,-0.6054,-0.573,-0.5485,-0.587,-0.6218,-0.5932,-0.5639,-0.5549,-0.5369,-0.5432,-0.5432,-0.5432,-0.5432,-0.5428,-0.5428,-0.5428,-0.5428,-0.5428,-0.5428,-0.5428,-0.5428,-0.5428,-0.5428,-0.5428,1.4349,1.4102,1.4088,1.4088,1.4088,1.4088,1.3828,1.3464,1.2674,1.1901,1.1214,1.0443,0.9798,0.9493,0.9479,0.9333,0.9165,0.8937,0.8467,0.7983,0.8165,0.8466,0.8689,0.8542,0.8389,0.8389,0.8385,0.8389,0.8313,0.8309,0.7749,0.6641,0.6992,0.6927,0.6451,0.6321,0.6261,0.6261,0.6261,0.6261,0.6247,0.6112,0.6033,0.6104,0.5811,0.559,0.5382,0.5376,0.5106,0.4498,0.4028,0.2616,0.0,0.0,0.0,0.3098,0.128,0.0,0.0,0.0,0.0,0.0,0.0,0.0,0.0,0.0,0.0,0.0,0.0,0.0,0.0,0.0,0.0,0.0,-0.0628,0.0,0.0,0.0,-0.094,-0.1017,-0.1567,-0.3136,-0.4867,-0.4311,0.0,-0.2419,-0.3281,-0.407,-0.4068,-0.407,-0.4068,-0.4068,-0.4068,-0.407,-0.4103,-0.4429,-0.4646,-0.4896,-0.5129,-0.5366,-0.5413,-0.5372,-0.5369,-0.5435,-0.5432,-0.5428,-0.5428,-0.5428,-0.5428,-0.5428,-0.5428,-0.5428,-0.5428,-0.5428,-0.5432,1.4516,1.4249,1.4135,1.4088,1.4088,1.4088,1.4088,1.3997,1.3294,1.2766,1.2157,1.1558,1.095,1.0697,1.0611,1.0479,1.0424,1.0453,0.9989,0.9135,0.9094,0.9448,0.9669,0.9448,0.9296,0.9296,0.9296,0.9296,0.9296,0.9296,0.8652,0.7782,0.8053,0.8071,0.7431,0.7141,0.7011,0.6868,0.6953,0.6802,0.6398,0.6166,0.6193,0.62,0.595,0.572,0.5403,0.5386,0.5426,0.5389,0.5382,0.4231,0.2144,0.0,0.1607,0.4108,0.3435,0.0,0.1139,0.0,0.1008,0.0941,0.0403,0.0,0.0,0.0,0.0,0.0,0.0,0.0,0.0,0.0,0.0,0.0,0.0,0.0,0.0,0.0,0.0,0.0,0.0,0.0,-0.2352,0.0,0.0,0.0,-0.1094,-0.1955,-0.1955,-0.1956,0.0,0.0,-0.1957,-0.1956,-0.203,-0.2465,-0.3183,-0.3836,-0.4577,-0.5095,-0.5368,-0.5423,-0.5386,-0.5382,-0.5379,-0.5372,-0.5369,-0.5428,-0.5428,-0.5428,-0.5432,-0.5432,-0.5369,-0.5376,-0.5382,1.4783,1.4496,1.4208,1.4088,1.4088,1.4088,1.4088,1.4088,1.3997,1.347,1.2589,1.2419,1.1901,1.1042,1.1214,1.1182,1.095,1.1508,1.183,1.1319,1.0709,1.0479,1.0714,1.0196,0.99,0.975,0.9674,0.9674,0.982,0.9825,0.9448,0.9513,0.9437,0.9453,0.9291,0.8812,0.8134,0.7706,0.803,0.7573,0.6416,0.6254,0.6252,0.6261,0.6152,0.5871,0.5574,0.5507,0.5436,0.5389,0.5372,0.5246,0.4637,0.2072,0.2274,0.5256,0.5329,0.43,0.3215,0.2815,0.2815,0.2748,0.1608,0.0,0.0,0.0,0.0,0.0,0.0,0.0,0.0,0.0,0.0,0.0,0.0,0.0,0.0,0.0,0.0,0.0,0.0,0.0,0.0,0.0,0.0,0.0,0.0,0.0,0.0,0.0,0.0,0.0,0.0,0.0,0.0,-0.1323,-0.1917,-0.2197,0.0,0.0,0.0,0.0,0.0,-0.4715,-0.4852,-0.5046,-0.5376,-0.5372,-0.5369,-0.5369,-0.5372,-0.5376,-0.5106,-0.4837,-0.4637,1.479,1.4496,1.4208,1.4088,1.4088,1.4088,1.4088,1.4088,1.4173,1.4075,1.3639,1.3646,1.3548,1.3215,1.3203,1.3568,1.3946,1.3853,1.4285,1.4699,1.4094,1.2865,1.2131,1.1626,1.1477,1.1403,1.1323,1.1471,1.1545,1.1329,1.1403,1.1477,1.072,1.0749,1.1241,1.0315,0.9089,0.8012,0.8106,0.765,0.6567,0.6338,0.6263,0.6282,0.6268,0.6166,0.6047,0.5717,0.5518,0.5376,0.5428,0.5372,0.5309,0.4356,0.4223,0.5043,0.5389,0.5252,0.477,0.4637,0.4643,0.4709,0.3964,0.3422,0.2079,0.2183,0.1518,0.0805,0.129,0.2895,0.3921,0.3132,0.2425,0.2111,0.1254,0.0,0.0,0.0,0.0,0.0,0.0,0.0,0.0,0.0,0.0,0.0,0.0,0.0,0.0,0.0,0.0,0.0,0.0,0.0,0.0,0.0,-0.07,-0.0621,0.0,0.0,0.0,0.0,0.0,-0.2898,-0.3109,-0.3309,-0.4584,-0.5319,-0.5319,-0.5036,-0.5386,-0.5252,-0.3956,-0.3284,-0.3218,1.5891,1.611,1.5661,1.5137,1.4901,1.5228,1.4901,1.4412,1.5061,1.5144,1.4985,1.5304,1.547,1.547,1.5477,1.5794,1.6195,1.5786,1.5777,1.5878,1.534,1.4258,1.3091,1.2586,1.2305,1.2305,1.2305,1.2231,1.2231,1.2305,1.2305,1.215,1.1694,1.18,1.2129,1.1608,1.0455,0.9296,0.8851,0.8097,0.7022,0.649,0.6304,0.6298,0.628,0.6286,0.6207,0.5905,0.561,0.5481,0.547,0.5428,0.5369,0.5369,0.5372,0.5372,0.5376,0.5379,0.5372,0.5379,0.5382,0.5382,0.5386,0.4909,0.4134,0.4089,0.3491,0.3212,0.3884,0.4916,0.5736,0.5098,0.4543,0.4307,0.3368,0.2273,0.1409,0.0,0.0,0.0,0.0,0.0,0.0,0.0,0.0,0.0,0.0,0.0,0.0,0.0,0.0,0.0,0.0,0.0,0.0,0.0,0.0,0.0,0.0,0.0,0.0,0.0,0.0,0.0,0.0,-0.1902,-0.3046,-0.3979,-0.4095,-0.4095,-0.4782,-0.4922,-0.3763,-0.2011,-0.1944,1.7375,1.8357,1.7639,1.6764,1.6108,1.6846,1.6206,1.5061,1.6363,1.6609,1.6191,1.6846,1.6935,1.7342,1.6935,1.7261,1.7479,1.7142,1.6808,1.6495,1.5863,1.4942,1.4163,1.3091,1.2806,1.2732,1.2519,1.2445,1.2519,1.2452,1.2305,1.2231,1.2224,1.2231,1.2318,1.2157,1.1768,1.064,0.982,0.8998,0.8008,0.7326,0.6846,0.6287,0.6294,0.6249,0.62,0.5985,0.5769,0.5647,0.5559,0.5443,0.5426,0.5416,0.5423,0.5423,0.543,0.541,0.5452,0.5389,0.5432,0.5432,0.5389,0.5399,0.5267,0.5345,0.5517,0.5444,0.6211,0.6103,0.6207,0.621,0.6048,0.5886,0.597,0.5251,0.3675,0.1798,0.0548,0.0,0.0,0.0,0.0,0.0,0.0,0.0,0.0,0.0,0.0,0.0,0.0,0.0,0.0,0.0,0.0,0.0,0.0,0.0,0.0,0.0,0.0,0.0,0.0,0.0,0.0,0.0,-0.0749,-0.149,0.0,-0.2616,-0.2893,-0.3775,-0.4113,-0.1816,-0.0807,1.8156,1.8349,1.7557,1.718,1.7009,1.7172,1.7017,1.6609,1.7098,1.7342,1.709,1.7261,1.7423,1.7423,1.7577,1.7738,1.8497,1.8204,1.7983,1.7937,1.682,1.6298,1.5579,1.4299,1.3882,1.3954,1.2872,1.2732,1.3025,1.2592,1.2305,1.2305,1.2305,1.2305,1.2305,1.2305,1.1842,1.0938,1.0559,0.997,0.914,0.8613,0.7821,0.6714,0.6426,0.6371,0.6263,0.6061,0.5966,0.5905,0.5796,0.5631,0.546,0.5393,0.553,0.5654,0.5513,0.547,0.5525,0.5514,0.5435,0.5466,0.5488,0.5545,0.5566,0.581,0.5969,0.6098,0.6235,0.6261,0.6271,0.6268,0.6271,0.6271,0.6268,0.6109,0.5634,0.5093,0.3992,0.2659,0.0,0.0,0.0,0.0,0.0,0.0,0.0,0.0,0.0,0.0,0.0,0.0,0.0,0.0,0.0,0.0,0.0,0.0,0.0,0.0,0.0,0.0,0.0,0.0,0.0,0.0,0.0,0.0,0.0,0.0,0.0,0.0,0.0,0.0,0.0,1.9536,1.9973,1.9201,1.855,1.823,1.863,1.8221,1.7658,1.847,1.855,1.831,1.8541,1.8868,1.8868,1.8868,1.9274,1.9506,1.9238,1.8957,1.8749,1.7925,1.7473,1.701,1.579,1.5013,1.453,1.3528,1.3171,1.2879,1.2586,1.2305,1.2305,1.2305,1.2305,1.2305,1.2305,1.2077,1.1539,1.1013,1.049,1.004,0.9518,0.9216,0.825,0.7888,0.7609,0.7314,0.7019,0.6594,0.6266,0.6054,0.5935,0.5673,0.5581,0.5728,0.5933,0.5891,0.5761,0.5731,0.562,0.5579,0.5631,0.5647,0.5744,0.5803,0.5908,0.6013,0.6139,0.6235,0.6261,0.6261,0.6261,0.6261,0.6261,0.6261,0.6261,0.6264,0.6278,0.5967,0.4696,0.0,0.0,0.0,0.0,0.0,0.0,0.0,0.0,0.0,0.0,0.0,0.0,0.0,0.0,0.0,0.0,0.0,0.0,0.0,0.0,0.0,0.0,0.0,0.0,0.0,0.0,0.0,0.0,0.0,0.0,0.0,0.0,0.0,0.0,0.0,2.0949,2.1955,2.0977,2.0079,1.9441,2.0157,1.952,1.8301,1.9756,1.9913,1.952,2.0245,2.0245,2.0489,2.0411,2.0566,2.0449,2.0041,1.9574,1.9292,1.8728,1.8228,1.7839,1.6996,1.593,1.4235,1.3745,1.331,1.2806,1.2372,1.2305,1.2305,1.2305,1.2305,1.2305,1.2305,1.2231,1.2077,1.1545,1.1168,1.0944,1.0346,1.0218,1.0246,1.0003,0.9316,0.8641,0.8008,0.7468,0.6799,0.6644,0.6263,0.6012,0.5867,0.5943,0.6255,0.6241,0.6208,0.6255,0.6154,0.6126,0.6154,0.6115,0.6118,0.6234,0.6198,0.6146,0.6194,0.6266,0.6261,0.6261,0.6261,0.6261,0.6261,0.6261,0.6261,0.6261,0.6268,0.6193,0.6119,0.541,0.4073,0.2189,0.0,0.0,0.0,0.0,0.0,0.0,0.0,0.0,0.0,0.0,0.0,0.0,0.0,0.0,0.0,0.0,0.0,0.0,0.0,0.0,0.0,0.0,0.0,0.0,0.0,0.0,0.0,0.0,0.0,0.0,0.0,0.0,2.1957,2.2422,2.1153,2.0479,2.0401,2.0566,2.0323,2.0167,2.0401,2.0489,2.0323,2.0489,2.0576,2.0576,2.0576,2.0576,2.0469,2.0166,1.9902,1.9648,1.9092,1.8643,1.8308,1.7918,1.7047,1.593,1.4728,1.381,1.3237,1.2732,1.2445,1.2305,1.2305,1.2305,1.2305,1.2305,1.2305,1.2305,1.2003,1.1922,1.1774,1.1706,1.1583,1.1721,1.1477,1.0946,0.9797,0.8637,0.8084,0.8613,0.8008,0.7167,0.678,0.6576,0.6525,0.6504,0.6574,0.6807,0.7151,0.7105,0.7522,0.7881,0.7649,0.7224,0.7126,0.6716,0.6634,0.636,0.6377,0.6261,0.6261,0.6261,0.6261,0.6261,0.6261,0.6261,0.6261,0.6261,0.6264,0.6268,0.6193,0.6045,0.4146,0.2735,0.2659,0.2584,0.0,0.0,0.0,0.0,0.0,0.0,0.0,0.0,0.0,0.0,0.0,0.0,0.0,0.0,0.0,0.0,0.0,0.0,0.0,0.0,0.0,0.0,0.0,0.0,0.0,0.0,0.0,0.0,0.0,2.2837,2.3014,2.1814,2.1011,2.0644,2.0576,2.0576,2.0576,2.0576,2.0576,2.0576,2.0576,2.0576,2.0576,2.0576,2.0576,2.0498,2.0381,2.0127,1.9834,1.9482,1.9004,1.8721,1.8418,1.7622,1.663,1.5579,1.4585,1.3738,1.331,1.2799,1.2378,1.2305,1.2305,1.2305,1.2305,1.2305,1.2305,1.2305,1.2305,1.2305,1.2305,1.2331,1.2277,1.2216,1.1683,1.0686,0.9986,0.9125,0.8817,0.8604,0.8917,0.8998,0.8694,0.8183,0.7918,0.7845,0.7944,0.8309,0.8356,0.8621,0.8915,0.863,0.8454,0.8332,0.8103,0.7553,0.7099,0.6412,0.6261,0.6261,0.6335,0.6261,0.6261,0.6261,0.6261,0.6261,0.6261,0.6261,0.6261,0.6264,0.6193,0.6041,0.509,0.4776,0.4462,0.4073,0.3052,0.172,0.1643,0.1645,0.0,0.0,0.0,0.0,0.0,0.1411,0.1096,0.1096,0.1175,0.0,0.0,0.0,0.0,0.0,0.109,0.0,0.0,0.0,0.0822,0.0,0.0,0.0,0.0,0.0,2.3748,2.3824,2.2526,2.1583,2.0934,2.0644,2.0576,2.0576,2.0576,2.0576,2.0576,2.0576,2.0576,2.0576,2.0576,2.0576,2.0576,2.0547,2.0352,2.0107,1.9893,1.9482,1.9062,1.8511,1.8088,1.7353,1.6881,1.5869,1.4458,1.4027,1.3346,1.2736,1.2391,1.2425,1.2405,1.2278,1.2291,1.2305,1.2305,1.2305,1.2305,1.2305,1.2305,1.2305,1.2305,1.1929,1.1248,1.0714,1.0248,0.9718,0.9658,1.0321,1.1721,1.1295,1.0472,0.9986,0.9685,0.9533,0.9588,0.9573,0.9739,1.0112,0.9718,0.9588,0.9357,0.9039,0.8604,0.808,0.6992,0.6468,0.663,0.6405,0.6328,0.6261,0.6261,0.6261,0.6261,0.6261,0.6261,0.6261,0.6261,0.6261,0.619,0.6112,0.5556,0.5482,0.5171,0.5015,0.391,0.3756,0.3761,0.3608,0.0,0.0,0.0,0.0,0.3287,0.2973,0.3209,0.3444,0.3207,0.0,0.4229,0.5179,0.4233,0.3049,0.3997,0.4467,0.3866,0.3288,0.3045,0.0,0.0,0.0,0.0,2.5119,2.5335,2.2993,2.1952,2.168,2.1021,2.0644,2.0576,2.0576,2.0576,2.0576,2.0576,2.0576,2.0576,2.0576,2.0576,2.0576,2.0557,2.0508,2.0371,2.0117,1.9883,1.9609,1.8936,1.8601,1.805,1.786,1.6742,1.5517,1.5092,1.4103,1.2999,1.3216,1.3194,1.2774,1.2551,1.2305,1.2305,1.2305,1.2305,1.2305,1.2305,1.2305,1.2305,1.2305,1.2224,1.1842,1.1391,1.1007,1.1533,1.0932,1.1248,1.2029,1.2177,1.209,1.1645,1.0986,1.0321,1.0571,1.064,1.087,1.1242,1.1019,1.0714,1.0335,0.9492,0.8883,0.9135,0.7563,0.6878,0.723,0.6758,0.6458,0.6321,0.6261,0.6261,0.6261,0.6261,0.6261,0.6261,0.6261,0.6261,0.6261,0.6261,0.6261,0.6264,0.6268,0.6035,0.5802,0.541,0.5093,0.4701,0.4787,0.494,0.4857,0.4854,0.4774,0.4538,0.4854,0.5251,0.4854,0.4535,0.5171,0.5727,0.4862,0.3992,0.3673,0.4144,0.5326,0.5309,0.4484,0.4889,0.0,0.4121,0.2311,2.7012,2.6637,2.4843,2.3468,2.2471,2.1717,2.1078,2.0644,2.0576,2.0576,2.0576,2.0576,2.0576,2.0566,2.0576,2.0576,2.0576,2.0576,2.0576,2.0576,2.0342,2.0146,1.9805,1.9307,1.8926,1.8613,1.8193,1.7735,1.6724,1.6088,1.5196,1.4214,1.4292,1.4434,1.3856,1.3353,1.3164,1.2952,1.2659,1.2305,1.2305,1.2305,1.2305,1.2305,1.2305,1.2305,1.215,1.1996,1.1848,1.2224,1.1768,1.1842,1.215,1.2305,1.2305,1.2231,1.18,1.1496,1.1626,1.162,1.1922,1.2077,1.1848,1.1694,1.1385,1.0387,0.9627,1.0034,0.919,0.8514,0.7918,0.7379,0.6857,0.656,0.6641,0.649,0.649,0.6335,0.6261,0.6261,0.6335,0.6331,0.6331,0.6261,0.6261,0.6261,0.6264,0.6187,0.6112,0.6038,0.5718,0.5398,0.5643,0.5964,0.5876,0.587,0.5712,0.5553,0.5553,0.5873,0.6035,0.6112,0.6274,0.6271,0.5796,0.4766,0.3585,0.4295,0.5879,0.5802,0.5559,0.5883,0.6207,0.596,0.4511,2.8733,2.7985,2.6608,2.5033,2.3613,2.2875,2.2143,2.1375,2.1385,2.1385,2.1231,2.1078,2.0857,2.0644,2.0576,2.0576,2.0576,2.0576,2.0576,2.0576,2.0537,2.0371,2.0068,1.9648,1.9287,1.8864,1.8652,1.823,1.7927,1.7445,1.6711,1.5886,1.5562,1.5754,1.5559,1.476,1.4099,1.4027,1.3164,1.2806,1.2666,1.2378,1.2305,1.2305,1.2305,1.2305,1.2305,1.2231,1.2305,1.2305,1.2224,1.2224,1.2305,1.2305,1.2305,1.2305,1.209,1.2164,1.2157,1.2157,1.2305,1.2305,1.2305,1.215,1.207,1.1292,1.0834,1.1168,1.0887,0.9906,0.8998,0.8604,0.8152,0.7698,0.7326,0.7099,0.7103,0.7257,0.733,0.7476,0.7318,0.6546,0.6472,0.6331,0.6261,0.6261,0.6261,0.6261,0.6264,0.6271,0.6109,0.5789,0.5951,0.6271,0.6268,0.6261,0.6257,0.649,0.6567,0.6416,0.6419,0.6342,0.6264,0.6261,0.6257,0.5864,0.4916,0.5634,0.6274,0.6109,0.5951,0.6116,0.6274,0.6274,0.6197,2.9729,2.9474,2.74,2.6205,2.546,2.4585,2.3779,2.3084,2.3158,2.3073,2.2776,2.2253,2.1298,2.0789,2.0576,2.0576,2.0576,2.0576,2.0576,2.0576,2.0557,2.0518,2.0293,2.0039,1.9785,1.9658,1.9209,1.8838,1.8592,1.8356,1.8023,1.7773,1.6821,1.7121,1.6842,1.5842,1.5021,1.4736,1.4027,1.3673,1.3302,1.2858,1.2331,1.2271,1.2285,1.2298,1.2305,1.2372,1.2378,1.2378,1.2445,1.2305,1.2378,1.2305,1.2305,1.2305,1.2305,1.2305,1.2305,1.2305,1.2305,1.2305,1.2305,1.2305,1.2224,1.2305,1.215,1.2003,1.1793,1.149,1.0714,1.0243,0.9427,0.8761,0.8237,0.8237,0.8318,0.8713,0.8784,0.8841,0.8376,0.7532,0.7003,0.6865,0.6416,0.6416,0.6261,0.6261,0.6261,0.6264,0.6264,0.618,0.618,0.6261,0.6335,0.649,0.7034,0.7419,0.7573,0.7107,0.6721,0.6567,0.6641,0.6251,0.6325,0.6254,0.6261,0.6264,0.6264,0.6261,0.6261,0.6268,0.6268,0.6268,0.6271,2.9779,2.9741,2.8895,2.7648,2.628,2.5515,2.4568,2.3632,2.3514,2.3062,2.2627,2.2103,2.1517,2.0789,2.0576,2.0576,2.0576,2.0576,2.0576,2.0576,2.0576,2.0576,2.042,2.0195,1.9893,1.9844,1.9512,1.9248,1.9053,1.8857,1.8424,1.7963,1.7555,1.7695,1.7411,1.676,1.5948,1.5305,1.4879,1.4665,1.4268,1.3114,1.2332,1.2332,1.2303,1.2324,1.241,1.2917,1.2725,1.2666,1.2952,1.2806,1.2512,1.2445,1.2372,1.2378,1.2378,1.2305,1.2305,1.2305,1.2305,1.2305,1.2305,1.2305,1.2305,1.2305,1.2305,1.2305,1.2305,1.1935,1.1832,1.1037,1.0179,0.9518,0.9221,0.9291,0.9523,0.9922,0.9922,0.975,0.914,0.8376,0.7927,0.748,0.6949,0.6493,0.6416,0.6261,0.6261,0.6335,0.6412,0.649,0.6563,0.6546,0.6619,0.7173,0.7885,0.8277,0.866,0.8102,0.7557,0.7407,0.7326,0.678,0.6472,0.6633,0.6641,0.6412,0.6335,0.6335,0.6335,0.6261,0.6261,0.6261,0.6264,2.9779,2.9779,2.9779,2.8733,2.7075,2.6663,2.5672,2.4539,2.448,2.3588,2.2478,2.2403,2.1745,2.0944,2.0576,2.0576,2.0576,2.0576,2.0576,2.0576,2.0576,2.0576,2.0459,2.0322,2.0166,2.0029,1.9863,1.9668,1.9463,1.916,1.8614,1.8254,1.8093,1.8134,1.7862,1.7354,1.6645,1.6158,1.572,1.5649,1.5396,1.4128,1.3292,1.3479,1.3917,1.3882,1.3723,1.389,1.3875,1.3738,1.3738,1.3745,1.3222,1.2705,1.2492,1.2505,1.2452,1.2305,1.2305,1.2305,1.2305,1.2305,1.2305,1.2305,1.2305,1.2305,1.2305,1.2305,1.2305,1.2325,1.2243,1.1645,1.1242,1.072,1.0496,1.049,1.0645,1.0881,1.0732,1.0576,0.9965,0.9432,0.8912,0.8385,0.7253,0.6721,0.6416,0.6261,0.6261,0.6412,0.6567,0.6718,0.6945,0.6919,0.6973,0.7838,0.8794,0.9932,0.9997,0.9246,0.8694,0.8466,0.8075,0.7596,0.7298,0.7165,0.7326,0.7629,0.7099,0.6412,0.6412,0.6412,0.6261,0.6261,0.6261,2.9779,2.9779,2.9779,2.9139,2.8,2.8024,2.7301,2.6156,2.6151,2.5134,2.3588,2.3441,2.2489,2.1242,2.1088,2.1088,2.1088,2.0934,2.0934,2.1011,2.1165,2.0867,2.0702,2.071,2.0631,2.0605,2.0371,2.0127,1.9912,1.9717,1.9068,1.8524,1.8453,1.827,1.8037,1.8008,1.794,1.7794,1.6922,1.6636,1.6341,1.559,1.5217,1.538,1.582,1.5581,1.5463,1.5054,1.495,1.4728,1.4942,1.495,1.4665,1.3216,1.294,1.3448,1.2659,1.2378,1.2305,1.2305,1.2305,1.2305,1.2305,1.2305,1.2305,1.2305,1.2305,1.2305,1.2305,1.2305,1.2238,1.2231,1.2003,1.1848,1.1545,1.1471,1.1626,1.1626,1.1477,1.1329,1.1019,1.0634,1.0034,0.921,0.7778,0.6945,0.649,0.6338,0.6335,0.6641,0.6945,0.7249,0.7553,0.8062,0.8268,0.8817,0.9706,1.0936,1.1326,1.0547,0.9895,0.9518,0.9044,0.8491,0.8282,0.8237,0.8694,0.915,0.8318,0.7484,0.6799,0.6644,0.6412,0.6563,0.6945,2.9779,2.9779,2.9779,2.9139,2.8185,2.8109,2.7482,2.6578,2.6383,2.5721,2.4707,2.4492,2.3818,2.285,2.2414,2.2414,2.2414,2.2489,2.2489,2.2489,2.2339,2.2038,2.1745,2.1451,2.1221,2.0712,2.0624,2.0518,2.0342,2.0127,2.0062,1.9649,1.8585,1.8141,1.8027,1.8008,1.8008,1.794,1.7647,1.7501,1.7501,1.7157,1.6978,1.6903,1.6666,1.6562,1.6758,1.6386,1.5948,1.5579,1.5799,1.5869,1.5384,1.403,1.3643,1.3608,1.2879,1.2305,1.2305,1.2305,1.2305,1.2305,1.2305,1.2305,1.2305,1.2305,1.2305,1.2305,1.2305,1.2305,1.2305,1.2305,1.2157,1.2157,1.2003,1.2077,1.2077,1.2157,1.2083,1.2003,1.1848,1.1732,1.1297,1.0455,0.9089,0.8025,0.7569,0.6795,0.6641,0.7173,0.7557,0.7859,0.8232,0.8969,0.9567,1.0034,1.0571,1.154,1.2013,1.1806,1.1248,1.0571,1.0582,1.0346,0.9825,0.9382,0.976,0.9992,0.9463,0.8708,0.8093,0.748,0.7326,0.7783,0.8466,2.9779,2.9779,2.9779,2.9264,2.8436,2.8197,2.7482,2.6578,2.6452,2.5943,2.5158,2.4933,2.4409,2.3672,2.3514,2.3514,2.3514,2.3441,2.3441,2.3514,2.3441,2.2999,2.2627,2.2178,2.1659,2.1078,2.0712,2.0557,2.0518,2.0283,2.0144,1.9781,1.8879,1.8305,1.8104,1.8154,1.8008,1.8008,1.7862,1.793,1.793,1.7872,1.7901,1.7627,1.7235,1.6757,1.7486,1.7408,1.6784,1.6507,1.6507,1.6784,1.6026,1.5188,1.4561,1.4034,1.3025,1.2445,1.2305,1.2305,1.2305,1.2305,1.2305,1.2305,1.2305,1.2305,1.2305,1.2305,1.2305,1.2305,1.2305,1.2305,1.2305,1.2305,1.2305,1.2305,1.2305,1.2305,1.2305,1.2305,1.2311,1.2284,1.2249,1.1484,1.0483,0.9565,0.8727,0.7949,0.7246,0.7698,0.838,0.8836,0.921,0.9948,1.0542,1.1162,1.162,1.2231,1.2305,1.2305,1.215,1.1471,1.1887,1.2061,1.1279,1.0738,1.0755,1.0686,1.0218,0.9906,0.9523,0.8993,0.8466,0.8841,0.9523,2.9779,2.9779,2.9779,2.9428,2.8837,2.8185,2.7356,2.6546,2.6521,2.5943,2.5075,2.5146,2.4779,2.3891,2.3745,2.3818,2.3963,2.3891,2.3963,2.3891,2.4108,2.3806,2.3368,2.285,2.2328,2.1745,2.1231,2.0867,2.0634,2.0478,2.0273,1.9948,1.9064,1.8686,1.8553,1.835,1.8135,1.8047,1.8008,1.8008,1.8008,1.8008,1.7998,1.7871,1.7705,1.7636,1.7919,1.7802,1.7745,1.7725,1.7862,1.793,1.7364,1.6219,1.5579,1.4649,1.3295,1.2952,1.2732,1.2879,1.2806,1.2952,1.2732,1.2519,1.2305,1.2305,1.2305,1.2305,1.2305,1.2305,1.2305,1.2305,1.2305,1.2305,1.2305,1.2305,1.2305,1.2305,1.2305,1.2305,1.2305,1.2264,1.2304,1.1783,1.139,1.1085,1.031,0.9911,0.921,0.8661,0.9341,1.0034,1.0479,1.0926,1.1527,1.1842,1.1996,1.2305,1.2305,1.2305,1.2224,1.2224,1.217,1.2183,1.2244,1.209,1.1651,1.1341,1.1025,1.0795,1.0651,1.0196,0.9588,0.9669,1.0126,2.9779,2.9779,2.9779,2.9227,2.8273,2.7344,2.6741,2.6546,2.6521,2.6245,2.6094,2.6094,2.5721,2.5652,2.5652,2.5581,2.5581,2.5652,2.5652,2.5569,2.5276,2.5063,2.4636,2.4108,2.3294,2.2403,2.1745,2.1308,2.0712,2.0644,2.0554,2.0282,1.9797,1.9551,1.9134,1.8772,1.8448,1.8135,1.8076,1.8008,1.8008,1.8008,1.7998,1.7988,1.7988,1.7998,1.7988,1.7988,1.8008,1.8008,1.8008,1.8008,1.7862,1.66,1.5643,1.4624,1.4244,1.4378,1.4378,1.4307,1.4235,1.4163,1.4163,1.3375,1.2879,1.2372,1.2365,1.2278,1.2298,1.2305,1.2305,1.2305,1.2305,1.2305,1.2378,1.2519,1.2592,1.2732,1.2732,1.2519,1.2519,1.2311,1.2284,1.2203,1.1887,1.1974,1.19,1.1416,1.0944,1.0318,1.0162,1.0932,1.131,1.1681,1.1842,1.215,1.2231,1.2305,1.2305,1.2305,1.2305,1.2305,1.2305,1.2305,1.2305,1.2305,1.2231,1.1922,1.1545,1.1774,1.17,1.1168,1.0789,1.087,1.095,2.9779,2.9779,2.9779,2.9139,2.8059,2.7168,2.6691,2.6559,2.6521,2.6521,2.6521,2.6452,2.6521,2.6383,2.6383,2.6383,2.6383,2.6302,2.6302,2.6302,2.6521,2.6094,2.5664,2.5146,2.4325,2.3368,2.2627,2.2113,2.1298,2.0702,2.0584,2.0532,2.0566,2.0297,1.9836,1.936,1.8872,1.8536,1.8262,1.8066,1.8018,1.8018,1.8008,1.8008,1.8008,1.8008,1.8008,1.8008,1.8008,1.8008,1.8008,1.8008,1.7852,1.6886,1.6062,1.5192,1.4925,1.5021,1.495,1.5021,1.5163,1.5234,1.5234,1.4585,1.3628,1.2961,1.2583,1.2284,1.2265,1.2305,1.2305,1.2305,1.2305,1.2305,1.2592,1.2879,1.3091,1.3302,1.3164,1.2879,1.2666,1.2378,1.2311,1.2305,1.2311,1.2244,1.2177,1.2016,1.1781,1.1465,1.1304,1.162,1.1922,1.215,1.2378,1.2452,1.2526,1.2452,1.2305,1.2305,1.2305,1.2305,1.2305,1.2305,1.2305,1.2305,1.2305,1.2305,1.2157,1.2305,1.2305,1.1848,1.1545,1.1694,1.1855,2.9779,2.9767,2.9691,2.9013,2.8084,2.7419,2.6879,2.6559,2.6521,2.6521,2.6521,2.6521,2.6521,2.6521,2.6521,2.6521,2.6521,2.6521,2.6521,2.6521,2.6521,2.6314,2.6094,2.5594,2.4992,2.4624,2.4036,2.3073,2.2103,2.1237,2.0604,2.0595,2.105,2.1094,2.1056,1.9949,1.9717,2.0042,1.9512,1.9076,1.8272,1.8066,1.8008,1.8008,1.8008,1.8008,1.8008,1.8008,1.8008,1.8008,1.8008,1.8008,1.7716,1.7354,1.663,1.636,1.6035,1.5886,1.5877,1.5939,1.5807,1.5658,1.5446,1.5587,1.5122,1.3879,1.3367,1.3049,1.31,1.3462,1.3557,1.339,1.331,1.3382,1.3593,1.381,1.3954,1.4091,1.3947,1.3506,1.2684,1.2478,1.2305,1.2305,1.2305,1.2305,1.2305,1.2305,1.2592,1.2439,1.2365,1.2291,1.2592,1.2739,1.2813,1.2959,1.2813,1.2746,1.2592,1.2305,1.2378,1.2305,1.2305,1.2305,1.2305,1.2305,1.2305,1.2305,1.2305,1.2305,1.2305,1.2305,1.2305,1.2291,1.2231,2.9779,2.9691,2.8863,2.8323,2.7996,2.7067,2.6603,2.6521,2.6521,2.6521,2.6521,2.6521,2.6521,2.6521,2.6521,2.6521,2.6521,2.6521,2.6521,2.6521,2.6521,2.6521,2.6521,2.6164,2.5664,2.5146,2.4564,2.4036,2.3051,2.173,2.0721,2.0817,2.1676,2.2606,2.266,2.1405,2.081,2.1557,2.1889,2.0541,1.8974,1.8262,1.8008,1.8008,1.8008,1.8008,1.8008,1.8008,1.8008,1.8008,1.8008,1.8008,1.794,1.7716,1.7657,1.7539,1.7245,1.7088,1.701,1.701,1.701,1.7148,1.7226,1.7295,1.6784,1.5334,1.4451,1.4205,1.4157,1.4537,1.4721,1.4474,1.4307,1.445,1.4665,1.4736,1.4879,1.4807,1.4807,1.3973,1.2998,1.2583,1.2412,1.2452,1.2305,1.2305,1.2305,1.2445,1.3164,1.3375,1.3011,1.3018,1.3237,1.3455,1.3528,1.368,1.3753,1.3528,1.3448,1.3025,1.2445,1.2606,1.2753,1.2378,1.2305,1.2586,1.2725,1.2372,1.2372,1.2666,1.2732,1.2945,1.2645,1.2565,1.2439,2.9779,2.9679,2.885,2.8323,2.7971,2.718,2.6703,2.6627,2.685,2.685,2.6521,2.6521,2.6521,2.6521,2.6521,2.6521,2.6521,2.6521,2.6521,2.6521,2.6521,2.6521,2.6521,2.6452,2.6233,2.5664,2.5146,2.4552,2.4002,2.3125,2.2296,2.1437,2.2723,2.4209,2.426,2.3084,2.2259,2.3089,2.4166,2.3029,2.0404,1.9231,1.8154,1.8027,1.8027,1.8037,1.8008,1.8008,1.8008,1.8008,1.8008,1.8008,1.8008,1.794,1.794,1.794,1.7872,1.8008,1.8008,1.8008,1.8008,1.8008,1.8008,1.7725,1.7725,1.6489,1.6053,1.5738,1.5251,1.5564,1.5141,1.4887,1.4807,1.4879,1.5508,1.593,1.6079,1.6079,1.593,1.5413,1.4253,1.2877,1.3021,1.386,1.3875,1.4225,1.3928,1.352,1.4091,1.4378,1.4019,1.3947,1.4307,1.4386,1.4386,1.4609,1.484,1.4617,1.4458,1.3295,1.2629,1.3004,1.3127,1.2945,1.299,1.3484,1.3484,1.3215,1.352,1.4027,1.3875,1.3723,1.3353,1.3048,1.3266,2.9856,2.9922,2.9378,2.8883,2.8397,2.7908,2.7416,2.7037,2.755,2.7484,2.696,2.6769,2.6645,2.6521,2.6521,2.6521,2.6521,2.6521,2.6521,2.6521,2.6521,2.6521,2.6521,2.6452,2.6383,2.6164,2.5664,2.5441,2.5134,2.449,2.3661,2.2247,2.3329,2.5321,2.5636,2.5027,2.4083,2.4519,2.4989,2.5009,2.2891,2.0323,1.912,1.8478,1.8301,1.8311,1.8321,1.8115,1.8125,1.8057,1.8066,1.8008,1.8008,1.8008,1.8008,1.8008,1.8008,1.8008,1.8008,1.8008,1.8008,1.8008,1.8008,1.8008,1.8008,1.7794,1.7285,1.7028,1.6544,1.6193,1.5842,1.5666,1.5658,1.5728,1.6437,1.6922,1.707,1.7139,1.6853,1.6567,1.5399,1.3846,1.4041,1.4893,1.5417,1.5848,1.5752,1.5551,1.5367,1.5438,1.5367,1.5438,1.5799,1.5728,1.5446,1.5745,1.6053,1.6034,1.5647,1.3961,1.2799,1.3006,1.3281,1.3526,1.372,1.4419,1.4554,1.4419,1.4791,1.5092,1.4736,1.4363,1.4268,1.4181,1.4435,3.0292,3.093,3.038,3.0135,3.0133,2.9698,2.91,2.8624,2.862,2.862,2.8298,2.767,2.7162,2.6521,2.6521,2.6521,2.6521,2.6521,2.6521,2.6521,2.6521,2.6521,2.6521,2.6521,2.6521,2.6314,2.6164,2.6233,2.5898,2.5944,2.5864,2.5147,2.5254,2.6176,2.621,2.5773,2.5611,2.5861,2.5861,2.5958,2.5566,2.3179,2.0759,2.0136,1.9918,1.9738,1.9433,1.8691,1.8574,1.8428,1.8232,1.8086,1.8008,1.8008,1.8008,1.8008,1.8008,1.8008,1.8008,1.8008,1.8008,1.8008,1.8008,1.8008,1.8008,1.8008,1.7716,1.7716,1.7411,1.7411,1.7157,1.7157,1.7148,1.7148,1.7579,1.7647,1.7716,1.7647,1.7432,1.7263,1.6839,1.5738,1.5081,1.578,1.6387,1.6466,1.5921,1.5728,1.6289,1.6428,1.6576,1.6793,1.7079,1.6862,1.6507,1.6941,1.7263,1.726,1.7018,1.5737,1.4379,1.2927,1.3099,1.3922,1.4767,1.5576,1.5551,1.5632,1.55,1.5587,1.5305,1.5013,1.5051,1.5246,1.559]}]]